[[{"header":{"parameterUnit":"m.s-1","parameterCategory":1,"la1":30.6,"la2":29.2853,"lo1":-89.7004,"lo2":-87.6739,"dx":0.0162,"dy":0.0183,"nx":112,"ny":82,"refTime":"2023-02-04T06:00:00:Z","depth":0,"parameterNumber":2,"parameterNumberName":"U-component_of_WINDS"},"data":[0.0,0.0,0.0,0.0,0.0,0.0,0.0,0.0,0.0,0.0,0.0,0.0,0.0,0.0,0.0,0.0,0.0,0.0,0.0,0.0,0.0,0.0,0.0,0.0,0.0,0.0,0.0,0.0,0.0,0.0,0.0,0.0,0.0,0.0,0.0,0.0,0.0,0.0,0.0,0.0,0.0,0.0,0.0,0.0,0.0,0.0,0.0,0.0,0.0,0.0,0.0,0.0,0.0,0.0,0.0,0.0,0.0,0.0,0.0,0.0,0.0,0.0,0.0,0.0,0.0,0.0,0.0,0.0,0.0,0.0,0.0,0.0,0.0,0.0,0.0,0.0,0.0,0.0,0.0,0.0,0.0,0.0,0.0,0.0,0.0,0.0,0.0,0.0,0.0,0.0,0.0,-2.7315,-2.6342,-2.5693,-2.5693,-2.5693,-2.6159,-2.722,0.0,0.0,0.0,0.0,0.0,0.0,0.0,0.0,0.0,0.0,0.0,0.0,0.0,0.0,0.0,0.0,0.0,0.0,0.0,0.0,0.0,0.0,0.0,0.0,0.0,0.0,0.0,0.0,0.0,0.0,0.0,0.0,0.0,0.0,0.0,0.0,0.0,0.0,0.0,0.0,0.0,0.0,0.0,0.0,0.0,0.0,0.0,0.0,0.0,0.0,0.0,0.0,0.0,0.0,0.0,0.0,0.0,0.0,0.0,0.0,0.0,0.0,0.0,0.0,0.0,0.0,0.0,0.0,0.0,0.0,0.0,0.0,0.0,0.0,0.0,0.0,0.0,0.0,0.0,0.0,0.0,0.0,0.0,0.0,0.0,0.0,0.0,0.0,0.0,0.0,0.0,0.0,0.0,0.0,0.0,0.0,0.0,0.0,0.0,0.0,0.0,0.0,0.0,0.0,-2.5965,-2.5965,-2.583,-2.5693,-2.5693,-2.5693,-2.5781,-2.5965,0.0,0.0,0.0,0.0,0.0,0.0,0.0,0.0,0.0,0.0,0.0,0.0,0.0,0.0,0.0,0.0,0.0,0.0,0.0,0.0,0.0,0.0,0.0,0.0,0.0,0.0,0.0,0.0,0.0,0.0,0.0,0.0,0.0,0.0,0.0,0.0,0.0,0.0,0.0,0.0,0.0,0.0,0.0,0.0,0.0,0.0,0.0,0.0,0.0,0.0,0.0,0.0,0.0,0.0,0.0,0.0,0.0,0.0,0.0,0.0,0.0,0.0,0.0,0.0,0.0,0.0,0.0,0.0,0.0,0.0,0.0,0.0,0.0,0.0,0.0,0.0,0.0,0.0,0.0,0.0,0.0,0.0,0.0,0.0,0.0,0.0,0.0,0.0,0.0,0.0,0.0,0.0,0.0,0.0,0.0,0.0,0.0,0.0,0.0,0.0,0.0,0.0,0.0,-2.6062,-2.5693,-2.5693,-2.5693,-2.5693,-2.5693,-2.5693,-2.5693,-2.5693,-2.6245,0.0,0.0,0.0,0.0,0.0,0.0,0.0,0.0,0.0,0.0,0.0,0.0,0.0,0.0,0.0,0.0,0.0,0.0,0.0,0.0,0.0,0.0,0.0,0.0,0.0,0.0,0.0,0.0,0.0,0.0,0.0,0.0,0.0,0.0,0.0,0.0,0.0,0.0,0.0,0.0,0.0,0.0,0.0,0.0,0.0,0.0,0.0,0.0,0.0,0.0,0.0,0.0,0.0,0.0,0.0,0.0,0.0,0.0,0.0,0.0,0.0,0.0,0.0,0.0,0.0,0.0,0.0,0.0,0.0,0.0,0.0,0.0,0.0,0.0,0.0,0.0,0.0,0.0,0.0,0.0,0.0,0.0,0.0,0.0,0.0,0.0,0.0,0.0,0.0,0.0,0.0,0.0,0.0,0.0,0.0,0.0,0.0,0.0,0.0,0.0,0.0,0.0,-2.5693,-2.5693,-2.5693,-2.5693,-2.5693,-2.5693,-2.5693,-2.5693,-2.5693,-2.5693,0.0,0.0,0.0,0.0,0.0,0.0,0.0,0.0,0.0,0.0,0.0,0.0,0.0,0.0,0.0,0.0,0.0,0.0,0.0,0.0,0.0,0.0,0.0,0.0,0.0,0.0,0.0,0.0,0.0,0.0,0.0,0.0,0.0,0.0,0.0,0.0,0.0,0.0,0.0,0.0,0.0,0.0,0.0,0.0,0.0,0.0,0.0,0.0,0.0,0.0,0.0,0.0,0.0,0.0,0.0,0.0,0.0,0.0,0.0,0.0,0.0,0.0,0.0,0.0,0.0,0.0,0.0,0.0,0.0,0.0,0.0,0.0,0.0,0.0,0.0,0.0,0.0,0.0,0.0,0.0,0.0,0.0,0.0,0.0,0.0,0.0,0.0,0.0,0.0,0.0,0.0,0.0,0.0,0.0,0.0,0.0,0.0,0.0,0.0,0.0,0.0,0.0,-2.5693,-2.5693,-2.5693,-2.5693,-2.5693,-2.5693,-2.5693,-2.5693,-2.5693,-2.5693,0.0,0.0,0.0,0.0,0.0,0.0,0.0,0.0,0.0,0.0,0.0,0.0,0.0,0.0,0.0,0.0,0.0,0.0,0.0,0.0,0.0,0.0,0.0,0.0,0.0,0.0,0.0,0.0,0.0,0.0,0.0,0.0,0.0,0.0,0.0,0.0,0.0,0.0,0.0,0.0,0.0,0.0,0.0,0.0,0.0,0.0,0.0,0.0,0.0,0.0,0.0,0.0,0.0,0.0,0.0,0.0,0.0,0.0,0.0,0.0,0.0,0.0,0.0,0.0,0.0,0.0,0.0,0.0,0.0,0.0,0.0,0.0,0.0,0.0,0.0,0.0,0.0,0.0,0.0,0.0,0.0,0.0,0.0,0.0,0.0,0.0,0.0,0.0,0.0,0.0,0.0,0.0,0.0,0.0,0.0,0.0,0.0,0.0,0.0,0.0,0.0,0.0,-2.5693,-2.5693,0.0,-2.5693,-2.5693,-2.5693,-2.5693,-2.5693,-2.5693,0.0,0.0,0.0,0.0,0.0,0.0,0.0,0.0,0.0,0.0,0.0,0.0,0.0,0.0,0.0,0.0,0.0,0.0,0.0,0.0,0.0,0.0,0.0,0.0,0.0,0.0,0.0,0.0,0.0,0.0,0.0,0.0,0.0,0.0,0.0,0.0,0.0,0.0,0.0,0.0,0.0,0.0,0.0,0.0,0.0,0.0,0.0,0.0,0.0,0.0,0.0,0.0,0.0,0.0,0.0,0.0,0.0,0.0,0.0,0.0,0.0,0.0,0.0,0.0,0.0,0.0,0.0,0.0,0.0,0.0,0.0,0.0,0.0,0.0,0.0,0.0,0.0,0.0,0.0,0.0,0.0,0.0,0.0,0.0,0.0,0.0,0.0,0.0,0.0,0.0,0.0,0.0,0.0,0.0,0.0,0.0,0.0,0.0,0.0,0.0,0.0,0.0,-2.5693,-2.5693,-2.5693,0.0,-2.5693,-2.5693,-2.5693,-2.5693,-2.5693,-2.5693,0.0,0.0,0.0,0.0,0.0,0.0,0.0,0.0,0.0,0.0,0.0,0.0,0.0,0.0,0.0,0.0,0.0,0.0,0.0,0.0,0.0,0.0,0.0,0.0,0.0,0.0,0.0,0.0,0.0,0.0,0.0,0.0,0.0,0.0,0.0,0.0,0.0,0.0,0.0,0.0,0.0,0.0,0.0,0.0,0.0,0.0,0.0,0.0,0.0,0.0,0.0,0.0,0.0,0.0,0.0,0.0,0.0,0.0,0.0,0.0,0.0,0.0,0.0,0.0,0.0,0.0,0.0,0.0,0.0,0.0,0.0,0.0,0.0,0.0,0.0,0.0,0.0,0.0,0.0,0.0,0.0,0.0,0.0,0.0,0.0,0.0,0.0,0.0,0.0,0.0,0.0,0.0,0.0,0.0,0.0,0.0,0.0,0.0,0.0,0.0,0.0,0.0,-2.5684,-2.5684,-2.5693,-2.5693,-2.5693,-2.5693,-2.5693,-2.5693,-2.5693,0.0,0.0,0.0,0.0,0.0,0.0,0.0,0.0,0.0,0.0,0.0,0.0,0.0,0.0,0.0,0.0,0.0,0.0,0.0,0.0,0.0,0.0,0.0,0.0,0.0,0.0,0.0,0.0,0.0,0.0,0.0,0.0,0.0,0.0,0.0,0.0,0.0,0.0,0.0,0.0,0.0,0.0,0.0,0.0,0.0,0.0,0.0,0.0,0.0,0.0,0.0,0.0,0.0,0.0,0.0,0.0,0.0,0.0,0.0,0.0,0.0,0.0,0.0,0.0,0.0,0.0,0.0,0.0,0.0,0.0,0.0,0.0,0.0,0.0,0.0,0.0,0.0,0.0,0.0,0.0,0.0,0.0,0.0,0.0,0.0,0.0,0.0,0.0,0.0,0.0,0.0,0.0,0.0,0.0,0.0,0.0,0.0,0.0,0.0,0.0,0.0,0.0,0.0,-2.4402,-2.5118,-2.5693,-2.5693,-2.5693,-2.5693,-2.5693,-2.5693,-2.5693,-2.5693,0.0,0.0,0.0,0.0,0.0,0.0,0.0,0.0,0.0,0.0,0.0,0.0,0.0,0.0,0.0,0.0,0.0,0.0,0.0,0.0,0.0,0.0,0.0,0.0,0.0,0.0,0.0,0.0,0.0,0.0,0.0,0.0,0.0,0.0,0.0,0.0,0.0,0.0,0.0,0.0,0.0,0.0,0.0,0.0,0.0,0.0,0.0,0.0,0.0,0.0,0.0,0.0,0.0,0.0,0.0,0.0,0.0,0.0,0.0,0.0,0.0,0.0,0.0,0.0,0.0,0.0,0.0,0.0,0.0,0.0,0.0,0.0,0.0,0.0,0.0,0.0,0.0,0.0,0.0,0.0,0.0,0.0,0.0,0.0,0.0,0.0,0.0,0.0,0.0,0.0,0.0,0.0,0.0,0.0,0.0,0.0,0.0,0.0,0.0,0.0,0.0,0.0,-2.3026,-2.3583,-2.4097,-2.4097,-2.4097,-2.4304,-2.4864,-2.4913,-2.5128,-2.5693,0.0,0.0,0.0,0.0,0.0,0.0,0.0,0.0,0.0,0.0,0.0,0.0,0.0,0.0,0.0,0.0,0.0,0.0,0.0,0.0,0.0,0.0,0.0,0.0,0.0,0.0,0.0,0.0,0.0,0.0,0.0,0.0,0.0,0.0,0.0,0.0,0.0,0.0,0.0,0.0,0.0,0.0,0.0,0.0,0.0,0.0,0.0,0.0,0.0,0.0,0.0,0.0,0.0,0.0,0.0,0.0,0.0,0.0,0.0,0.0,0.0,0.0,0.0,0.0,0.0,0.0,0.0,0.0,0.0,0.0,0.0,0.0,0.0,0.0,0.0,0.0,0.0,0.0,0.0,0.0,0.0,0.0,0.0,0.0,0.0,0.0,0.0,0.0,0.0,0.0,0.0,0.0,0.0,0.0,0.0,0.0,0.0,0.0,0.0,0.0,0.0,0.0,-2.1541,-2.16,-2.1702,-2.1702,-2.1702,-2.2206,-2.3434,-2.3633,-2.4205,-2.543,0.0,0.0,0.0,0.0,0.0,0.0,0.0,0.0,0.0,0.0,0.0,0.0,0.0,0.0,0.0,0.0,0.0,0.0,0.0,0.0,0.0,0.0,0.0,0.0,0.0,0.0,0.0,0.0,0.0,0.0,0.0,0.0,0.0,0.0,0.0,0.0,0.0,0.0,0.0,0.0,0.0,0.0,0.0,0.0,0.0,0.0,0.0,0.0,0.0,0.0,0.0,0.0,0.0,0.0,0.0,0.0,0.0,0.0,0.0,0.0,-2.8291,0.0,0.0,0.0,0.0,0.0,0.0,0.0,0.0,0.0,0.0,0.0,0.0,0.0,0.0,0.0,0.0,0.0,0.0,0.0,0.0,0.0,0.0,0.0,0.0,0.0,0.0,0.0,0.0,0.0,0.0,0.0,0.0,0.0,0.0,0.0,0.0,0.0,0.0,0.0,0.0,0.0,-2.0187,-2.099,-2.1702,-2.1702,-2.1702,-2.1803,-2.2106,-2.3076,-2.384,-2.4097,-2.5118,0.0,0.0,0.0,0.0,0.0,0.0,0.0,0.0,0.0,0.0,0.0,0.0,0.0,0.0,0.0,0.0,0.0,0.0,0.0,0.0,0.0,0.0,0.0,0.0,0.0,0.0,0.0,0.0,0.0,0.0,0.0,0.0,0.0,0.0,0.0,0.0,0.0,0.0,0.0,0.0,0.0,0.0,0.0,0.0,0.0,0.0,0.0,0.0,0.0,0.0,0.0,0.0,0.0,0.0,0.0,0.0,0.0,0.0,0.0,0.0,-2.8291,0.0,0.0,0.0,0.0,0.0,0.0,0.0,0.0,0.0,0.0,0.0,0.0,0.0,0.0,0.0,0.0,0.0,0.0,0.0,0.0,0.0,0.0,0.0,0.0,0.0,0.0,0.0,0.0,0.0,0.0,0.0,0.0,0.0,0.0,0.0,0.0,0.0,0.0,0.0,0.0,-1.8708,-1.9265,-1.9716,-1.9716,-1.9716,-1.9973,-2.0641,-2.1355,-2.2013,-2.2717,-2.3512,0.0,0.0,0.0,0.0,0.0,0.0,0.0,0.0,0.0,0.0,0.0,0.0,0.0,0.0,0.0,0.0,0.0,0.0,0.0,0.0,0.0,0.0,0.0,0.0,0.0,0.0,0.0,0.0,0.0,0.0,0.0,0.0,0.0,0.0,0.0,0.0,0.0,0.0,0.0,0.0,0.0,0.0,0.0,0.0,0.0,0.0,0.0,0.0,0.0,0.0,0.0,0.0,0.0,-2.7473,-2.7511,-2.7511,-2.7511,-2.7511,-2.7511,-2.7511,-2.7672,-2.7897,-2.7897,0.0,0.0,0.0,0.0,0.0,0.0,0.0,0.0,0.0,0.0,0.0,0.0,0.0,0.0,0.0,0.0,0.0,0.0,0.0,0.0,0.0,0.0,0.0,0.0,-2.3599,-2.3667,0.0,0.0,0.0,0.0,0.0,0.0,0.0,0.0,0.0,0.0,0.0,0.0,-1.7582,-1.7582,-1.7582,-1.7582,-1.7582,-1.8042,-1.9169,-1.9472,-2.0107,-2.1334,-2.1832,-2.2297,0.0,0.0,0.0,0.0,0.0,0.0,0.0,0.0,0.0,0.0,0.0,0.0,0.0,0.0,0.0,0.0,0.0,0.0,0.0,0.0,0.0,0.0,0.0,0.0,0.0,0.0,0.0,0.0,0.0,0.0,0.0,0.0,-2.5693,-2.5693,0.0,0.0,0.0,0.0,0.0,0.0,0.0,0.0,0.0,0.0,0.0,0.0,0.0,-2.2367,-2.2642,-2.3066,-2.3544,-2.4076,-2.4281,-2.4378,-2.4378,-2.4378,-2.4378,-2.4378,-2.4378,0.0,-2.6381,-2.6381,0.0,0.0,0.0,0.0,0.0,0.0,0.0,0.0,0.0,0.0,0.0,0.0,0.0,0.0,0.0,0.0,0.0,0.0,0.0,0.0,0.0,0.0,-2.3822,-2.3822,-2.2814,-2.1884,0.0,-2.1545,-2.1258,-2.0978,-1.9581,0.0,0.0,0.0,0.0,0.0,0.0,0.0,-1.7582,-1.7582,-1.7582,-1.7582,-1.7582,-1.7687,-1.7838,-1.8916,-1.9799,-2.0302,-2.1458,-2.2412,-2.3086,-2.316,0.0,0.0,0.0,0.0,0.0,0.0,0.0,0.0,0.0,0.0,0.0,0.0,0.0,0.0,0.0,0.0,0.0,0.0,0.0,0.0,0.0,0.0,0.0,0.0,0.0,0.0,0.0,0.0,0.0,-2.3949,-2.3434,-2.3434,-2.2918,-2.2567,0.0,0.0,0.0,0.0,0.0,0.0,0.0,0.0,0.0,-2.0538,-2.1296,-2.1526,-2.116,-2.2197,-2.293,-2.3402,-2.3657,-2.3822,-2.3822,-2.3822,-2.3822,-2.3766,-2.2927,-2.2927,-2.3646,-2.4488,-2.482,-2.4875,0.0,0.0,0.0,0.0,-2.538,-2.4875,-2.5553,-2.5325,0.0,-2.5553,0.0,0.0,0.0,0.0,0.0,0.0,0.0,0.0,0.0,0.0,-2.1323,-2.1323,-2.0816,-2.0329,-2.0195,-2.0026,-1.9703,0.0,-1.8543,-1.7936,-1.7635,0.0,0.0,0.0,0.0,0.0,-1.7582,-1.7582,-1.7582,-1.7582,-1.7582,-1.7582,-1.7582,-1.8146,-1.8594,-1.891,-1.9625,-2.0303,-2.0766,-2.0965,-2.1126,0.0,0.0,0.0,0.0,0.0,0.0,0.0,0.0,0.0,0.0,0.0,0.0,0.0,0.0,0.0,0.0,0.0,0.0,0.0,0.0,0.0,0.0,0.0,0.0,0.0,0.0,0.0,0.0,-2.2316,-2.1702,-2.1702,-2.1397,-2.1143,0.0,0.0,0.0,0.0,0.0,0.0,-2.0633,-2.0633,-2.0179,-1.9117,-2.0076,-2.0348,-1.9703,-2.0979,-2.186,-2.2261,-2.2552,-2.2661,-2.2661,-2.2661,-2.2661,-2.2605,-2.1536,-2.1031,-2.1145,-2.2653,-2.3263,-2.3263,-2.3654,-2.3822,-2.3822,-2.3822,-2.3543,-2.3263,-2.3654,-2.3543,-2.3319,-2.3654,0.0,-2.3263,-2.3263,0.0,0.0,0.0,0.0,-2.1031,-2.1031,-2.0199,-1.9424,-1.9424,-1.9424,-1.9424,-1.9424,-1.9192,-1.8865,0.0,-1.8042,-1.7896,-1.7635,0.0,0.0,0.0,0.0,-1.7582,-1.7582,-1.7582,-1.7615,-1.7695,-1.7702,-1.7736,-1.7809,-1.7816,-1.7943,-1.8195,-1.8477,-1.8731,-1.9025,-1.9252,-1.9424,-1.9424,0.0,0.0,0.0,0.0,0.0,0.0,0.0,0.0,0.0,0.0,0.0,0.0,0.0,0.0,0.0,0.0,0.0,0.0,0.0,0.0,0.0,0.0,0.0,0.0,0.0,0.0,0.0,0.0,0.0,-2.1702,-2.0538,0.0,0.0,0.0,0.0,-1.7786,-1.7786,-1.7786,-1.7786,-1.7786,-1.7786,-1.7681,-1.7786,-1.7888,-1.8097,-1.8502,-1.8854,-1.9145,-1.9449,-1.9649,-1.9649,-1.9649,-1.9649,-1.9591,-1.9533,-1.9533,-1.9649,-2.1088,-2.1692,-2.1862,-2.3263,-2.3822,-2.3822,-2.3822,-2.2927,-2.1919,-2.3319,-2.287,-2.1919,-2.3319,-2.287,-2.1692,-2.1692,-2.0759,0.0,0.0,-1.9591,-1.9533,-1.9533,-1.9482,-1.9424,-1.9424,-1.9424,-1.9424,-1.9424,-1.9417,-1.9229,0.0,-1.8237,-1.7896,-1.7635,0.0,-1.7582,-1.7582,-1.7582,-1.7582,-1.7582,-1.7582,-1.7695,-1.7935,-1.7969,-1.8136,-1.8424,-1.8444,-1.8571,-1.8865,-1.8891,-1.9038,-1.9332,-1.9417,-1.9424,-1.9424,-1.9424,0.0,0.0,0.0,0.0,0.0,0.0,0.0,0.0,0.0,0.0,0.0,0.0,0.0,0.0,0.0,0.0,0.0,0.0,0.0,0.0,0.0,0.0,0.0,0.0,0.0,0.0,0.0,0.0,-1.9057,-1.8603,0.0,-1.8297,-1.7891,-1.7582,-1.7582,-1.7582,-1.7582,-1.7582,-1.7769,-1.7883,-1.7883,-1.807,-1.8223,-1.833,-1.8624,-1.8824,-1.8925,-1.9225,-1.9424,-1.9424,-1.9424,-1.9424,-1.9424,-1.9424,-1.9424,-1.9424,-1.9982,-2.0206,-2.0256,-2.0759,-2.0988,-2.0988,-2.0988,-2.0651,-2.0256,-2.0766,-2.0594,-2.0256,-2.0823,-2.0594,-2.0206,-2.0206,-1.9815,-1.9424,-1.9424,-1.9424,-1.9424,-1.9424,-1.9424,-1.9424,-1.9424,-1.9424,-1.9424,-1.9424,-1.9424,-1.9252,-1.8844,-1.8531,-1.8237,-1.7936,-1.7716,-1.7649,-1.7849,-1.7883,-1.7949,-1.8143,-1.817,-1.821,-1.8323,-1.833,-1.8377,-1.8484,-1.849,-1.8611,-1.8905,-1.8925,-1.9058,-1.9417,-1.9424,-1.9424,-1.9424,-1.9424,-1.9424,0.0,0.0,0.0,0.0,0.0,0.0,0.0,0.0,0.0,0.0,0.0,0.0,0.0,0.0,0.0,0.0,0.0,0.0,0.0,0.0,0.0,0.0,0.0,0.0,0.0,0.0,-1.7582,-1.7582,-1.7582,-1.7582,-1.7582,-1.7582,-1.7622,-1.7736,-1.7736,-1.7782,-1.7883,-1.8083,-1.8196,-1.8196,-1.8384,-1.8537,-1.8637,-1.8824,-1.8978,-1.9078,-1.9272,-1.9424,-1.9424,-1.9424,-1.9424,-1.9424,-1.9424,-1.9424,-1.9424,-1.9424,-1.9424,-1.9424,-1.9424,-1.9424,-1.9424,-1.9424,-1.9424,-1.9424,-1.9424,-1.9424,-1.9424,-1.9424,-1.9424,-1.9424,-1.9424,-1.9424,-1.9424,-1.9424,-1.9424,-1.9424,-1.9424,-1.9424,-1.9424,-1.9424,-1.9424,-1.9424,-1.9424,-1.9424,-1.9305,-1.9112,-1.8838,-1.8544,-1.8243,-1.8029,-1.7956,-1.8163,-1.8196,-1.827,-1.8464,-1.849,-1.8524,-1.8631,-1.8637,-1.8677,-1.8778,-1.8784,-1.8871,-1.9058,-1.9072,-1.9158,-1.9417,-1.9424,-1.9424,-1.9424,-1.9424,-1.9424,-1.9424,0.0,0.0,0.0,0.0,0.0,0.0,0.0,0.0,0.0,0.0,0.0,0.0,0.0,0.0,0.0,0.0,0.0,0.0,0.0,0.0,0.0,0.0,0.0,-1.7629,-1.7582,-1.7589,-1.7595,-1.7595,-1.7602,-1.7609,-1.7609,-1.7736,-1.7982,-1.8009,-1.8135,-1.8477,-1.8497,-1.8504,-1.8504,-1.851,-1.8651,-1.8931,-1.8938,-1.9085,-1.9424,-1.9424,-1.9424,-1.9424,-1.9424,-1.9424,-1.9424,-1.9424,-1.9424,-1.9424,-1.9424,-1.9424,-1.9424,-1.9424,-1.9424,-1.9424,-1.9424,-1.9424,-1.9424,-1.9424,-1.9424,-1.9424,-1.9424,-1.9424,-1.9424,-1.9424,-1.9424,-1.9424,-1.9424,-1.9424,-1.9424,-1.9424,-1.9424,-1.9424,-1.9424,-1.9424,-1.9424,-1.9424,-1.9424,-1.9424,-1.9424,-1.9132,-1.8844,-1.8557,-1.8497,-1.8497,-1.8504,-1.8504,0.0,-1.8517,-1.8517,-1.8624,-1.8905,-1.8938,-1.9052,-1.9339,-1.9424,-1.9424,-1.9424,-1.9424,-1.9424,-1.9424,-1.9424,-1.9424,-1.9424,-1.9424,-1.9424,-1.9424,0.0,0.0,0.0,0.0,0.0,0.0,0.0,0.0,0.0,0.0,0.0,0.0,0.0,0.0,0.0,0.0,0.0,0.0,0.0,0.0,0.0,0.0,-1.8424,-1.7689,-1.7582,-1.7662,-1.7896,-1.7903,-1.7989,-1.8217,-1.8237,-1.8277,-1.8364,-1.837,-1.8404,-1.849,-1.8691,-1.8804,-1.8804,-1.9018,-1.9165,-1.9245,-1.9245,-1.9285,-1.9424,-1.9424,-1.9424,-1.9424,-1.9424,-1.9424,-1.9424,-1.9424,-1.9424,-1.9424,-1.9424,-1.9424,-1.9424,-1.9424,-1.9424,-1.9424,-1.9424,-1.9424,-1.9424,-1.9424,-1.9424,-1.9424,-1.9424,-1.9424,-1.9424,-1.9424,-1.9424,-1.9424,-1.9424,-1.9424,-1.9424,-1.9424,-1.9424,-1.9424,-1.9424,-1.9424,-1.9424,-1.9424,-1.9424,-1.9424,-1.9424,-1.9299,-1.9152,-1.8858,-1.8631,-1.8564,-1.8771,-1.8804,0.0,-1.9098,-1.9125,-1.9158,-1.9239,-1.9245,-1.9279,-1.9417,-1.9424,-1.9424,-1.9424,-1.9424,-1.9424,-1.9424,-1.9424,-1.9424,-1.9424,-1.9424,-1.9424,0.0,0.0,0.0,0.0,0.0,0.0,0.0,0.0,0.0,0.0,0.0,0.0,0.0,0.0,0.0,0.0,0.0,0.0,0.0,0.0,0.0,0.0,-1.8925,-1.8698,-1.8056,-1.7963,-1.8029,-1.821,-1.8223,-1.8283,-1.847,-1.849,-1.8544,-1.8664,-1.8671,-1.8724,-1.8851,-1.9018,-1.9112,-1.9112,-1.9279,-1.9424,-1.9424,-1.9424,-1.9424,-1.9424,-1.9424,-1.9424,-1.9424,-1.9424,-1.9424,0.0,-1.9424,-1.9424,-1.9424,-1.9424,-1.9424,0.0,0.0,0.0,0.0,0.0,-1.9424,-1.9424,-1.9424,-1.9424,-1.9424,-1.9424,-1.9424,-1.9424,-1.9424,-1.9424,-1.9424,-1.9424,-1.9424,-1.9424,-1.9424,-1.9424,-1.9424,-1.9424,-1.9424,-1.9424,-1.9424,-1.9424,-1.9424,-1.9424,-1.9424,0.0,-1.9138,-1.8965,-1.8911,-1.9085,-1.9112,-1.9172,-1.9345,-1.9424,-1.9424,-1.9424,-1.9424,-1.9424,-1.9424,-1.9424,0.0,0.0,0.0,-1.9424,-1.9424,-1.9424,0.0,0.0,0.0,-1.9424,-1.9424,0.0,0.0,0.0,-1.9424,-1.9424,0.0,0.0,0.0,0.0,0.0,0.0,0.0,0.0,0.0,0.0,0.0,0.0,0.0,0.0,0.0,0.0,-1.8978,-1.8885,-1.8624,-1.8591,-1.8577,-1.8544,-1.8544,-1.8551,-1.8584,-1.8591,-1.8698,-1.8951,-1.8978,-1.9092,-1.9352,0.0,0.0,0.0,0.0,-1.9424,-1.9424,-1.9424,-1.9444,-1.9477,-1.9477,-1.9432,-1.9466,-1.9466,-1.9466,-1.9466,-1.9466,-1.9466,-1.9466,-1.9466,-1.9446,-1.9412,-1.9379,-1.9424,-1.9424,-1.9424,-1.9424,-1.9424,-1.9424,0.0,0.0,-1.9424,-1.9424,-1.9424,-1.9424,-1.9424,-1.9424,-1.9424,-1.9424,-1.9424,-1.9424,-1.9424,-1.9424,-1.9424,-1.9424,-1.9424,-1.9424,-1.9424,-1.9424,-1.9424,-1.9424,-1.9424,-1.9424,-1.9424,-1.9424,-1.9424,-1.9424,-1.9424,-1.9424,-1.9424,-1.9424,-1.9424,0.0,0.0,-1.9424,-1.9424,-1.9424,-1.9424,-1.9424,-1.9424,-1.9424,-1.9424,-1.9424,-1.9424,-1.9424,-1.9379,-1.9477,-1.9477,-1.9432,-1.9466,-1.9457,-1.9424,0.0,0.0,0.0,0.0,0.0,0.0,0.0,0.0,0.0,0.0,0.0,0.0,0.0,0.0,0.0,-1.9292,-1.9279,-1.9259,-1.9205,-1.9256,-1.9112,-1.8871,-1.8838,-1.8931,-1.9172,-1.9256,-1.9219,-1.9279,-1.9279,-1.9305,-1.9424,-1.9424,-1.9424,-1.9424,-1.9424,-1.9424,-1.9424,-1.9424,-1.9486,-1.972,0.0,0.0,-2.0067,-2.0067,-2.0067,-2.0067,-2.0067,-2.0067,-2.0067,-2.0067,-1.9927,-1.9693,-1.9459,-1.9424,-1.9424,-1.9424,-1.9424,-1.9424,-1.9424,-1.9424,-1.9424,-1.9424,-1.9424,-1.9424,-1.9424,-1.9424,0.0,-1.9424,-1.9424,-1.9424,-1.9424,-1.9424,-1.9424,-1.9424,-1.9424,-1.9424,-1.9424,-1.9424,-1.9424,-1.9424,-1.9424,-1.9424,-1.9424,-1.9424,-1.9424,-1.9424,-1.9424,-1.9424,-1.9424,-1.9424,-1.9424,-1.9424,-1.9424,-1.9424,-1.9424,-1.9424,-1.9424,-1.9424,-1.9424,-1.9424,-1.9424,-1.9424,-1.9424,-1.9424,-1.9424,-1.9486,-1.972,-1.972,-1.9833,-2.0054,-1.9586,-1.9424,0.0,0.0,0.0,0.0,0.0,0.0,0.0,0.0,0.0,0.0,0.0,-1.9424,0.0,0.0,-1.9424,-1.9424,-1.9424,-1.9424,-1.9424,-1.9424,-1.9312,-1.9165,-1.9145,-1.9205,-1.9352,-1.9424,-1.9424,-1.9424,-1.9424,-1.9424,-1.9424,-1.9424,-1.9424,-1.9424,-1.9424,-1.9432,-1.9586,-1.9586,-1.9726,-2.0013,-2.0013,-2.0094,-2.0173,-2.0173,-2.0173,-2.0173,-2.0173,-2.0173,-2.0173,-2.0173,-2.0147,-2.0,-1.986,-1.9626,-1.9424,-1.9424,-1.9424,-1.9424,-1.9424,-1.9424,-1.9424,-1.9424,-1.9424,-1.9424,-1.9424,-1.9424,-1.9424,-1.9424,-1.9424,-1.9424,-1.9424,-1.9424,-1.9424,-1.9424,-1.9424,-1.9424,-1.9424,-1.9424,-1.9424,-1.9424,-1.9424,-1.9424,-1.9424,-1.9424,-1.9424,-1.9424,-1.9424,-1.9424,-1.9424,-1.9424,-1.9424,-1.9424,-1.9424,-1.9424,-1.9424,-1.9424,-1.9424,-1.9424,-1.9424,-1.9432,-1.9579,-1.9586,-1.9653,-1.98,-1.98,-1.9873,-2.0013,-2.0013,-2.0094,-2.0167,-1.994,-1.98,0.0,0.0,0.0,0.0,0.0,0.0,0.0,0.0,-1.9424,-1.9424,-1.9424,-1.9424,-1.9424,-1.9424,-1.9424,-1.9424,-1.9424,-1.9424,-1.9424,-1.9424,-1.9424,-1.9424,-1.9424,-1.9424,-1.9424,-1.9424,-1.9424,-1.9424,-1.9424,-1.9424,-1.9424,-1.9424,-1.9424,-1.9424,-1.9419,-1.9559,-1.98,-1.986,-2.0034,-2.0321,-2.0321,-2.0347,-2.034,-2.034,-2.034,-2.034,-2.034,-2.034,-2.0394,-2.0341,-2.0321,-2.0314,-2.0254,-1.9947,-1.9533,-1.9472,-1.9511,-1.9446,-1.9444,-1.9424,-1.9424,-1.9424,-1.9424,-1.9424,-1.9424,-1.9424,-1.9424,-1.9424,-1.9424,-1.9424,-1.9424,-1.9424,-1.9424,-1.9424,-1.9424,-1.9424,-1.9424,-1.9424,-1.9424,-1.9424,-1.9424,-1.9424,-1.9424,-1.9424,-1.9424,-1.9424,-1.9424,-1.9424,-1.9424,-1.9424,-1.9424,-1.9424,-1.9424,-1.9424,-1.9424,-1.9477,-1.9511,-1.9511,-1.9506,-1.9639,-1.9873,-1.9887,-1.9993,-2.0227,-2.0173,-2.02,-2.0321,-2.0321,-2.0347,-2.034,-2.034,-2.028,-1.7635,-1.7782,-1.7942,-1.7942,-1.8382,-1.8878,0.0,0.0,-1.9424,-1.9424,-1.9424,-1.9424,-1.9424,-1.9424,-1.9424,-1.9424,-1.9424,-1.9424,-1.9424,-1.9424,-1.9424,-1.9424,-1.9424,-1.9424,-1.9424,-1.9424,-1.9424,-1.9424,-1.9424,-1.9424,-1.9424,-1.9424,-1.9424,-1.9424,-1.9619,-1.9766,-1.98,-2.0054,-2.0334,-2.0628,-2.0628,-2.0762,-2.1009,-2.1009,-2.1009,-2.1009,-2.1009,-2.1009,-2.0995,-2.0735,-2.0628,-2.0601,-2.0334,-2.0133,-2.01,-1.9846,-1.9753,-1.9713,-1.9459,-1.9424,-1.9424,-1.9424,-1.9424,-1.9424,-1.9424,-1.9424,-1.9424,-1.9424,-1.9424,-1.9424,-1.9424,-1.9424,-1.9424,-1.9424,-1.9424,-1.9424,-1.9424,-1.9424,-1.9424,-1.9424,-1.9424,-1.9424,-1.9424,-1.9424,-1.9424,-1.9424,-1.9424,-1.9424,-1.9424,-1.9424,-1.9424,-1.9424,-1.9424,-1.9424,-1.9424,-1.9599,-1.9753,-1.9753,-1.9993,-2.0147,-2.012,-2.0187,-2.0201,-2.0173,-2.0173,-2.0361,-2.0628,-2.0628,-2.0762,-2.1009,-2.1009,-2.0735,-1.8063,-1.8203,0.0,0.0,-1.8617,-1.8925,-1.8925,-1.9152,-1.9424,-1.9424,-1.9424,-1.9424,-1.9424,-1.9424,-1.9419,0.0,-1.9619,-1.9679,-1.9846,-1.9873,-1.9873,-1.9873,-1.9873,-1.974,-1.9457,-1.9424,-1.9424,-1.9424,-1.9424,-1.9424,-1.9424,-1.9526,-1.9619,-1.9619,-1.99,-2.0134,-2.0307,-2.0428,-2.0635,-2.0929,-2.0929,-2.0989,-2.1109,-2.1109,-2.1109,-2.1109,-2.1109,-2.1109,-2.1096,-2.0982,-2.0929,-2.0915,-2.0795,-2.0742,-2.0688,-2.0221,-2.0054,-2.0034,-1.9913,-1.9873,-1.9846,-1.9673,-1.9619,-1.9586,-1.9477,-1.9424,-1.9424,-1.9424,-1.9424,-1.9424,-1.9424,-1.9424,-1.9424,-1.9424,-1.9424,-1.9424,-1.9424,-1.9424,-1.9424,-1.9424,-1.9424,-1.9424,-1.9424,-1.9424,-1.9424,-1.9424,-1.9424,-1.9424,-1.9424,-1.9424,-1.9432,-1.9599,-1.9619,-1.9686,-1.986,-1.9987,-2.0054,-2.0054,-2.0167,-2.0307,-2.0481,-2.0494,-2.0568,-2.0742,-2.0742,-2.0802,-2.0929,-2.0929,-2.0989,-2.1109,-2.1109,-2.0975,-1.843,0.0,0.0,-1.8611,-1.8831,-1.9045,-1.9045,-1.9212,-1.9424,-1.9424,-1.9432,-1.9486,-1.9486,-1.9553,-1.9673,-1.9887,-1.992,-1.9993,-2.014,-2.0173,-2.0173,-2.0173,-2.0173,-2.0067,-1.9646,-1.9606,-1.9606,-1.9606,-1.9606,-1.9606,-1.9606,-1.9806,-1.992,-1.992,-2.0201,-2.0454,-2.0675,-2.0755,-2.0902,-2.1109,-2.1109,-2.1109,-2.1109,-2.1109,-2.1109,-2.1109,-2.1109,-2.1109,-2.1109,-2.1109,-2.1109,-2.1109,-2.1109,-2.1109,-2.1056,-2.0628,-2.0421,-2.0341,-2.02,-2.0173,-2.0194,-1.9987,-1.992,-1.988,-1.9673,-1.9606,-1.9606,-1.9606,-1.9606,-1.9606,-1.9606,-1.9606,-1.9606,-1.9606,-1.9606,-1.9606,-1.9606,-1.9606,-1.9606,-1.9606,-1.9606,-1.9606,-1.9606,-1.9606,-1.9606,-1.9606,-1.9606,-1.9546,-1.945,-1.9432,-1.9599,-1.9887,-1.992,-2.0007,-2.0153,-2.0307,-2.0354,-2.0354,-2.0428,-2.0568,-2.0788,-2.0795,-2.0895,-2.1109,-2.1109,-2.1109,-2.1109,-2.1109,-2.1109,-2.1109,-2.1109,-2.1109,0.0,0.0,-1.8911,-1.8911,-1.9132,-1.9352,-1.9352,-1.9417,-1.9424,-1.9424,-1.9593,-1.9786,-1.9786,-2.0013,-2.0153,-2.0221,-2.0221,-2.016,-2.0173,-2.0173,-2.0173,-2.0173,-2.0173,-2.0167,0.0,-2.0207,-2.0207,-2.0207,-2.0207,-2.0207,-2.0207,-2.0153,-2.0221,-2.0221,-2.0508,-2.0668,-2.0675,-2.0955,-2.1102,-2.1109,-2.1109,-2.1109,-2.1109,-2.1109,-2.1109,-2.1109,-2.1109,-2.1109,-2.1109,-2.1109,-2.1109,-2.1109,-2.1109,-2.1109,-2.1109,-2.1089,-2.0902,-2.0621,-2.0334,-2.0173,-2.0173,-2.016,-2.0221,-2.0221,-2.0207,-2.0207,-2.0207,-2.0207,-2.0207,-2.0207,-2.0207,-2.0207,-2.0207,-2.0207,-2.0207,-2.0207,-2.0207,-2.0207,-2.0207,-2.0207,-2.0207,-2.0207,-2.0207,-2.0207,-2.0207,-2.0207,-2.0207,-2.0,-1.9497,-1.9613,-1.99,-2.0187,-2.0221,-2.016,-2.0173,-2.0501,-2.0661,-2.0661,-2.0929,-2.1089,-2.1096,-2.1096,-2.1102,-2.1109,-2.1109,-2.1109,-2.1109,-2.1109,-2.1109,-2.1109,-2.1109,-2.1109,0.0,0.0,-1.9219,-1.9219,-1.9292,-1.9424,-1.9424,-1.9424,-1.9419,-1.9619,-1.9733,-1.986,-2.0054,-2.0167,-2.0294,-2.0494,-2.0528,-2.0595,-2.0788,-2.0815,-2.0815,-2.0815,-2.0815,0.0,0.0,0.0,0.0,-2.0173,-2.0173,-2.0173,-2.0173,-2.0421,-2.0528,-2.0528,-2.0808,-2.0962,-2.0962,-2.1056,-2.1109,-2.1109,-2.1109,-2.1109,-2.1109,-2.1109,-2.1109,-2.1109,-2.1109,-2.1109,-2.1109,-2.1109,-2.1109,-2.1109,-2.1109,-2.1109,-2.1109,-2.1109,-2.1049,-2.0949,-2.0848,-2.0815,-2.0782,-2.0588,-2.0528,-2.0494,-2.0294,-2.0173,-2.0173,-2.0173,-2.0173,-2.0173,-2.0173,-2.0173,-2.0173,-2.0173,-2.0173,-2.0173,-2.0173,-2.0173,-2.0173,-2.0173,-2.0173,-2.0173,-2.0173,-2.0173,-2.0173,-2.0173,-2.0173,-2.016,-1.9967,-2.0027,-2.0201,-2.0494,-2.0528,-2.0601,-2.0802,-2.0909,-2.0962,-2.0962,-2.1056,-2.1109,-2.1109,-2.1109,-2.1109,-2.1109,-2.1109,-2.1109,-2.1109,-2.1109,-2.1109,-2.1109,-2.1109,-2.1109,0.0,-1.9424,-1.9424,-1.9424,-1.9424,-1.9457,-1.9499,-1.9519,-1.9606,-1.9893,-2.004,-2.0174,-2.0354,-2.0474,-2.0608,-2.0802,-2.0828,-2.0895,-2.1082,-2.1109,-2.1109,-2.1109,-2.1109,-2.1109,0.0,0.0,0.0,-2.0548,-2.0548,-2.0548,-2.0548,-2.0728,-2.0828,-2.0828,-2.1009,-2.1109,-2.1109,-2.1109,-2.1109,-2.1109,-2.1109,-2.1109,-2.1109,-2.1109,-2.1109,-2.1109,-2.1109,-2.1109,-2.1109,-2.1109,-2.1109,-2.1109,-2.1109,-2.1109,-2.1109,-2.1109,-2.1109,-2.1109,-2.1109,-2.1109,-2.1076,-2.0895,-2.0828,-2.0795,-2.0601,-2.0548,-2.0548,-2.0548,-2.0548,-2.0548,-2.0548,-2.0548,-2.0548,-2.0548,-2.0548,-2.0548,-2.0548,-2.0548,-2.0548,-2.0548,-2.0548,-2.0548,-2.0548,-2.0548,-2.0548,-2.0548,-2.0548,-2.0508,-2.0408,-2.0394,-2.0508,-2.0802,-2.0828,-2.0909,-2.1096,-2.1109,-2.1109,-2.1109,-2.1109,-2.1109,-2.1109,-2.1109,-2.1109,-2.1109,-2.1109,-2.1109,-2.1109,-2.1109,-2.1109,-2.1109,-2.1727,-2.1971,-1.9424,-1.9424,-1.9424,-1.9424,-1.9437,-1.9459,-1.974,-1.9813,-1.9907,-2.0194,-2.0481,-2.0681,0.0,0.0,-2.1109,-2.1109,-2.1109,-2.1109,-2.1109,-2.1109,-2.1109,0.0,0.0,0.0,0.0,0.0,0.0,-2.1109,0.0,-2.1109,-2.1109,-2.1109,-2.1109,-2.1109,-2.1109,-2.1109,-2.1109,-2.1109,-2.1109,-2.1109,-2.1109,-2.1109,-2.1109,-2.1109,-2.1109,-2.1109,-2.1109,-2.1109,-2.1109,-2.1109,-2.1109,-2.1109,-2.1109,-2.1109,-2.1109,-2.1109,-2.1109,-2.1109,-2.1109,-2.1109,-2.1109,-2.1109,-2.1109,-2.1109,-2.1109,-2.1109,-2.1109,-2.1109,-2.1109,-2.1109,-2.1109,-2.1109,-2.1109,-2.1109,-2.1109,-2.1109,-2.1109,-2.1109,-2.1109,-2.1109,-2.1109,-2.1109,-2.1109,-2.1109,-2.1109,-2.1109,-2.1109,-2.1009,-2.0735,-2.0702,-2.0802,-2.1082,-2.1109,-2.1109,-2.1109,-2.1109,-2.1109,-2.1109,-2.1109,-2.1109,-2.1109,-2.1109,-2.1109,-2.1109,-2.1109,-2.1172,-2.1229,-2.1229,-2.1292,-2.1418,-2.2952,-2.369,-1.9424,-1.9424,-1.9424,-1.9424,-1.9533,-1.9713,-1.978,-1.9967,-2.0207,-2.0501,-2.0621,-2.0742,0.0,0.0,0.0,-2.1109,-2.1109,0.0,-2.1109,-2.1109,0.0,-2.1109,0.0,-2.1109,-2.1109,-2.1109,0.0,0.0,-2.1109,-2.1109,-2.1109,-2.1109,-2.1109,-2.1109,-2.1109,-2.1109,-2.1109,-2.1109,-2.1109,-2.1109,-2.1109,-2.1109,-2.1109,-2.1109,-2.1109,-2.1109,-2.1109,-2.1109,-2.1109,-2.1109,-2.1109,-2.1109,-2.1109,-2.1109,-2.1109,-2.1109,-2.1109,-2.1109,-2.1109,-2.1109,-2.1109,-2.1109,-2.1109,-2.1109,-2.1109,-2.1109,-2.1109,-2.1109,-2.1109,-2.1109,-2.1109,-2.1109,-2.1109,-2.1109,-2.1109,-2.1109,-2.1109,-2.1109,-2.1109,-2.1109,-2.1109,-2.1109,-2.1109,-2.1109,-2.1109,-2.1109,-2.1109,-2.1082,-2.1009,-2.0995,-2.1029,-2.1102,-2.1109,-2.1109,-2.1109,-2.1109,-2.1109,-2.1109,-2.1109,-2.1109,-2.1109,-2.1109,-2.1109,-2.1109,-2.1109,-2.1727,-2.2959,-2.2959,-2.3559,-2.4763,-2.5192,-2.5383,-1.9424,-1.9424,-1.9457,-1.9526,-1.9679,-1.9867,-2.0127,-2.0307,-2.0508,-2.0808,-2.0869,0.0,0.0,0.0,0.0,0.0,0.0,0.0,-2.1109,-2.1109,-2.1109,0.0,-2.1109,0.0,-2.1109,-2.1109,-2.1109,0.0,-2.1109,-2.1109,-2.1109,-2.1109,-2.1109,-2.1109,-2.1109,-2.1109,-2.1109,-2.1109,-2.1109,-2.1109,-2.1109,-2.1109,-2.1109,-2.1109,-2.1109,-2.1109,0.0,-2.1109,-2.1109,-2.1109,-2.1109,-2.1109,-2.1109,-2.1109,-2.1109,-2.1109,-2.1109,-2.1109,-2.1109,-2.1109,-2.1109,-2.1109,-2.1109,-2.1109,-2.1109,-2.1109,-2.1109,-2.1109,-2.1109,-2.1109,-2.1109,-2.1109,-2.1109,-2.1109,-2.1109,-2.1109,-2.1109,-2.1109,-2.1109,-2.1109,-2.1109,-2.1109,-2.1109,-2.1109,-2.1109,-2.1109,-2.1109,-2.1109,-2.1109,-2.1109,-2.1109,-2.1109,-2.1109,-2.1109,-2.1109,-2.1109,-2.1109,-2.1109,-2.1109,-2.1109,-2.1109,-2.1109,-2.1481,-2.2153,-2.2223,-2.3014,-2.4655,-2.4655,-2.5138,-2.6037,-2.6712,-2.7073,-1.9424,-1.9457,-1.9486,-1.974,-1.986,-2.0047,-2.0561,-2.0708,-2.0808,-2.1056,0.0,-2.1109,-2.1109,-2.1109,-2.1109,-2.1109,0.0,-2.1109,-2.1109,-2.1109,-2.1109,-2.1109,-2.1109,-2.1109,-2.1109,-2.1109,-2.1109,-2.1109,-2.1109,-2.1109,-2.1109,-2.1109,-2.1109,-2.1109,-2.1109,-2.1109,-2.1109,-2.1109,-2.1109,-2.1109,-2.1109,-2.1109,-2.1109,-2.1109,-2.1109,-2.1109,-2.1109,0.0,-2.1109,-2.1109,-2.1109,-2.1109,-2.1109,-2.1109,-2.1109,-2.1109,-2.1109,-2.1109,-2.1109,-2.1109,-2.1109,-2.1109,-2.1109,-2.1109,-2.1109,-2.1109,-2.1109,-2.1109,-2.1109,-2.1109,-2.1109,-2.1109,-2.1109,-2.1109,-2.1109,-2.1109,-2.1109,-2.1109,-2.1109,-2.1109,-2.1109,-2.1109,-2.1109,-2.1109,-2.1109,-2.1109,-2.1109,-2.1109,-2.1109,-2.1109,-2.1109,-2.1109,-2.1109,-2.1109,-2.1109,-2.1109,-2.1109,-2.1109,-2.1109,-2.1089,-2.1056,-2.1272,-2.2076,-2.3514,-2.3792,-2.4717,-2.634,-2.634,-2.6401,-2.6712,-2.8051,-2.8724,-1.9424,-1.9546,-1.974,-1.9786,-2.0167,-2.0555,-2.0655,-2.0862,0.0,0.0,0.0,-2.1109,-2.1109,-2.1109,0.0,-2.1109,0.0,0.0,0.0,0.0,-2.1109,0.0,0.0,0.0,0.0,0.0,0.0,0.0,0.0,-2.1109,-2.1109,-2.1109,-2.1109,-2.1109,-2.1109,-2.1109,-2.1109,-2.1109,-2.1109,-2.1109,-2.1109,-2.1109,-2.1109,-2.1109,-2.1109,-2.1109,-2.1109,0.0,-2.1109,-2.1109,-2.1109,-2.1109,-2.1109,-2.1109,-2.1109,-2.1109,-2.1109,-2.1109,-2.1109,-2.1109,-2.1109,-2.1109,-2.1109,-2.1109,-2.1109,-2.1109,-2.1109,-2.1109,-2.1109,-2.1109,-2.1109,-2.1109,-2.1109,-2.1109,-2.1109,-2.1109,-2.1109,-2.1109,-2.1109,-2.1109,-2.1109,-2.1109,-2.1109,-2.1109,-2.1109,-2.1109,-2.1109,-2.1109,-2.1109,-2.1109,-2.1109,-2.1109,-2.1109,-2.1109,-2.1109,-2.1109,-2.1109,-2.1109,-2.1109,-2.1002,-2.0762,-2.2331,-2.32,-2.317,-2.4751,-2.6409,-2.7991,-2.7991,-2.8673,-3.0089,-3.0333,-3.046,-1.9424,-1.9579,-1.9833,-1.9987,-2.0354,-2.0715,-2.0869,0.0,0.0,0.0,-2.1109,-2.1109,-2.1109,0.0,0.0,0.0,0.0,0.0,0.0,0.0,0.0,0.0,0.0,0.0,0.0,0.0,0.0,0.0,0.0,-2.1109,-2.1109,-2.1109,-2.1109,-2.1109,-2.1109,-2.1109,-2.1109,-2.1109,-2.1109,-2.1109,-2.1109,-2.1109,-2.1109,-2.1109,-2.1109,-2.1109,-2.1109,0.0,-2.1109,-2.1109,-2.1109,-2.1109,-2.1109,-2.1109,-2.1109,-2.1109,-2.1109,-2.1109,-2.1109,-2.1109,-2.1109,-2.1109,-2.1109,-2.1109,-2.1109,-2.1109,-2.1109,-2.1109,-2.1109,-2.1109,-2.1109,-2.1109,-2.1109,-2.1109,-2.1109,-2.1109,-2.1109,-2.1109,-2.1109,-2.1109,-2.1109,-2.1109,-2.1109,-2.1109,-2.1109,-2.1109,-2.1109,-2.1109,-2.1109,-2.1109,-2.1109,-2.1109,-2.1109,-2.1109,-2.1109,-2.1109,-2.1042,-2.0895,-2.0882,-2.1121,-2.1593,-2.2506,-2.3845,-2.5516,-2.6466,-2.7855,-2.9717,-2.9717,-3.0089,-3.0889,-3.0889,-3.0889,-1.9866,-1.9906,-1.9947,-2.0174,-2.0501,-2.0828,-2.1056,-2.1109,0.0,0.0,-2.1109,-2.1109,-2.1109,0.0,0.0,0.0,0.0,0.0,0.0,0.0,0.0,0.0,0.0,0.0,0.0,0.0,0.0,0.0,0.0,0.0,-2.1109,-2.1109,-2.1109,-2.1109,-2.1109,-2.1109,-2.1109,-2.1109,-2.1109,-2.1109,-2.1109,-2.1109,-2.1109,-2.1109,-2.1109,-2.1109,-2.1109,0.0,0.0,-2.1109,-2.1109,-2.1109,-2.1109,-2.1109,-2.1109,-2.1109,-2.1109,-2.1109,-2.1109,-2.1109,-2.1109,-2.1109,-2.1109,-2.1109,-2.1109,-2.1109,-2.1109,-2.1109,-2.1109,-2.1109,-2.1109,-2.1109,-2.1109,-2.1109,-2.1109,-2.1109,-2.1109,-2.1109,-2.1109,-2.1109,-2.1109,-2.1109,-2.1109,-2.1109,-2.1109,-2.1109,-2.1109,-2.1109,-2.1109,-2.1109,-2.1082,-2.1022,-2.1076,-2.1082,-2.1022,-2.1323,-2.1382,-2.1081,-2.136,-2.1936,-2.2853,-2.3253,-2.4792,-2.7521,-2.8049,-2.913,-3.0742,-3.084,-3.0889,-3.0889,-3.0889,-3.0889,-2.1422,-2.0794,-2.0201,-2.0167,-2.0655,-2.1076,-2.1102,0.0,0.0,-2.1109,-2.1109,-2.1109,-2.1109,-2.1109,0.0,0.0,0.0,-2.1109,0.0,0.0,0.0,0.0,0.0,0.0,0.0,0.0,0.0,0.0,0.0,0.0,-2.1109,-2.1109,-2.1109,-2.1109,-2.1109,-2.1109,-2.1109,-2.1109,-2.1109,-2.1109,-2.1109,-2.1109,-2.1109,-2.1109,-2.1109,-2.1109,-2.1109,0.0,0.0,-2.1109,-2.1109,-2.1109,-2.1109,-2.1109,-2.1109,-2.1109,-2.1109,-2.1109,-2.1109,-2.1109,-2.1109,-2.1109,-2.1109,-2.1109,-2.1109,-2.1109,-2.1109,-2.1109,-2.1109,-2.1109,-2.1109,-2.1109,-2.1109,-2.1109,-2.1109,-2.1109,-2.1109,-2.1109,-2.1109,-2.1109,-2.1109,-2.1109,-2.1109,-2.1109,-2.1109,-2.1109,-2.1109,-2.1109,-2.1109,-2.1109,-2.1009,-2.0742,-2.0949,-2.1002,-2.0735,-2.1978,-2.2627,-2.2371,-2.3618,-2.4273,-2.4155,-2.5783,-2.6693,-2.6776,-2.8871,-3.0101,-3.0264,-3.0684,-3.0889,-3.0889,-3.0889,-3.0889,-2.1862,-2.1606,-2.1339,-2.0409,-2.0675,-2.1109,-2.1109,0.0,-2.1109,-2.1109,-2.1109,-2.1109,-2.1109,-2.1109,-2.1109,0.0,0.0,0.0,0.0,0.0,0.0,0.0,0.0,0.0,0.0,0.0,0.0,0.0,0.0,0.0,-2.1109,-2.1109,-2.1109,-2.1109,-2.1109,-2.1109,-2.1109,-2.1109,-2.1109,-2.1109,-2.1109,-2.1109,-2.1109,-2.1109,-2.1109,-2.1109,-2.1109,0.0,0.0,-2.1109,-2.1109,-2.1109,-2.1109,-2.1109,-2.1109,-2.1109,-2.1109,-2.1109,-2.1109,-2.1109,-2.1109,-2.1109,-2.1109,-2.1109,-2.1109,-2.1109,-2.1109,-2.1109,-2.1109,-2.1109,-2.1109,-2.1109,-2.1109,-2.1109,-2.1109,-2.1109,-2.1109,-2.1109,-2.1109,-2.1109,-2.1109,-2.1109,-2.1109,-2.1109,-2.1109,-2.1109,-2.1109,-2.1109,-2.1109,-2.0955,-2.1169,-2.1956,-2.1328,-2.1094,-2.1747,-2.2315,-2.2937,-2.3523,-2.4128,-2.4767,-2.5348,-2.61,-2.6957,-2.8009,-2.9223,-2.9941,-3.0195,-3.0664,-3.0889,-3.0889,-3.0889,-3.0889,-2.2645,-2.2279,-2.2009,-2.0448,-2.0548,-2.0982,0.0,0.0,-2.1109,-2.1109,-2.1109,-2.1109,-2.1109,-2.1109,-2.1109,-2.1109,0.0,-2.1109,0.0,0.0,0.0,0.0,0.0,0.0,0.0,0.0,0.0,0.0,0.0,0.0,-2.1109,-2.1109,-2.1109,-2.1109,-2.1109,-2.1109,-2.1109,-2.1109,-2.1109,-2.1109,-2.1109,-2.1109,-2.1109,-2.1109,-2.1109,-2.1109,-2.1109,0.0,0.0,-2.1109,-2.1109,-2.1109,-2.1109,-2.1109,-2.1109,-2.1109,-2.1109,-2.1109,-2.1109,-2.1109,-2.1109,-2.1109,-2.1109,-2.1109,-2.1109,-2.1109,-2.1109,-2.1109,-2.1109,-2.1109,-2.1109,-2.1109,-2.1109,-2.1109,-2.1109,-2.1109,-2.1109,-2.1109,-2.1109,-2.1109,-2.1109,-2.1109,-2.1109,-2.1109,-2.1299,-2.179,-2.1714,-2.177,-2.2254,-2.2046,-2.2236,-2.3208,-2.2368,-2.21,-2.2933,-2.3438,-2.4029,-2.4791,-2.5224,-2.5836,-2.6726,-2.6771,-2.7354,-2.873,-2.9287,-2.9717,-3.001,-3.0605,-3.0889,-3.0889,-3.0889,-3.0889,-2.4211,-2.2896,-2.1679,-2.0142,-2.0247,-2.0681,0.0,0.0,-2.1109,-2.1109,-2.1109,-2.1109,-2.1109,-2.1109,-2.1109,-2.1109,-2.1109,0.0,0.0,0.0,0.0,0.0,0.0,0.0,0.0,0.0,0.0,0.0,0.0,0.0,-2.1109,-2.1109,-2.1109,-2.1109,-2.1109,-2.1109,-2.1109,-2.1109,-2.1109,-2.1109,-2.1109,-2.1109,-2.1109,-2.1109,-2.1109,0.0,0.0,0.0,0.0,-2.1109,-2.1109,-2.1109,-2.1109,-2.1109,-2.1109,-2.1109,-2.1109,-2.1109,-2.1109,-2.1109,-2.1109,-2.1109,-2.1109,-2.1109,-2.1109,-2.1109,-2.1109,-2.1109,-2.1109,-2.1109,-2.1109,-2.1109,-2.1109,-2.1109,-2.1109,-2.1109,-2.1109,-2.1109,-2.1109,-2.1109,-2.1109,-2.1109,-2.1109,-2.1109,-2.1664,-2.3325,-2.3175,-2.3437,-2.5022,-2.4891,-2.4539,-2.4302,-2.4269,-2.4269,-2.4269,-2.5639,-2.6321,-2.6073,-2.7457,-2.8237,-2.8291,-2.8291,-2.8291,-2.8301,-2.9131,-2.9626,-2.9636,-3.0459,-3.0889,-3.0889,-3.0889,-3.0889,-2.5772,-2.448,-2.3221,-2.1679,-2.084,-2.0374,-2.0374,0.0,-2.0508,-2.0508,-2.0675,-2.0815,-2.0815,-2.0975,-2.1109,-2.1109,-2.1109,0.0,0.0,0.0,0.0,0.0,0.0,0.0,0.0,0.0,0.0,0.0,0.0,0.0,-2.1109,-2.1109,-2.1109,-2.1109,-2.1109,-2.1109,-2.1109,-2.1109,-2.1109,-2.1109,-2.1109,-2.1109,-2.1109,-2.1109,-2.1109,0.0,0.0,0.0,0.0,-2.1109,-2.1109,-2.1109,-2.1109,-2.1109,-2.1109,-2.1109,-2.1109,-2.1109,-2.1109,-2.1109,-2.1109,-2.1109,-2.1109,-2.1109,-2.1109,-2.1109,-2.1109,-2.1109,-2.1109,-2.1109,-2.1109,-2.1109,-2.1109,-2.1109,-2.1109,-2.1109,-2.1109,-2.1109,-2.1109,-2.1109,-2.1109,-2.1481,-2.2591,-2.2834,-2.338,-2.5016,-2.4835,-2.4723,-2.5253,-2.4795,-2.4785,-2.5705,-2.5611,-2.5509,-2.5509,-2.596,-2.6637,-2.7565,-2.8067,-2.8291,-2.8291,-2.8291,-2.8291,-2.8291,-2.9131,-2.9626,-2.9626,-3.0459,-3.0889,-3.0889,-3.0889,-3.0889,0.0,-2.5555,-2.4499,-2.2395,-2.1334,0.0,0.0,0.0,-2.0173,-2.0173,-2.0381,-2.0541,-2.0655,-2.0822,-2.0982,-2.1089,0.0,0.0,0.0,0.0,0.0,0.0,0.0,0.0,0.0,0.0,0.0,0.0,0.0,0.0,-2.1109,-2.1109,-2.1109,-2.1109,-2.1109,-2.1109,-2.1109,-2.1109,-2.1109,-2.1109,-2.1109,-2.1109,-2.1109,-2.1109,-2.1109,0.0,0.0,0.0,0.0,-2.1109,-2.1109,-2.1109,-2.1109,-2.1109,-2.1109,-2.1109,-2.1109,-2.1109,-2.1109,-2.1109,-2.1109,-2.1109,-2.1109,-2.1109,-2.1109,-2.1109,-2.1109,-2.1109,-2.1109,-2.1109,-2.1109,-2.1109,-2.1109,-2.1109,-2.1109,-2.1109,-2.1109,-2.1109,-2.1109,-2.1109,-2.1109,-2.1601,-2.3325,-2.3574,-2.4317,-2.6345,-2.6304,-2.6122,-2.6623,-2.6183,-2.6147,-2.7059,-2.7047,-2.6943,-2.6943,-2.6943,-2.733,-2.8237,-2.8291,-2.8291,-2.8291,-2.8291,-2.8291,-2.8291,-2.8975,-2.9404,-2.9626,-3.0459,-3.0889,-3.0889,-3.0889,-3.0889,0.0,0.0,0.0,0.0,0.0,0.0,0.0,0.0,0.0,-2.0113,-2.014,-2.0321,-2.0595,-2.0681,-2.0795,0.0,0.0,0.0,0.0,0.0,0.0,0.0,0.0,0.0,0.0,0.0,0.0,0.0,0.0,0.0,-2.1109,-2.1109,-2.1109,-2.1109,-2.1109,-2.1109,-2.1109,-2.1109,-2.1109,-2.1109,-2.1109,-2.1109,-2.1109,-2.1109,-2.1109,0.0,0.0,0.0,0.0,-2.1109,-2.1109,-2.1109,-2.1109,-2.1109,-2.1109,-2.1109,-2.1109,-2.1109,-2.1109,-2.1109,-2.1109,-2.1109,-2.1109,-2.1109,-2.1109,-2.1109,-2.1109,-2.1109,-2.1109,-2.1109,-2.1109,-2.1109,-2.1109,-2.1109,-2.1109,-2.1109,-2.1109,-2.1172,-2.1292,-2.1292,-2.1355,-2.1971,-2.3628,-2.3938,-2.4852,-2.7543,-2.7555,-2.7676,-2.8746,-2.8555,-2.8291,-2.8291,-2.8291,-2.8291,-2.8291,-2.8291,-2.8291,-2.8291,-2.8291,-2.8344,-2.8441,-2.8344,-2.8344,-2.8441,-2.8785,-2.918,-2.9619,-3.0469,-3.0947,-3.1054,-3.1054,-3.1054,0.0,0.0,0.0,0.0,0.0,0.0,0.0,0.0,0.0,0.0,0.0,0.0,0.0,0.0,0.0,0.0,0.0,0.0,0.0,0.0,0.0,0.0,0.0,0.0,0.0,0.0,0.0,0.0,0.0,-2.1109,-2.1109,-2.1109,-2.1109,-2.1109,-2.1109,-2.1109,-2.1109,-2.1109,-2.1109,-2.1109,-2.1109,-2.1109,-2.1109,-2.1109,-2.1109,0.0,0.0,0.0,-2.1109,-2.1109,-2.1109,-2.1109,-2.1109,-2.1109,-2.1109,-2.1109,-2.1109,-2.1109,-2.1109,-2.1109,-2.1109,-2.1109,-2.1109,-2.1109,-2.1109,-2.1109,-2.1109,-2.1109,-2.1109,-2.1109,-2.1109,-2.1109,-2.1109,-2.1109,-2.1109,-2.1109,-2.1109,-2.2097,-2.3021,-2.3021,-2.3985,-2.5375,-2.6961,-2.7271,-2.7798,-2.9373,-2.9306,-2.9005,-2.892,-2.8555,-2.8291,-2.8291,-2.8291,-2.8291,-2.8291,-2.8291,-2.8291,-2.8291,-2.8291,-2.8751,-2.9817,-2.8847,-2.8804,-2.9807,-2.955,-2.9619,-3.0049,-3.0615,-3.1498,-3.2587,-3.2587,-3.2587,-2.8291,-2.7726,-2.6608,0.0,0.0,0.0,0.0,0.0,0.0,0.0,0.0,0.0,0.0,0.0,0.0,0.0,0.0,0.0,0.0,0.0,0.0,0.0,0.0,0.0,0.0,0.0,0.0,0.0,0.0,-2.1109,-2.1109,-2.1109,-2.1109,-2.1109,-2.1109,-2.1109,-2.1109,-2.1109,-2.1109,-2.1109,-2.1109,-2.1109,-2.1109,-2.1109,-2.1109,0.0,0.0,0.0,-2.1109,-2.1109,-2.1109,-2.1109,-2.1109,-2.1109,-2.1109,-2.1109,-2.1109,-2.1109,-2.1109,-2.1109,-2.1109,-2.1109,-2.1109,-2.1109,-2.1109,-2.1109,-2.1109,-2.1109,-2.1109,-2.1109,-2.1109,-2.1109,-2.1109,-2.1109,-2.1109,-2.1292,-2.2097,-2.2959,-2.3814,-2.454,-2.5375,-2.653,-2.811,-2.8273,-2.8557,-2.9734,-2.9551,-2.9121,-2.8682,-2.8437,-2.8291,-2.8291,-2.8291,-2.8291,-2.8291,-2.8847,-2.9207,-2.9207,-2.9207,-2.9817,-3.1173,-3.0525,-3.0473,-3.1224,-3.0748,-3.0962,-3.185,-3.1881,-3.2644,-3.4125,-3.4125,-3.4125,-2.8291,-2.8291,-2.7565,-2.4544,-2.3822,-2.3047,0.0,0.0,0.0,0.0,0.0,0.0,0.0,0.0,0.0,0.0,0.0,0.0,0.0,0.0,0.0,0.0,0.0,0.0,0.0,0.0,0.0,0.0,0.0,-2.1109,-2.1109,-2.1109,-2.1109,-2.1109,-2.1109,-2.1109,-2.1109,-2.1109,-2.1109,-2.1109,-2.1109,-2.1109,-2.1109,-2.1109,-2.1109,-2.1109,0.0,0.0,-2.1109,-2.1109,-2.1109,-2.1109,-2.1109,-2.1109,-2.1109,-2.1109,-2.1109,-2.1109,-2.1109,-2.1109,-2.1109,-2.1109,-2.1109,-2.1109,-2.1109,-2.1109,-2.1109,-2.1109,-2.1109,-2.1109,-2.1109,-2.1292,-2.1481,-2.1481,-2.1664,-2.2215,-2.369,-2.4178,-2.4725,-2.6106,-2.6591,-2.7202,-2.8545,-2.8454,-2.8475,-2.9461,-2.9199,-2.876,-2.834,-2.8291,-2.8291,-2.8291,-2.8291,-2.8398,-2.8601,-2.966,-3.0473,-3.0876,-3.0721,-3.1122,-3.223,-3.2493,-3.2577,-3.2454,-3.2092,-3.2577,-3.3933,-3.3581,-3.4181,-3.5617,-3.5617,-3.5617,-2.8291,-2.8291,-2.7565,-2.4544,-2.3822,-2.3047,-2.0097,-1.9424,0.0,0.0,0.0,0.0,0.0,0.0,0.0,0.0,0.0,0.0,0.0,0.0,0.0,0.0,0.0,0.0,0.0,0.0,0.0,0.0,0.0,0.0,-2.1109,-2.1109,-2.1109,-2.1109,-2.1109,-2.1109,-2.1109,-2.1109,-2.1109,-2.1109,-2.1109,-2.1109,-2.1109,-2.1109,-2.1109,-2.1109,0.0,-2.1109,-2.1109,-2.1109,-2.1109,-2.1109,-2.1109,-2.1109,-2.1109,-2.1109,-2.1109,-2.1109,-2.1109,-2.1109,-2.1109,-2.1109,-2.1109,-2.1109,-2.1109,-2.1109,-2.1109,-2.1109,-2.1109,-2.1109,-2.1109,-2.216,-2.3208,-2.3208,-2.4294,-2.5314,-2.5558,-2.6712,-2.7751,-2.7991,-2.9157,-3.0216,-3.046,-3.0142,-2.9764,-2.9629,-2.9199,-2.876,-2.834,-2.8291,-2.8291,-2.8291,-2.8291,-2.8751,-2.9911,-3.0162,-3.1276,-3.3624,-3.2644,-3.2079,-3.228,-3.3464,-3.3772,-3.3083,-3.332,-3.3799,-3.4491,-3.479,-3.5715,-3.7145,-3.7145,-3.7145,-2.8291,-2.8291,-2.7565,-2.4544,-2.3822,-2.3047,-2.0097,-1.9424,0.0,0.0,0.0,0.0,0.0,0.0,0.0,0.0,0.0,0.0,0.0,0.0,0.0,0.0,0.0,0.0,0.0,0.0,0.0,0.0,0.0,0.0,-2.1109,-2.1109,-2.1109,-2.1109,-2.1109,-2.1109,-2.1109,-2.1109,-2.1109,-2.1109,-2.1109,-2.1109,-2.1109,-2.1109,-2.1109,-2.1109,0.0,-2.1109,-2.1109,-2.1109,-2.1109,-2.1109,-2.1109,-2.1109,-2.1109,-2.1109,-2.1109,-2.1109,-2.1109,-2.1109,-2.1109,-2.1109,-2.1109,-2.1109,-2.1109,-2.1109,-2.1109,-2.1109,-2.1109,-2.1109,-2.1109,-2.2341,-2.3574,-2.3574,-2.484,-2.6219,-2.7134,-2.7871,-2.8664,-2.9589,-3.0392,-3.0889,-3.0889,-3.0312,-2.9795,-2.9655,-2.9004,-2.8506,-2.831,-2.8953,-2.9355,-2.9355,-3.0016,-3.0721,-3.1327,-3.209,-3.3055,-3.4337,-3.4459,-3.4545,-3.4545,-3.5162,-3.5418,-3.5384,-3.5023,-3.5537,-3.6924,-3.6619,-3.7252,-3.8687,-3.8687,-3.8687,-2.8291,-2.8291,-2.7565,-2.4544,0.0,-2.3047,-2.0097,-1.9424,0.0,0.0,0.0,0.0,0.0,0.0,0.0,0.0,0.0,0.0,0.0,0.0,0.0,0.0,0.0,0.0,0.0,0.0,0.0,0.0,0.0,0.0,-2.1109,-2.1109,-2.1109,-2.1109,-2.1109,-2.1109,-2.1109,-2.1109,-2.1109,-2.1109,-2.1109,-2.1109,-2.1109,-2.1109,-2.1109,-2.1109,-2.1109,-2.1109,-2.1109,-2.1109,-2.1109,-2.1109,-2.1109,-2.1109,-2.1109,-2.1109,-2.1109,-2.1109,-2.1109,-2.1109,-2.1109,-2.1109,-2.1109,-2.1109,-2.1109,-2.1355,-2.1664,-2.1664,-2.1971,-2.2146,-2.1783,-2.2889,-2.424,-2.4602,-2.5993,-2.7512,-2.8724,-2.897,-2.9344,-3.0645,-3.0889,-3.0889,-3.0889,-3.0156,-2.9738,-2.9996,-2.9307,-2.89,-2.9207,-3.012,-3.0773,-3.0773,-3.1684,-3.2431,-3.2744,-3.4068,-3.4884,-3.4884,-3.5823,-3.6405,-3.6405,-3.6405,-3.6732,-3.7362,-3.6699,-3.7248,-3.9069,-3.8374,-3.8582,-3.9697,-3.9697,-3.9697,-2.8291,-2.8291,-2.7565,-2.4544,-2.3822,-2.3047,-2.0097,-1.9424,0.0,-1.9424,0.0,0.0,0.0,0.0,0.0,0.0,0.0,0.0,0.0,0.0,0.0,0.0,0.0,0.0,0.0,0.0,0.0,0.0,0.0,0.0,-2.1109,-2.1109,-2.1109,-2.1109,-2.1109,-2.1109,-2.1109,-2.1109,-2.1109,-2.1109,-2.1109,-2.1109,-2.1109,-2.1109,-2.1109,-2.1109,-2.1109,-2.1109,-2.1109,-2.1109,-2.1109,-2.1109,-2.1109,-2.1109,-2.1109,-2.1109,-2.1109,-2.1109,-2.1109,-2.1109,-2.1109,-2.1109,-2.1109,-2.1109,-2.1109,-2.2223,-2.3387,-2.3387,-2.4471,-2.5314,-2.3814,-2.4594,-2.6219,-2.7692,-2.9344,-3.0577,-3.0704,-3.0704,-3.0762,-3.0889,-3.0889,-3.0889,-3.0889,-3.0156,-3.0052,-3.1267,-3.0704,-3.0628,-3.1825,-3.2079,-3.218,-3.218,-3.223,-3.2844,-3.4129,-3.5463,-3.6263,-3.6263,-3.6358,-3.6405,-3.6405,-3.6405,-3.6908,-3.7927,-3.7878,-3.8442,-3.9634,-3.9556,-3.9581,-3.9697,-3.9697,-3.9697,-2.8291,-2.8291,-2.7789,-2.5717,-2.4488,0.0,0.0,-1.9424,-1.9424,-1.9424,-1.9826,0.0,0.0,0.0,0.0,0.0,0.0,0.0,0.0,0.0,0.0,0.0,0.0,0.0,0.0,0.0,0.0,0.0,0.0,0.0,0.0,-2.1109,-2.1109,-2.1109,-2.1109,-2.1109,-2.1109,-2.1109,-2.1109,-2.1109,-2.1109,-2.1109,-2.1109,-2.1109,-2.1109,-2.1109,-2.1109,-2.1109,-2.1109,-2.1109,-2.1109,-2.1109,-2.1109,-2.1109,-2.1109,-2.1109,-2.1109,-2.1109,-2.1109,-2.1109,-2.1109,-2.1109,-2.179,-2.2654,-2.2654,-2.3807,-2.5077,-2.5077,-2.5558,-2.5855,-2.5253,-2.6288,-2.7632,-2.8239,-2.9658,-3.0889,-3.0889,-3.0889,-3.0889,-3.0889,-3.0889,-3.0889,-3.0889,-3.0864,-3.1004,-3.1529,-3.1579,-3.1724,-3.223,-3.3044,-3.3613,-3.3613,-3.435,-3.5054,-3.5619,-3.6108,-3.6556,-3.6908,-3.6593,-3.6405,-3.6405,-3.6732,-3.7236,-3.799,-3.8366,-3.8931,-3.9697,-3.9697,-3.9697,-3.9697,-3.9697,-3.9697,-2.8291,-2.8291,-2.795,-2.649,0.0,0.0,-2.0644,-1.9758,-1.9424,-1.9424,-1.9826,0.0,0.0,0.0,0.0,0.0,0.0,0.0,0.0,0.0,0.0,0.0,0.0,0.0,0.0,0.0,0.0,0.0,0.0,0.0,0.0,-2.1109,-2.1109,-2.1109,-2.1109,-2.1109,-2.1109,-2.1109,-2.1109,-2.1109,-2.1109,-2.1109,-2.1109,-2.1109,-2.1109,-2.1109,-2.1109,-2.1109,-2.1109,-2.1109,-2.1109,-2.1109,-2.1109,-2.1109,-2.1109,-2.1109,-2.1418,-2.1908,-2.1908,-2.2215,-2.2632,-2.2632,-2.3435,-2.4355,-2.4355,-2.5505,-2.6772,-2.6772,-2.7142,-2.7572,-2.7572,-2.7991,-2.8536,-2.9039,-3.0089,-3.0889,-3.0889,-3.0889,-3.0889,-3.0889,-3.0889,-3.1054,-3.1488,-3.1609,-3.1898,-3.2802,-3.2969,-3.3093,-3.354,-3.4459,-3.503,-3.503,-3.6019,-3.6669,-3.6669,-3.6832,-3.7048,-3.7425,-3.7098,-3.6933,-3.6933,-3.7249,-3.7701,-3.8266,-3.8668,-3.9145,-3.9697,-3.9697,-3.9697,-3.9697,-3.9697,-3.9697,-2.8291,-2.8291,0.0,0.0,0.0,0.0,-2.1975,-2.0479,-1.9424,-1.943,0.0,0.0,0.0,0.0,0.0,0.0,0.0,0.0,0.0,0.0,0.0,0.0,0.0,0.0,0.0,0.0,0.0,0.0,0.0,0.0,0.0,-2.1109,-2.1109,-2.1109,-2.1109,-2.1109,-2.1109,-2.1109,-2.1109,-2.1109,-2.1109,-2.1109,-2.1109,-2.1109,-2.1109,-2.1109,-2.1109,-2.1109,-2.1109,-2.1109,-2.1109,-2.1109,-2.1109,-2.1109,-2.1172,-2.1172,-2.2223,-2.3636,-2.3636,-2.4655,-2.5976,-2.5976,-2.5976,-2.6037,-2.6037,-2.7134,-2.8417,-2.8417,-2.9648,-3.0889,-3.0889,-2.9648,-2.8852,-3.0518,-3.0889,-3.0889,-3.0889,-3.0889,-3.0889,-3.0889,-3.0889,-3.1383,-3.2861,-3.2301,-3.2598,-3.5395,-3.5001,-3.4884,-3.6216,-3.6405,-3.6405,-3.6417,-3.6908,-3.7186,-3.7199,-3.7688,-3.8002,-3.8015,-3.8015,-3.8015,-3.8002,-3.8015,-3.8278,-3.8906,-3.8932,-3.9145,-3.9697,-3.9697,-3.9697,-3.9697,-3.9697,-3.9697,-2.8291,0.0,0.0,0.0,0.0,0.0,0.0,-2.1209,0.0,0.0,0.0,0.0,0.0,0.0,0.0,0.0,0.0,0.0,0.0,0.0,0.0,0.0,0.0,0.0,0.0,0.0,0.0,0.0,0.0,0.0,0.0,-2.1109,-2.1109,-2.1109,-2.1109,-2.1109,-2.1109,-2.1109,-2.1109,-2.1109,-2.1109,-2.1109,-2.1109,-2.1109,-2.1109,-2.1109,-2.1109,-2.1109,-2.1109,-2.1109,-2.1783,-2.2834,-2.2834,-2.3559,-2.4517,-2.4517,-2.4885,-2.5322,-2.5322,-2.5619,-2.5976,-2.5976,-2.6772,-2.7692,-2.7692,-2.8852,-3.0147,-3.0147,-3.0518,-3.0889,-3.0889,-3.0518,-3.0274,-3.0762,-3.0889,-3.0889,-3.0889,-3.0889,-3.0889,-3.0889,-3.171,-3.2587,-3.3021,-3.4251,-3.5323,-3.5762,-3.611,-3.64,-3.6408,-3.6405,-3.6556,-3.6945,-3.7086,-3.7337,-3.7726,-3.7914,-3.8178,-3.8592,-3.8617,-3.8429,-3.8027,-3.8391,-3.8693,-3.8919,-3.9245,-3.9534,-3.9697,-3.9697,-3.9697,-3.9697,-3.9697,-3.9697,-2.8291,0.0,0.0,0.0,0.0,0.0,0.0,0.0,0.0,0.0,0.0,0.0,0.0,0.0,0.0,0.0,0.0,0.0,0.0,0.0,0.0,0.0,0.0,0.0,0.0,0.0,0.0,0.0,0.0,0.0,0.0,-2.1109,-2.1109,-2.1109,-2.1109,-2.1418,-2.2097,-2.2097,-2.2396,-2.3062,-2.3062,-2.3062,-2.2999,-2.2396,-2.2459,-2.3062,-2.3062,-2.3062,-2.3062,-2.3062,-2.3613,-2.4532,-2.4532,-2.5138,-2.5976,-2.5976,-2.6401,-2.6953,-2.6953,-2.7383,-2.794,-2.794,-2.8614,-2.9403,-2.9403,-3.0089,-3.0889,-3.0889,-3.0889,-3.0889,-3.0889,-3.0889,-3.0889,-3.0889,-3.0889,-3.0889,-3.0889,-3.0889,-3.0889,-3.0889,-3.2092,-3.3293,-3.3845,-3.5469,-3.6793,-3.6979,-3.7295,-3.7387,-3.7061,-3.7059,-3.7149,-3.7475,-3.7713,-3.799,-3.8316,-3.8555,-3.8831,-3.917,-3.9195,-3.9044,-3.8693,-3.9007,-3.9195,-3.9195,-3.9521,-3.9697,-3.9697,-3.9697,-3.9697,-3.9697,-3.9697,-3.9697,-2.8291,0.0,0.0,0.0,0.0,0.0,0.0,0.0,0.0,0.0,0.0,0.0,0.0,0.0,0.0,0.0,0.0,0.0,0.0,0.0,0.0,0.0,0.0,0.0,0.0,0.0,0.0,0.0,0.0,0.0,0.0,-2.1235,-2.1355,-2.1355,-2.1475,-2.2278,-2.3814,-2.3814,-2.4532,-2.5976,-2.5976,-2.6098,-2.6158,-2.454,-2.4594,-2.5976,-2.5976,-2.5976,-2.5976,-2.5976,-2.6098,-2.6219,-2.6219,-2.6288,-2.647,-2.647,-2.7383,-2.8605,-2.8605,-2.9648,-3.0889,-3.0889,-3.0889,-3.0889,-3.0889,-3.0889,-3.0889,-3.0889,-3.0889,-3.0889,-3.0889,-3.0889,-3.0889,-3.0889,-3.0889,-3.0889,-3.0889,-3.0889,-3.0947,-3.1054,-3.2311,-3.38,-3.5233,-3.6319,-3.7387,-3.8717,-3.8379,-3.8002,-3.8002,-3.8002,-3.8027,-3.8078,-3.8555,-3.8944,-3.8994,-3.9408,-3.9697,-3.9697,-3.9697,-3.9697,-3.9697,-3.9697,-3.9697,-3.9697,-3.9697,-3.9697,-3.9697,-3.9697,-3.9697,-3.9697,-3.9697,-3.9697,0.0,-2.8291,0.0,0.0,0.0,0.0,0.0,0.0,0.0,0.0,0.0,0.0,0.0,0.0,0.0,0.0,0.0,0.0,0.0,0.0,0.0,0.0,0.0,0.0,0.0,0.0,0.0,0.0,0.0,0.0,-2.1109,-2.2341,-2.3084,-2.3084,-2.4286,-2.513,-2.5497,-2.5497,-2.568,0.0,-2.5976,-2.6651,-2.7811,-2.6227,-2.568,-2.5976,-2.5976,-2.5976,-2.5976,-2.5976,-2.6772,-2.7871,-2.7871,-2.8673,-2.9844,-2.9844,-3.0089,-3.0333,-3.0333,-3.0577,-3.0889,-3.0889,-3.0889,-3.0889,-3.0889,-3.0889,-3.0889,-3.0889,-3.0889,-3.0889,-3.0889,-3.0889,-3.0889,-3.0889,-3.0889,-3.0889,-3.0889,-3.0889,-3.1218,-3.2426,-3.38,-3.5288,-3.6757,-3.8158,-3.9038,-3.8931,-3.8379,-3.8002,-3.8002,-3.8002,-3.8178,-3.8642,-3.8844,-3.9095,-3.9484,-3.9622,-3.9697,-3.9697,-3.9697,-3.9697,-3.9697,-3.9697,-3.9697,-3.9697,-3.9697,-3.9697,-3.9697,-3.9697,-3.9697,-3.9697,-3.9697,-3.9697,0.0,0.0,0.0,0.0,0.0,0.0,0.0,0.0,0.0,0.0,0.0,0.0,0.0,0.0,0.0,0.0,0.0,0.0,0.0,0.0,0.0,0.0,0.0,0.0,0.0,0.0,0.0,0.0,0.0,-2.1481,-2.2278,-2.3146,-2.3931,-2.4717,-2.5558,-2.634,-2.7134,-2.7134,-2.7572,-2.8367,-2.8367,-2.8801,-2.9589,-2.8733,-2.8367,-2.8367,-2.8367,-2.8367,-2.8367,-2.8367,-2.8852,-2.9589,-2.9589,-3.0147,-3.0889,-3.0889,-3.0889,-3.0889,-3.0889,-3.0889,-3.0889,-3.0889,-3.0889,-3.0889,-3.0889,-3.0889,-3.0889,-3.0889,-3.0889,-3.0889,-3.0889,-3.0889,-3.1054,-3.1767,-3.1383,-3.1112,-3.1825,-3.193,-3.2369,-3.3856,-3.5332,-3.6595,-3.7358,-3.8739,-3.9597,-3.9308,-3.9007,-3.8818,-3.8818,-3.8818,-3.8931,-3.9233,-3.927,-3.9383,-3.9672,-3.9697,-3.9697,-3.9697,-3.9697,-3.9697,-3.9697,-3.9697,-3.9697,-3.9697,-3.9697,-3.9697,-3.9697,-3.9697,-3.9697,-3.9697,-3.9697,-3.9697,0.0,0.0,0.0,0.0,0.0,0.0,0.0,0.0,0.0,0.0,0.0,0.0,0.0,0.0,0.0,0.0,0.0,0.0,0.0,0.0,0.0,0.0,0.0,0.0,0.0,0.0,0.0,0.0,0.0,-2.1853,-2.3512,-2.3876,-2.4778,-2.6349,-2.6712,-2.7512,-2.8792,-2.8852,-2.953,-3.0889,-3.0889,-3.0889,-3.0889,-3.0889,-3.0889,-3.0889,-3.0889,-3.0889,-3.0889,-3.0889,-3.0889,-3.0889,-3.0889,-3.0889,-3.0889,-3.0889,-3.0889,-3.0889,-3.0889,-3.0889,-3.0889,-3.0889,-3.0889,-3.0889,-3.0889,-3.0889,-3.0889,-3.0889,-3.0889,-3.0889,-3.0889,-3.1112,-3.1604,-3.2804,-3.2369,-3.1988,-3.3247,-3.3462,-3.3912,-3.5398,-3.6876,-3.7849,-3.7849,-3.8908,-3.9697,-3.9697,-3.9697,-3.9697,-3.9697,-3.9697,-3.9697,-3.9697,-3.9697,-3.9697,-3.9697,-3.9697,-3.9697,-3.9697,-3.9697,-3.9697,-3.9697,-3.9697,-3.9697,-3.9697,-3.9697,-3.9697,-3.9697,-3.9697,-3.9697,-3.9697,-3.9697,-3.9697,0.0,0.0,0.0,0.0,0.0,0.0,0.0,0.0,0.0,0.0,0.0,0.0,0.0,0.0,0.0,0.0,0.0,0.0,0.0,0.0,0.0,0.0,0.0,0.0,0.0,0.0,0.0,0.0,0.0,-2.1853,-2.3512,-2.4901,-2.6409,-2.8051,-2.9471,-3.0333,-3.0577,-3.0587,-3.0704,-3.0889,-3.0889,-3.0889,-3.0889,-3.0889,-3.0889,-3.0889,-3.0889,-3.0889,-3.0889,-3.0889,-3.0889,-3.0889,-3.0889,-3.0889,-3.0889,-3.0889,-3.0889,-3.0889,-3.0889,-3.0889,-3.0889,-3.0889,-3.0889,-3.0889,-3.0889,-3.0889,-3.0889,-3.0889,-3.0889,-3.0889,-3.0889,-3.1883,-3.2861,-3.3077,-3.3912,-3.4748,-3.4958,-3.5013,-3.5453,-3.6918,-3.8413,-3.9413,-3.9413,-3.9581,-3.9697,-3.9697,-3.9697,-3.9697,-3.9697,-3.9697,-3.9697,-3.9697,-3.9697,-3.9697,-3.9697,-3.9697,-3.9697,-3.9697,-3.9697,-3.9697,-3.9697,-3.9697,-3.9697,-3.9697,-3.9697,-3.9697,-3.9697,-3.9697,-3.9697,-3.9697,-3.9697,-3.9697,0.0,0.0,0.0,0.0,0.0,0.0,0.0,0.0,0.0,0.0,0.0,0.0,0.0,0.0,0.0,0.0,0.0,0.0,0.0,0.0,0.0,0.0,0.0,0.0,0.0,0.0,0.0,0.0,0.0,-2.3621,-2.6175,-2.6961,-2.8119,-2.9776,-3.0518,-3.0889,-3.0889,-3.0889,-3.0762,-3.0508,-3.0508,-3.0381,-3.0146,-3.0146,-3.042,-3.0889,-3.0889,-3.0889,-3.0889,-3.0889,-3.0889,-3.0889,-3.0889,-3.0889,-3.0889,-3.0889,-3.0889,-3.0889,-3.0889,-3.0889,-3.0889,-3.0889,-3.0889,-3.0889,-3.0889,-3.0889,-3.0889,-3.0889,-3.0889,-3.1112,-3.193,-3.2633,-3.3519,-3.5156,-3.6042,-3.6769,-3.7595,-3.7103,-3.6984,-3.8465,-3.9245,-3.9697,-3.9697,-3.9697,-3.9697,-3.9697,-3.9697,-3.9697,-3.9697,-3.9697,-3.9697,-3.9697,-3.9697,-3.9697,-3.9697,-3.9697,-3.9697,-3.9697,-3.9697,-3.9697,-3.9697,-3.9697,-3.9697,-3.9697,-3.9697,-3.9697,-3.9697,-3.9697,-3.9697,-3.9697,-3.9697,-3.9697,0.0,0.0,0.0,0.0,0.0,0.0,0.0,0.0,0.0,0.0,0.0,0.0,0.0,0.0,0.0,0.0,0.0,0.0,0.0,0.0,0.0,0.0,0.0,0.0,0.0,0.0,0.0,0.0,0.0,-2.5452,-2.8239,-2.8417,-2.9157,-3.083,-3.0889,-3.0889,-3.0889,-3.0771,-3.0488,-3.0039,-3.0039,-2.9873,-2.9626,-2.9626,-2.9932,-3.0566,-3.0664,-3.0713,-3.0723,-3.084,-3.0889,-3.0889,-3.0889,-3.0889,-3.0889,-3.0889,-3.0889,-3.0889,-3.0889,-3.0889,-3.0889,-3.0889,-3.0889,-3.0889,-3.0889,-3.0889,-3.1005,-3.1325,-3.1441,-3.1825,-3.3304,-3.3957,-3.477,-3.6972,-3.7796,-3.8348,-3.9465,-3.8856,-3.836,-3.9478,-3.9697,-3.9697,-3.9697,-3.9697,-3.9697,-3.9697,-3.9697,-3.9697,-3.9697,-3.9697,-3.9697,-3.9697,-3.9697,-3.9697,-3.9697,-3.9697,-3.9697,-3.9697,-3.9697,-3.9697,-3.9697,-3.9697,-3.9697,-3.9697,-3.9697,-3.9697,-3.9697,-3.9697,-3.9697,-3.9697,-3.9697,-3.9697,0.0,0.0,0.0,0.0,0.0,0.0,0.0,0.0,0.0,0.0,0.0,0.0,0.0,0.0,0.0,0.0,0.0,0.0,0.0,0.0,0.0,0.0,0.0,0.0,0.0,0.0,0.0,0.0,0.0,-2.6591,-2.8298,-2.8417,-2.9157,-3.083,-3.0889,-3.0889,-3.0889,-3.0449,-3.0019,-2.96,-2.96,-2.959,-2.9626,-2.9626,-2.959,-2.9658,-3.0059,-3.0234,-3.0264,-3.0713,-3.0889,-3.0889,-3.0889,-3.0889,-3.0889,-3.0889,-3.0889,-3.0889,-3.0889,-3.0889,-3.0889,-3.0889,-3.0889,-3.0889,-3.0889,-3.0889,-3.116,-3.2587,-3.2964,-3.336,-3.4792,-3.6217,-3.7293,-3.7465,-3.8582,-3.9633,-3.9685,-3.9633,-3.9633,-3.9697,-3.9697,-3.9697,-3.9697,-3.9697,-3.9697,-3.9697,-3.9697,-3.9697,-3.9697,-3.9697,-3.9697,-3.9697,-3.9697,-3.9697,-3.9697,-3.9697,-3.9697,-3.9697,-3.9697,-3.9697,-3.9697,-3.9697,-3.9697,-3.9697,-3.9697,-3.9697,-3.9697,-3.9697,-3.9697,-3.9697,-3.9697,-3.9697,0.0,0.0,0.0,0.0,0.0,0.0,0.0,0.0,0.0,0.0,0.0,0.0,0.0,0.0,0.0,0.0,0.0,0.0,0.0,0.0,0.0,0.0,0.0,0.0,0.0,0.0,0.0,0.0,0.0,0.0,-2.9903,-3.002,-3.0274,-3.0889,-3.0889,-3.0752,-3.0449,-3.0273,-2.9844,-2.915,-2.915,-2.9014,-2.875,-2.875,-2.875,-2.8779,-2.9199,-2.9687,-3.0205,-3.0371,-3.0625,-3.0889,-3.0889,-3.0889,-3.0889,-3.0889,-3.0889,-3.1054,-3.1988,-3.171,-3.1054,-3.1988,-3.1662,-3.1054,-3.2035,-3.2311,-3.2644,-3.408,-3.4515,-3.4847,-3.6325,-3.7079,-3.7743,-3.8687,-3.931,-3.9697,-3.9697,-3.9697,-3.9697,-3.9697,-3.9697,-3.9697,-3.9697,-3.9697,-3.9697,-3.9697,-3.9697,-3.9697,-3.9697,-3.9697,-3.9697,-3.9697,-3.9697,-3.9697,-3.9697,-3.9697,-3.9697,-3.9697,-3.9697,-3.9697,-3.9697,-3.9697,-3.9697,-3.9697,-3.9697,-3.9697,-3.9697,-3.9697,-3.9697,-3.9697,-3.9697,-3.9697,0.0,0.0,0.0,0.0,0.0,0.0,0.0,0.0,0.0,0.0,0.0,0.0,0.0,0.0,0.0,0.0,0.0,0.0,0.0,0.0,0.0,0.0,0.0,0.0,0.0,0.0,0.0,0.0,0.0,0.0,-3.083,-3.0889,-3.0889,-3.0889,-3.0889,-3.0596,-2.999,-2.999,-2.956,-2.8711,-2.8711,-2.8564,-2.8291,-2.8291,-2.8291,-2.8364,-2.9049,-2.962,-3.0047,-3.0684,-3.1241,-3.172,-3.216,-3.2379,-3.2379,-3.2379,-3.2045,-3.1883,-3.3304,-3.2861,-3.1872,-3.336,-3.3201,-3.255,-3.3519,-3.3856,-3.4125,-3.5606,-3.6054,-3.6379,-3.7861,-3.8243,-3.8465,-3.9465,-3.9697,-3.9697,-3.9697,-3.9697,-3.9697,-3.9697,-3.9697,-3.9697,-3.9697,-3.9697,-3.9697,-3.9697,-3.9697,-3.9697,-3.9697,-3.9697,-3.9697,-3.9697,-3.9697,-3.9697,-3.9697,-3.9697,-3.9697,-3.9697,-3.9697,-3.9697,-3.9697,-3.9697,-3.9697,-3.9697,-3.9697,-3.9697,-3.9697,-3.9697,-3.9697,-3.9697,-3.9697,-3.9697,0.0,0.0,0.0,0.0,0.0,0.0,0.0,0.0,0.0,0.0,0.0,0.0,0.0,0.0,0.0,0.0,0.0,0.0,0.0,0.0,0.0,0.0,0.0,0.0,0.0,0.0,0.0,0.0,0.0,-3.0889,-3.0889,-3.0889,-3.0889,-3.0889,-3.0889,-3.0469,-2.9636,-2.9626,-2.9141,-2.8291,-2.8291,-2.8291,-2.8291,-2.8291,-2.8344,-2.8451,-2.9723,-3.0087,-2.9869,-3.1688,-3.2748,-3.3293,-3.4736,-3.5288,-3.5288,-3.5288,-3.4403,-3.335,-3.4847,-3.4403,-3.3406,-3.4902,-3.5343,-3.5288,-3.5343,-3.5343,-3.5672,-3.7145,-3.7571,-3.7902,-3.9349,-3.9697,-3.9697,-3.9697,-3.9697,-3.9697,-3.9697,-3.9697,-3.9697,-3.9697,-3.9697,-3.9697,-3.9697,-3.9697,-3.9697,-3.9697,-3.9697,-3.9697,-3.9697,-3.9697,-3.9697,-3.9697,-3.9697,-3.9697,-3.9697,-3.9697,-3.9697,-3.9697,-3.9697,-3.9697,-3.9697,-3.9697,-3.9697,-3.9697,-3.9697,-3.9697,-3.9697,-3.9697,-3.9697,-3.9697,-3.9697,-3.9697,-3.6405,0.0,0.0,0.0,0.0,0.0,0.0,0.0,0.0,0.0,0.0,0.0,0.0,0.0,0.0,0.0,0.0,0.0,0.0,0.0,0.0,0.0,0.0,0.0,0.0,0.0,0.0,0.0,-3.0889,-3.0889,-3.0889,-3.0889,-3.0889,-3.0889,-3.0889,-3.0469,-2.9636,-2.9626,-2.9141,-2.8291,-2.8291,-2.8291,-2.8291,-2.8291,-2.8857,-2.9775,-3.0569,-3.1572,-3.2663,-3.3211,-3.3921,-3.4736,-3.5123,-3.5288,-3.5288,-3.5288,-3.5013,-3.4902,-3.6379,-3.5945,-3.4958,-3.6433,-3.6162,-3.5508,-3.6541,-3.6865,-3.7198,-3.8687,-3.9077,-3.9193,-3.9581,-3.9697,-3.9697,-3.9697,-3.9697,-3.9697,-3.9697,-3.9697,-3.9697,-3.9697,-3.9697,-3.9697,-3.9697,-3.9697,-3.9697,-3.9697,-3.9697,-3.9697,-3.9697,-3.9697,-3.9697,-3.9697,-3.9697,-3.9697,-3.9697,-3.9697,-3.9697,-3.9697,-3.9697,-3.9697,-3.9697,-3.9697,-3.9697,-3.9697,-3.9697,-3.9697,-3.9697,-3.9697,-3.9697,-3.9697,-3.9697,-3.9697,0.0,0.0,0.0,0.0,0.0,0.0,0.0,-3.0514,0.0,0.0,0.0,0.0,0.0,0.0,0.0,0.0,0.0,0.0,0.0,0.0,0.0,0.0,0.0,0.0,0.0,0.0,0.0,-3.0859,-3.0889,-3.0889,-3.0889,-3.0889,-3.0889,-3.0889,-3.0889,-3.0547,-2.9834,-2.9834,-2.9404,-2.8555,-2.8555,-2.8769,-2.9154,-2.9154,-3.0025,-3.1549,-3.2432,-3.367,-3.5114,-3.5711,-3.6034,-3.6271,-3.6888,-3.7168,-3.7168,-3.7168,-3.6769,-3.6433,-3.7914,-3.7477,-3.6433,-3.7914,-3.782,-3.7329,-3.8137,-3.8413,-3.8582,-3.9465,-3.9697,-3.9697,-3.9697,-3.9697,-3.9697,-3.9697,-3.9697,-3.9697,-3.9697,-3.9697,-3.9697,-3.9697,-3.9697,-3.9697,-3.9697,-3.9697,-3.9697,-3.9697,-3.9697,-3.9697,-3.9697,-3.9697,-3.9697,-3.9697,-3.9697,-3.9697,-3.9697,-3.9697,-3.9697,-3.9697,-4.0224,-4.0275,-3.9749,-4.0224,-4.0503,-4.0503,-3.9981,-3.9697,-3.9697,-3.9697,-3.9697,-3.9697,-3.9697,-3.9697,0.0,0.0,0.0,0.0,0.0,0.0,-3.2844,-3.2392,-3.228,0.0,0.0,0.0,0.0,0.0,0.0,0.0,0.0,0.0,0.0,0.0,0.0,0.0,0.0,0.0,0.0,-2.9902,-3.0342,-3.085,-3.0889,-3.0889,-3.0889,-3.0889,-3.0889,-3.0889,-3.0889,-3.0664,-3.0205,-3.0195,-2.9795,-2.8994,-2.9148,-2.9678,-3.0475,-3.0621,-3.1728,-3.3594,-3.4812,-3.6027,-3.7108,-3.8437,-3.8477,-3.7849,-3.9193,-3.9697,-3.9697,-3.9697,-3.8856,-3.7914,-3.9245,-3.8856,-3.7967,-3.9245,-3.9697,-3.9697,-3.9697,-3.9697,-3.9697,-3.9697,-3.9697,-3.9697,-3.9697,-3.9697,-3.9697,-3.9697,-3.9697,-3.9697,-3.9697,-3.9697,-3.9697,-3.9697,-3.9697,-3.9697,-3.9697,-3.9697,-3.9697,-3.9697,-3.9697,-3.9697,-3.9697,-3.9697,-3.9697,-3.9697,-3.9697,-3.9697,-3.9697,-3.9697,-3.9697,-3.9697,-4.0743,-4.0882,-3.9736,-4.0794,-4.1455,-4.1604,-4.0655,-4.0121,-4.0121,-3.9839,-3.9697,-3.9697,-3.9697,-3.9697,0.0,0.0,0.0,0.0,0.0,0.0,-3.4068,-3.3105,-3.228,0.0,0.0,0.0,0.0,0.0,0.0,0.0,0.0,0.0,0.0,0.0,0.0,0.0,0.0,0.0,0.0,-2.9648,-3.0029,-3.083,-3.0889,-3.0889,-3.0889,-3.0889,-3.0889,-3.0889,-3.0889,-3.0664,-3.0205,-3.0195,-2.9941,-2.9499,-3.0662,-3.1308,-3.1537,-3.2731,-3.4073,-3.551,-3.6193,-3.7248,-3.8577,-3.9243,-3.9429,-3.9297,-3.9581,-3.9697,-3.9697,-3.9697,-3.953,-3.9297,-3.9581,-3.953,-3.931,-3.9633,-3.9697,-3.9697,-3.9697,-3.9697,-3.9697,-3.9697,-3.9697,-3.9697,-3.9697,-3.9697,-3.9697,-3.9697,-3.9697,-3.9697,-3.9697,-3.9697,-3.9697,-3.9697,-3.9697,-3.9697,-3.9697,-3.9697,-3.9697,-3.9697,-3.9697,-3.9697,-3.9697,-3.9697,-3.9697,-3.9697,-3.9697,-3.9697,-3.9697,-3.9697,-3.9697,-3.9697,-3.9929,-3.9981,-3.9697,-3.9929,-4.0554,-4.1604,-4.2363,-4.2738,-4.2738,-4.0693,-3.9697,-3.9697,-3.9697,-3.9697,0.0,0.0,0.0,-3.6405,0.0,0.0,0.0,-3.486,-3.4338,0.0,0.0,0.0,0.0,0.0,0.0,0.0,0.0,0.0,0.0,0.0,0.0,0.0,0.0,0.0,0.0,-2.9626,-2.9941,-3.082,-3.0889,-3.0889,-3.0889,-3.0889,-3.0889,-3.0889,-3.0889,-3.0781,-3.0547,-3.0547,-3.0322,-2.9939,-3.1388,-3.2349,-3.2866,-3.4323,-3.5884,-3.7435,-3.7704,-3.8409,-3.9295,-3.9584,-3.9697,-3.9697,-3.9697,-3.9697,-3.9697,-3.9697,-3.9697,-3.9697,-3.9697,-3.9697,-3.9697,-3.9697,-3.9697,-3.9697,-3.9697,-3.9697,-3.9697,-3.9697,-3.9697,-3.9697,-3.9697,-3.9697,-3.9697,-3.9697,-3.9697,-3.9697,-3.9697,-3.9697,-3.9697,-3.9697,-3.9697,-3.9697,-3.9697,-3.9697,-3.9697,-3.9697,-3.9697,-3.9697,-3.9697,-3.9697,-3.9697,-3.9697,-3.9697,-3.9697,-3.9697,-3.9697,-3.9697,-3.9697,-4.0313,-4.0642,-4.0642,-4.1269,-4.1887,-4.2558,-4.317,-4.317,-4.2544,-4.0655,-4.0032,-4.0655,-3.9981,-3.9697,0.0,0.0,0.0,0.0,0.0,-3.6405,0.0,0.0,0.0,0.0,0.0,0.0,0.0,0.0,0.0,0.0,0.0,0.0,0.0,0.0,0.0,0.0,0.0,0.0,0.0,-2.9885,-3.0117,-3.084,-3.0889,-3.0889,-3.0889,-3.0889,-3.0889,-3.0889,-3.0889,-3.0889,-3.0889,-3.0889,-3.0867,-3.076,-3.2232,-3.3508,-3.4566,-3.605,-3.757,-3.9032,-3.9032,-3.9283,-3.9697,-3.9697,-3.9697,-3.9697,-3.9697,-3.9697,-3.9697,-3.9697,-3.9697,-3.9697,-3.9697,-3.9697,-3.9697,-3.9697,-3.9697,-3.9697,-3.9697,-3.9697,-3.9697,-3.9697,-3.9697,-3.9697,-3.9697,-3.9697,-3.9697,-3.9697,-3.9697,-3.9697,-3.9697,-3.9697,-3.9697,-3.9697,-3.9697,-3.9697,-3.9697,-3.9697,-3.9697,-3.9697,-3.9697,-3.9697,-3.9697,-3.9697,-3.9697,-3.9697,-3.9697,-3.9697,-3.9697,-3.9697,-3.9788,-4.0032,-4.0794,-4.1455,-4.1936,-4.317,-4.3882,-4.3882,-4.3882,-4.3361,-4.2315,-4.0794,-4.0453,-4.1219,-4.0173,-3.9697,0.0,0.0,0.0,0.0,-3.6405,0.0,0.0,0.0,-3.6405,0.0,0.0,0.0,0.0,0.0,0.0,0.0,0.0,0.0,0.0,0.0,0.0,0.0,0.0,0.0,0.0,0.0,-3.0781,-3.0889,-3.0889,-3.0889,-3.0889,-3.0889,-3.0889,-3.0889,-3.0889,-3.0889,-3.0889,-3.0889,-3.1526,-3.2767,-3.4271,-3.5722,-3.7127,-3.862,-3.9379,-3.9597,-3.9597,-3.9634,-3.9697,-3.9697,-3.9697,-3.9697,-3.9697,-3.9697,-3.9697,-3.9697,-3.9697,-3.9697,-3.9697,-3.9697,-3.9697,-3.9697,-3.9697,-3.9697,-3.9697,-3.9697,-3.9697,-3.9697,-3.9697,-3.9697,-3.9697,-3.9697,-3.9697,-3.9697,-3.9697,-3.9697,-3.9697,-3.9697,-3.9697,-3.9697,-3.9697,-3.9697,-3.9697,-3.9697,-3.9697,-3.9697,-3.9697,-3.9697,-3.9697,-3.9697,-3.9697,-3.9697,-3.9697,-3.9697,-3.9697,-3.9697,-4.0173,-4.1319,-4.0453,-4.0932,-4.317,-4.4503,-4.5161,-4.5161,-4.5161,-4.5115,-4.4978,-4.2544,-4.0882,-3.9929,-3.9788,-3.9697,0.0,0.0,0.0,0.0,0.0,0.0,0.0,0.0,-3.6405,0.0,0.0,0.0,0.0,0.0,0.0,0.0,0.0,0.0,0.0,0.0,0.0,0.0,0.0,0.0,0.0,0.0,0.0,0.0,-3.171,-3.1825,-3.0947,-3.0889,-3.0889,-3.0889,-3.0889,-3.0889,-3.0889,-3.1767,-3.2483,-3.3134,-3.5442,-3.6918,-3.7571,-3.9025,-3.9697,-3.9697,-3.9697,-3.9697,-3.9697,-3.9697,-3.9697,-3.9697,-3.9697,-3.9697,-3.9697,-3.9697,-3.9697,-3.9697,-3.9697,-3.9697,-3.9697,-3.9697,-3.9697,-3.9697,-3.9697,-3.9697,-3.9697,-3.9697,-3.9697,-3.9697,-3.9697,-3.9697,-3.9697,-3.9697,-3.9697,-3.9697,-3.9697,-3.9697,-3.9697,-3.9697,-3.9697,-3.9697,-3.9697,-3.9697,-3.9697,-3.9697,-3.9697,-3.9697,-3.9697,-3.9697,-3.9697,-3.9697,-3.9697,-3.9697,-3.9697,-3.9697,-3.9929,-4.0453,-4.0693,-4.1269,-4.2363,-4.4303,-4.507,-4.4303,-4.4303,-4.3929,-4.317,-4.1356,-4.0224,-3.9697,-3.9697,-3.9697,-3.6405,0.0,0.0,0.0,0.0,0.0,0.0,0.0,0.0,0.0,0.0,0.0,0.0,0.0,0.0,0.0,0.0,0.0,0.0,0.0,0.0,0.0,0.0,0.0,0.0,0.0,0.0,-3.1604,-3.2473,-3.2483,-3.1005,-3.0889,-3.0889,-3.0889,-3.0889,-3.0889,-3.0889,-3.2369,-3.3293,-3.3744,-3.6259,-3.769,-3.8125,-3.9193,-3.9697,-3.9697,-3.9697,-3.9697,-3.9697,-3.9697,-3.9697,-3.9697,-3.9697,-3.9697,-3.9697,-3.9697,-3.9697,-3.9697,-3.9697,-3.9697,-3.9697,-3.9697,-3.9697,-3.9697,-3.9697,-3.9697,-3.9697,-3.9697,-3.9697,-3.9697,-3.9697,-3.9697,-3.9697,-3.9697,-3.9697,-3.9697,-3.9697,-3.9697,-3.9697,-3.9697,-3.9697,-3.9697,-3.9697,-3.9697,-3.9697,-3.9697,-3.9697,-3.9697,-3.9697,-3.9697,-3.9697,-3.9697,-3.9697,-3.9697,-3.9697,-3.9697,-3.9839,-4.0224,-4.1739,-4.2641,-4.2641,-4.4734,-4.5298,-4.4069,-4.4022,-4.3218,-4.1604,-4.0642,-4.0224,-4.0224,-3.9839,-3.9697,0.0,0.0,0.0,-3.6405,0.0,0.0,0.0,0.0,-3.6405,0.0,0.0,0.0,0.0,0.0,0.0,0.0,0.0,0.0,0.0,0.0,0.0,0.0,0.0,0.0,0.0,0.0,0.0,-3.3134,-3.3077,-3.2483,-3.1005,-3.0889,-3.0889,-3.0889,-3.0889,-3.0889,-3.0889,-3.2369,-3.38,-3.5233,-3.6757,-3.8243,-3.9633,-3.9685,-3.9697,-3.9697,-3.9697,-3.9697,-3.9697,-3.9697,-3.9697,-3.9697,-3.9697,-3.9697,-3.9697,-3.9697,-3.9697,-3.9697,-3.9697,-3.9697,-3.9697,-3.9697,-3.9697,-3.9697,-3.9697,-3.9697,-3.9697,-3.9697,-3.9697,-3.9697,-3.9697,-3.9697,-3.9697,-3.9697,-3.9697,-3.9697,-3.9697,-3.9697,-3.9697,-3.9697,-3.9697,-3.9697,-3.9697,-3.9697,-3.9697,-3.9697,-3.9697,-3.9697,-3.9697,-3.9697,-3.9697,-3.9697,-3.9697,-3.9697,-3.9697,-3.9697,-4.0224,-4.1455,-4.3882,-4.5252,-4.5252,-4.6535,-4.6638,-4.5358,-4.5358,-4.4116,-4.1604,-4.1555,-4.1555,-4.1505,-4.0262,-3.9697,0.0,0.0,-3.6405,-3.6405,0.0,0.0,0.0,0.0,0.0,0.0,0.0,0.0,0.0,0.0,0.0,0.0,0.0,0.0,0.0,0.0,0.0,0.0,0.0,0.0,0.0,0.0,0.0,-3.4681,-3.5442,-3.5387,-3.3866,-3.381,-3.381,-3.381,-3.381,-3.381,-3.381,-3.5277,-3.6259,-3.6757,-3.8243,-3.9245,-3.9697,-3.9697,-3.9697,-3.9697,-3.9697,-3.9697,-3.9697,-3.9697,-3.9697,-3.9697,-3.9697,-3.9697,-3.9697,-3.9697,-3.9697,-3.9697,-3.9697,-3.9697,-3.9697,-3.9697,-3.9697,-3.9697,-3.9697,-3.9697,-3.9697,-3.9697,-3.9697,-3.9697,-3.9697,-3.9697,-3.9697,-3.9697,-3.9697,-3.9697,-3.9697,-3.9697,-3.9697,-3.9697,-3.9697,-3.9697,-3.9697,-3.9697,-3.9697,-3.9697,-3.9697,-3.9697,-3.9697,-3.9697,-3.9697,-3.9697,-3.9697,-3.9697,-3.9697,-4.0453,-4.1505,-4.2786,-4.3693,-4.4116,-4.4116,-4.5358,-4.5448,-4.4163,-4.4978,-4.4549,-4.2882,-4.2882,-4.2882,-4.2834,-4.2412,-4.2217,-3.6405,-3.6405,0.0,-3.6405,-3.6405,0.0,-3.6405,0.0,0.0,0.0,0.0,0.0,0.0,0.0,0.0,0.0,0.0,0.0,0.0,0.0,0.0,0.0,0.0,0.0,0.0,0.0,-3.769,-3.6217,-3.6972,-3.6865,0.0,0.0,-3.5288,-3.5288,-3.5288,-3.5288,-3.5288,-3.6757,-3.7518,-3.7518,-3.9025,-3.9697,-3.9697,-3.9697,-3.9697,-3.9697,-3.9697,-3.9697,-3.9697,-3.9697,-3.9697,-3.9697,-3.9697,-3.9697,-3.9697,-3.9697,-3.9697,-3.9697,-3.9697,-3.9697,-3.9697,-3.9697,-3.9697,-3.9697,-3.9697,-3.9697,-3.9697,-3.9697,-3.9697,-3.9697,-3.9697,-3.9697,-3.9697,-3.9697,-3.9697,-3.9697,-3.9697,-3.9697,-3.9697,-3.9697,-3.9697,-3.9697,-3.9697,-3.9697,-3.9697,-3.9697,-3.9697,-3.9697,-3.9697,-3.9697,-3.9697,-3.9697,-3.9697,-3.9697,-3.9697,-4.0882,-4.2119,-4.3409,-4.3929,-4.4396,-4.4826,-4.5644,-4.5595,-4.4532,-4.5564,-4.5321,-4.3869,-4.4087,-4.4163,-4.4163,-4.4163,-4.4396]},{"header":{"parameterUnit":"m.s-1","parameterCategory":1,"la1":30.6,"la2":29.2853,"lo1":-89.7004,"lo2":-87.6739,"dx":0.0162,"dy":0.0183,"nx":112,"ny":82,"refTime":"2023-02-04T06:00:00:Z","depth":0,"parameterNumber":3,"parameterNumberName":"V-component_of_WINDS"},"data":[0.0,0.0,0.0,0.0,0.0,0.0,0.0,0.0,0.0,0.0,0.0,0.0,0.0,0.0,0.0,0.0,0.0,0.0,0.0,0.0,0.0,0.0,0.0,0.0,0.0,0.0,0.0,0.0,0.0,0.0,0.0,0.0,0.0,0.0,0.0,0.0,0.0,0.0,0.0,0.0,0.0,0.0,0.0,0.0,0.0,0.0,0.0,0.0,0.0,0.0,0.0,0.0,0.0,0.0,0.0,0.0,0.0,0.0,0.0,0.0,0.0,0.0,0.0,0.0,0.0,0.0,0.0,0.0,0.0,0.0,0.0,0.0,0.0,0.0,0.0,0.0,0.0,0.0,0.0,0.0,0.0,0.0,0.0,0.0,0.0,0.0,0.0,0.0,0.0,0.0,0.0,4.3502,4.4167,4.4615,4.4615,4.4615,4.4298,4.3562,0.0,0.0,0.0,0.0,0.0,0.0,0.0,0.0,0.0,0.0,0.0,0.0,0.0,0.0,0.0,0.0,0.0,0.0,0.0,0.0,0.0,0.0,0.0,0.0,0.0,0.0,0.0,0.0,0.0,0.0,0.0,0.0,0.0,0.0,0.0,0.0,0.0,0.0,0.0,0.0,0.0,0.0,0.0,0.0,0.0,0.0,0.0,0.0,0.0,0.0,0.0,0.0,0.0,0.0,0.0,0.0,0.0,0.0,0.0,0.0,0.0,0.0,0.0,0.0,0.0,0.0,0.0,0.0,0.0,0.0,0.0,0.0,0.0,0.0,0.0,0.0,0.0,0.0,0.0,0.0,0.0,0.0,0.0,0.0,0.0,0.0,0.0,0.0,0.0,0.0,0.0,0.0,0.0,0.0,0.0,0.0,0.0,0.0,0.0,0.0,0.0,0.0,0.0,0.0,4.4412,4.4412,4.4514,4.4615,4.4615,4.4615,4.4542,4.4412,0.0,0.0,0.0,0.0,0.0,0.0,0.0,0.0,0.0,0.0,0.0,0.0,0.0,0.0,0.0,0.0,0.0,0.0,0.0,0.0,0.0,0.0,0.0,0.0,0.0,0.0,0.0,0.0,0.0,0.0,0.0,0.0,0.0,0.0,0.0,0.0,0.0,0.0,0.0,0.0,0.0,0.0,0.0,0.0,0.0,0.0,0.0,0.0,0.0,0.0,0.0,0.0,0.0,0.0,0.0,0.0,0.0,0.0,0.0,0.0,0.0,0.0,0.0,0.0,0.0,0.0,0.0,0.0,0.0,0.0,0.0,0.0,0.0,0.0,0.0,0.0,0.0,0.0,0.0,0.0,0.0,0.0,0.0,0.0,0.0,0.0,0.0,0.0,0.0,0.0,0.0,0.0,0.0,0.0,0.0,0.0,0.0,0.0,0.0,0.0,0.0,0.0,0.0,4.4355,4.4615,4.4615,4.4615,4.4615,4.4615,4.4615,4.4615,4.4615,4.4224,0.0,0.0,0.0,0.0,0.0,0.0,0.0,0.0,0.0,0.0,0.0,0.0,0.0,0.0,0.0,0.0,0.0,0.0,0.0,0.0,0.0,0.0,0.0,0.0,0.0,0.0,0.0,0.0,0.0,0.0,0.0,0.0,0.0,0.0,0.0,0.0,0.0,0.0,0.0,0.0,0.0,0.0,0.0,0.0,0.0,0.0,0.0,0.0,0.0,0.0,0.0,0.0,0.0,0.0,0.0,0.0,0.0,0.0,0.0,0.0,0.0,0.0,0.0,0.0,0.0,0.0,0.0,0.0,0.0,0.0,0.0,0.0,0.0,0.0,0.0,0.0,0.0,0.0,0.0,0.0,0.0,0.0,0.0,0.0,0.0,0.0,0.0,0.0,0.0,0.0,0.0,0.0,0.0,0.0,0.0,0.0,0.0,0.0,0.0,0.0,0.0,0.0,4.4615,4.4615,4.4615,4.4615,4.4615,4.4615,4.4615,4.4615,4.4615,4.4615,0.0,0.0,0.0,0.0,0.0,0.0,0.0,0.0,0.0,0.0,0.0,0.0,0.0,0.0,0.0,0.0,0.0,0.0,0.0,0.0,0.0,0.0,0.0,0.0,0.0,0.0,0.0,0.0,0.0,0.0,0.0,0.0,0.0,0.0,0.0,0.0,0.0,0.0,0.0,0.0,0.0,0.0,0.0,0.0,0.0,0.0,0.0,0.0,0.0,0.0,0.0,0.0,0.0,0.0,0.0,0.0,0.0,0.0,0.0,0.0,0.0,0.0,0.0,0.0,0.0,0.0,0.0,0.0,0.0,0.0,0.0,0.0,0.0,0.0,0.0,0.0,0.0,0.0,0.0,0.0,0.0,0.0,0.0,0.0,0.0,0.0,0.0,0.0,0.0,0.0,0.0,0.0,0.0,0.0,0.0,0.0,0.0,0.0,0.0,0.0,0.0,0.0,4.4615,4.4615,4.4615,4.4615,4.4615,4.4615,4.4615,4.4615,4.4615,4.4615,0.0,0.0,0.0,0.0,0.0,0.0,0.0,0.0,0.0,0.0,0.0,0.0,0.0,0.0,0.0,0.0,0.0,0.0,0.0,0.0,0.0,0.0,0.0,0.0,0.0,0.0,0.0,0.0,0.0,0.0,0.0,0.0,0.0,0.0,0.0,0.0,0.0,0.0,0.0,0.0,0.0,0.0,0.0,0.0,0.0,0.0,0.0,0.0,0.0,0.0,0.0,0.0,0.0,0.0,0.0,0.0,0.0,0.0,0.0,0.0,0.0,0.0,0.0,0.0,0.0,0.0,0.0,0.0,0.0,0.0,0.0,0.0,0.0,0.0,0.0,0.0,0.0,0.0,0.0,0.0,0.0,0.0,0.0,0.0,0.0,0.0,0.0,0.0,0.0,0.0,0.0,0.0,0.0,0.0,0.0,0.0,0.0,0.0,0.0,0.0,0.0,0.0,4.4615,4.4615,0.0,4.4615,4.4615,4.4615,4.4615,4.4615,4.4615,0.0,0.0,0.0,0.0,0.0,0.0,0.0,0.0,0.0,0.0,0.0,0.0,0.0,0.0,0.0,0.0,0.0,0.0,0.0,0.0,0.0,0.0,0.0,0.0,0.0,0.0,0.0,0.0,0.0,0.0,0.0,0.0,0.0,0.0,0.0,0.0,0.0,0.0,0.0,0.0,0.0,0.0,0.0,0.0,0.0,0.0,0.0,0.0,0.0,0.0,0.0,0.0,0.0,0.0,0.0,0.0,0.0,0.0,0.0,0.0,0.0,0.0,0.0,0.0,0.0,0.0,0.0,0.0,0.0,0.0,0.0,0.0,0.0,0.0,0.0,0.0,0.0,0.0,0.0,0.0,0.0,0.0,0.0,0.0,0.0,0.0,0.0,0.0,0.0,0.0,0.0,0.0,0.0,0.0,0.0,0.0,0.0,0.0,0.0,0.0,0.0,0.0,4.4615,4.4615,4.4615,0.0,4.4615,4.4615,4.4615,4.4615,4.4615,4.4615,0.0,0.0,0.0,0.0,0.0,0.0,0.0,0.0,0.0,0.0,0.0,0.0,0.0,0.0,0.0,0.0,0.0,0.0,0.0,0.0,0.0,0.0,0.0,0.0,0.0,0.0,0.0,0.0,0.0,0.0,0.0,0.0,0.0,0.0,0.0,0.0,0.0,0.0,0.0,0.0,0.0,0.0,0.0,0.0,0.0,0.0,0.0,0.0,0.0,0.0,0.0,0.0,0.0,0.0,0.0,0.0,0.0,0.0,0.0,0.0,0.0,0.0,0.0,0.0,0.0,0.0,0.0,0.0,0.0,0.0,0.0,0.0,0.0,0.0,0.0,0.0,0.0,0.0,0.0,0.0,0.0,0.0,0.0,0.0,0.0,0.0,0.0,0.0,0.0,0.0,0.0,0.0,0.0,0.0,0.0,0.0,0.0,0.0,0.0,0.0,0.0,0.0,4.4598,4.4598,4.4615,4.4615,4.4615,4.4615,4.4615,4.4615,4.4615,0.0,0.0,0.0,0.0,0.0,0.0,0.0,0.0,0.0,0.0,0.0,0.0,0.0,0.0,0.0,0.0,0.0,0.0,0.0,0.0,0.0,0.0,0.0,0.0,0.0,0.0,0.0,0.0,0.0,0.0,0.0,0.0,0.0,0.0,0.0,0.0,0.0,0.0,0.0,0.0,0.0,0.0,0.0,0.0,0.0,0.0,0.0,0.0,0.0,0.0,0.0,0.0,0.0,0.0,0.0,0.0,0.0,0.0,0.0,0.0,0.0,0.0,0.0,0.0,0.0,0.0,0.0,0.0,0.0,0.0,0.0,0.0,0.0,0.0,0.0,0.0,0.0,0.0,0.0,0.0,0.0,0.0,0.0,0.0,0.0,0.0,0.0,0.0,0.0,0.0,0.0,0.0,0.0,0.0,0.0,0.0,0.0,0.0,0.0,0.0,0.0,0.0,0.0,4.5178,4.4852,4.4615,4.4615,4.4615,4.4615,4.4615,4.4615,4.4615,4.4615,0.0,0.0,0.0,0.0,0.0,0.0,0.0,0.0,0.0,0.0,0.0,0.0,0.0,0.0,0.0,0.0,0.0,0.0,0.0,0.0,0.0,0.0,0.0,0.0,0.0,0.0,0.0,0.0,0.0,0.0,0.0,0.0,0.0,0.0,0.0,0.0,0.0,0.0,0.0,0.0,0.0,0.0,0.0,0.0,0.0,0.0,0.0,0.0,0.0,0.0,0.0,0.0,0.0,0.0,0.0,0.0,0.0,0.0,0.0,0.0,0.0,0.0,0.0,0.0,0.0,0.0,0.0,0.0,0.0,0.0,0.0,0.0,0.0,0.0,0.0,0.0,0.0,0.0,0.0,0.0,0.0,0.0,0.0,0.0,0.0,0.0,0.0,0.0,0.0,0.0,0.0,0.0,0.0,0.0,0.0,0.0,0.0,0.0,0.0,0.0,0.0,0.0,4.5808,4.5545,4.532,4.532,4.532,4.5232,4.4971,4.4944,4.4869,4.4615,0.0,0.0,0.0,0.0,0.0,0.0,0.0,0.0,0.0,0.0,0.0,0.0,0.0,0.0,0.0,0.0,0.0,0.0,0.0,0.0,0.0,0.0,0.0,0.0,0.0,0.0,0.0,0.0,0.0,0.0,0.0,0.0,0.0,0.0,0.0,0.0,0.0,0.0,0.0,0.0,0.0,0.0,0.0,0.0,0.0,0.0,0.0,0.0,0.0,0.0,0.0,0.0,0.0,0.0,0.0,0.0,0.0,0.0,0.0,0.0,0.0,0.0,0.0,0.0,0.0,0.0,0.0,0.0,0.0,0.0,0.0,0.0,0.0,0.0,0.0,0.0,0.0,0.0,0.0,0.0,0.0,0.0,0.0,0.0,0.0,0.0,0.0,0.0,0.0,0.0,0.0,0.0,0.0,0.0,0.0,0.0,0.0,0.0,0.0,0.0,0.0,0.0,4.646,4.6454,4.6407,4.6407,4.6407,4.6167,4.5622,4.552,4.5284,4.472,0.0,0.0,0.0,0.0,0.0,0.0,0.0,0.0,0.0,0.0,0.0,0.0,0.0,0.0,0.0,0.0,0.0,0.0,0.0,0.0,0.0,0.0,0.0,0.0,0.0,0.0,0.0,0.0,0.0,0.0,0.0,0.0,0.0,0.0,0.0,0.0,0.0,0.0,0.0,0.0,0.0,0.0,0.0,0.0,0.0,0.0,0.0,0.0,0.0,0.0,0.0,0.0,0.0,0.0,0.0,0.0,0.0,0.0,0.0,0.0,4.9001,0.0,0.0,0.0,0.0,0.0,0.0,0.0,0.0,0.0,0.0,0.0,0.0,0.0,0.0,0.0,0.0,0.0,0.0,0.0,0.0,0.0,0.0,0.0,0.0,0.0,0.0,0.0,0.0,0.0,0.0,0.0,0.0,0.0,0.0,0.0,0.0,0.0,0.0,0.0,0.0,0.0,4.7128,4.6733,4.6407,4.6407,4.6407,4.6359,4.6216,4.5783,4.5433,4.532,4.4852,0.0,0.0,0.0,0.0,0.0,0.0,0.0,0.0,0.0,0.0,0.0,0.0,0.0,0.0,0.0,0.0,0.0,0.0,0.0,0.0,0.0,0.0,0.0,0.0,0.0,0.0,0.0,0.0,0.0,0.0,0.0,0.0,0.0,0.0,0.0,0.0,0.0,0.0,0.0,0.0,0.0,0.0,0.0,0.0,0.0,0.0,0.0,0.0,0.0,0.0,0.0,0.0,0.0,0.0,0.0,0.0,0.0,0.0,0.0,0.0,4.9001,0.0,0.0,0.0,0.0,0.0,0.0,0.0,0.0,0.0,0.0,0.0,0.0,0.0,0.0,0.0,0.0,0.0,0.0,0.0,0.0,0.0,0.0,0.0,0.0,0.0,0.0,0.0,0.0,0.0,0.0,0.0,0.0,0.0,0.0,0.0,0.0,0.0,0.0,0.0,0.0,4.7797,4.7533,4.7306,4.7306,4.7306,4.7198,4.691,4.6589,4.6281,4.594,4.6021,0.0,0.0,0.0,0.0,0.0,0.0,0.0,0.0,0.0,0.0,0.0,0.0,0.0,0.0,0.0,0.0,0.0,0.0,0.0,0.0,0.0,0.0,0.0,0.0,0.0,0.0,0.0,0.0,0.0,0.0,0.0,0.0,0.0,0.0,0.0,0.0,0.0,0.0,0.0,0.0,0.0,0.0,0.0,0.0,0.0,0.0,0.0,0.0,0.0,0.0,0.0,0.0,0.0,4.9308,4.9376,4.9376,4.9376,4.9376,4.9376,4.9376,4.9286,4.9182,4.9182,0.0,0.0,0.0,0.0,0.0,0.0,0.0,0.0,0.0,0.0,0.0,0.0,0.0,0.0,0.0,0.0,0.0,0.0,0.0,0.0,0.0,0.0,0.0,0.0,5.1189,5.0899,0.0,0.0,0.0,0.0,0.0,0.0,0.0,0.0,0.0,0.0,0.0,0.0,4.8306,4.8306,4.8306,4.8306,4.8306,4.8094,4.7593,4.7449,4.7226,4.6813,4.7358,4.809,0.0,0.0,0.0,0.0,0.0,0.0,0.0,0.0,0.0,0.0,0.0,0.0,0.0,0.0,0.0,0.0,0.0,0.0,0.0,0.0,0.0,0.0,0.0,0.0,0.0,0.0,0.0,0.0,0.0,0.0,0.0,0.0,4.4615,4.4615,0.0,0.0,0.0,0.0,0.0,0.0,0.0,0.0,0.0,0.0,0.0,0.0,0.0,4.6632,4.7604,4.8224,4.8948,4.9776,5.048,5.0823,5.0823,5.0823,5.0823,5.0823,5.0823,0.0,4.9879,4.9879,0.0,0.0,0.0,0.0,0.0,0.0,0.0,0.0,0.0,0.0,0.0,0.0,0.0,0.0,0.0,0.0,0.0,0.0,0.0,0.0,0.0,0.0,5.1086,5.1086,5.1544,5.1712,0.0,5.0604,5.0386,4.9572,4.9237,0.0,0.0,0.0,0.0,0.0,0.0,0.0,4.8306,4.8306,4.8306,4.8306,4.8306,4.8267,4.8191,4.7715,4.7652,4.8267,4.7914,4.8338,4.9791,4.9951,0.0,0.0,0.0,0.0,0.0,0.0,0.0,0.0,0.0,0.0,0.0,0.0,0.0,0.0,0.0,0.0,0.0,0.0,0.0,0.0,0.0,0.0,0.0,0.0,0.0,0.0,0.0,0.0,0.0,4.5399,4.5622,4.5622,4.584,4.6014,0.0,0.0,0.0,0.0,0.0,0.0,0.0,0.0,0.0,4.6955,4.6594,4.6962,4.8089,4.8566,4.9174,4.9902,5.0732,5.1086,5.1086,5.1086,5.1086,5.1112,5.1494,5.1494,5.1146,5.077,5.0608,5.0581,0.0,0.0,0.0,0.0,5.0352,5.0581,5.0286,5.038,0.0,5.0286,0.0,0.0,0.0,0.0,0.0,0.0,0.0,0.0,0.0,0.0,5.2284,5.2284,5.2509,5.2615,5.2269,5.1832,5.1161,0.0,4.9596,4.9279,4.8453,0.0,0.0,0.0,0.0,0.0,4.8306,4.8306,4.8306,4.8306,4.8306,4.8306,4.8306,4.8055,4.8281,4.9102,4.9346,4.9937,5.1077,5.1565,5.1963,0.0,0.0,0.0,0.0,0.0,0.0,0.0,0.0,0.0,0.0,0.0,0.0,0.0,0.0,0.0,0.0,0.0,0.0,0.0,0.0,0.0,0.0,0.0,0.0,0.0,0.0,0.0,0.0,4.6136,4.6407,4.6407,4.6548,4.6664,0.0,0.0,0.0,0.0,0.0,0.0,4.6892,4.6892,4.711,4.7614,4.7154,4.7505,4.8768,4.9126,4.9681,5.0443,5.1254,5.1654,5.1654,5.1654,5.1654,5.1679,5.2154,5.2381,5.2335,5.1636,5.1343,5.1343,5.1164,5.1086,5.1086,5.1086,5.1215,5.1343,5.1164,5.1215,5.1317,5.1164,0.0,5.1343,5.1343,0.0,0.0,0.0,0.0,5.2381,5.2381,5.2791,5.3185,5.3185,5.3185,5.3185,5.3185,5.2729,5.183,0.0,4.9739,4.9335,4.8453,0.0,0.0,0.0,0.0,4.8306,4.8306,4.8306,4.8398,4.8618,4.8636,4.8728,4.893,4.8948,4.9297,5.0161,5.0765,5.1463,5.227,5.2894,5.3185,5.3185,0.0,0.0,0.0,0.0,0.0,0.0,0.0,0.0,0.0,0.0,0.0,0.0,0.0,0.0,0.0,0.0,0.0,0.0,0.0,0.0,0.0,0.0,0.0,0.0,0.0,0.0,0.0,0.0,0.0,4.6407,4.6955,0.0,0.0,0.0,0.0,4.821,4.821,4.821,4.821,4.821,4.821,4.8249,4.821,4.8651,4.9553,5.032,5.1106,5.1894,5.2718,5.3082,5.3082,5.3082,5.3082,5.3103,5.3124,5.3124,5.3082,5.2358,5.2047,5.1976,5.1343,5.1086,5.1086,5.1086,5.1494,5.1952,5.1317,5.1519,5.1952,5.1317,5.1519,5.2047,5.2047,5.2531,0.0,0.0,5.3103,5.3124,5.3124,5.3164,5.3185,5.3185,5.3185,5.3185,5.3185,5.3167,5.2653,0.0,5.0105,4.9335,4.8453,0.0,4.8306,4.8306,4.8306,4.8306,4.8306,4.8306,4.8618,4.9445,4.9537,4.9829,5.0618,5.0674,5.1022,5.183,5.1903,5.2307,5.3115,5.3167,5.3185,5.3185,5.3185,0.0,0.0,0.0,0.0,0.0,0.0,0.0,0.0,0.0,0.0,0.0,0.0,0.0,0.0,0.0,0.0,0.0,0.0,0.0,0.0,0.0,0.0,0.0,0.0,0.0,0.0,0.0,0.0,4.7617,4.7838,0.0,4.7977,4.8172,4.8306,4.8306,4.8306,4.8306,4.8306,4.882,4.9132,4.9132,4.9646,5.0068,5.0362,5.1169,5.172,5.1995,5.2821,5.3185,5.3185,5.3185,5.3185,5.3185,5.3185,5.3185,5.3185,5.2915,5.2809,5.2769,5.2531,5.244,5.244,5.244,5.2595,5.2769,5.2549,5.2617,5.2769,5.2527,5.2617,5.2809,5.2809,5.2999,5.3185,5.3185,5.3185,5.3185,5.3185,5.3185,5.3185,5.3185,5.3185,5.3185,5.3185,5.3185,5.2894,5.1775,5.0912,5.0105,4.9279,4.8673,4.8489,4.904,4.9132,4.9315,4.9848,4.9921,5.0031,5.0343,5.0362,5.049,5.0784,5.0802,5.1132,5.194,5.1995,5.2362,5.3167,5.3185,5.3185,5.3185,5.3185,5.3185,0.0,0.0,0.0,0.0,0.0,0.0,0.0,0.0,0.0,0.0,0.0,0.0,0.0,0.0,0.0,0.0,0.0,0.0,0.0,0.0,0.0,0.0,0.0,0.0,0.0,0.0,4.8306,4.8306,4.8306,4.8306,4.8306,4.8306,4.8416,4.8728,4.8728,4.8857,4.9132,4.9682,4.9994,4.9994,5.0508,5.093,5.1206,5.172,5.2142,5.2417,5.2949,5.3185,5.3185,5.3185,5.3185,5.3185,5.3185,5.3185,5.3185,5.3185,5.3185,5.3185,5.3185,5.3185,5.3185,5.3185,5.3185,5.3185,5.3185,5.3185,5.3185,5.3185,5.3185,5.3185,5.3185,5.3185,5.3185,5.3185,5.3185,5.3185,5.3185,5.3185,5.3185,5.3185,5.3185,5.3185,5.3185,5.3185,5.3041,5.2509,5.1756,5.0949,5.0123,4.9536,4.9334,4.9903,4.9994,5.0196,5.0729,5.0802,5.0894,5.1187,5.1206,5.1316,5.1591,5.161,5.1848,5.2362,5.2399,5.2637,5.3167,5.3185,5.3185,5.3185,5.3185,5.3185,5.3185,0.0,0.0,0.0,0.0,0.0,0.0,0.0,0.0,0.0,0.0,0.0,0.0,0.0,0.0,0.0,0.0,0.0,0.0,0.0,0.0,0.0,0.0,0.0,4.8434,4.8306,4.8324,4.8343,4.8343,4.8361,4.8379,4.8379,4.8728,4.9574,4.9647,4.9996,5.0765,5.082,5.0839,5.0839,5.0857,5.1242,5.2013,5.2032,5.2435,5.3185,5.3185,5.3185,5.3185,5.3185,5.3185,5.3185,5.3185,5.3185,5.3185,5.3185,5.3185,5.3185,5.3185,5.3185,5.3185,5.3185,5.3185,5.3185,5.3185,5.3185,5.3185,5.3185,5.3185,5.3185,5.3185,5.3185,5.3185,5.3185,5.3185,5.3185,5.3185,5.3185,5.3185,5.3185,5.3185,5.3185,5.3185,5.3185,5.3185,5.3185,5.2564,5.1775,5.0986,5.082,5.082,5.0839,5.0839,0.0,5.0875,5.0875,5.1169,5.194,5.2032,5.2344,5.3133,5.3185,5.3185,5.3185,5.3185,5.3185,5.3185,5.3185,5.3185,5.3185,5.3185,5.3185,5.3185,0.0,0.0,0.0,0.0,0.0,0.0,0.0,0.0,0.0,0.0,0.0,0.0,0.0,0.0,0.0,0.0,0.0,0.0,0.0,0.0,0.0,0.0,5.0618,4.86,4.8306,4.8526,4.9169,4.9187,4.9426,5.005,5.0105,5.0215,5.0453,5.0472,5.0563,5.0802,5.1353,5.1665,5.1665,5.2252,5.2656,5.2876,5.2876,5.2986,5.3185,5.3185,5.3185,5.3185,5.3185,5.3185,5.3185,5.3185,5.3185,5.3185,5.3185,5.3185,5.3185,5.3185,5.3185,5.3185,5.3185,5.3185,5.3185,5.3185,5.3185,5.3185,5.3185,5.3185,5.3185,5.3185,5.3185,5.3185,5.3185,5.3185,5.3185,5.3185,5.3185,5.3185,5.3185,5.3185,5.3185,5.3185,5.3185,5.3185,5.3185,5.3023,5.2619,5.1811,5.1187,5.1004,5.1573,5.1665,0.0,5.2472,5.2546,5.2637,5.2858,5.2876,5.2968,5.3167,5.3185,5.3185,5.3185,5.3185,5.3185,5.3185,5.3185,5.3185,5.3185,5.3185,5.3185,0.0,0.0,0.0,0.0,0.0,0.0,0.0,0.0,0.0,0.0,0.0,0.0,0.0,0.0,0.0,0.0,0.0,0.0,0.0,0.0,0.0,0.0,5.1995,5.1371,4.9609,4.9352,4.9536,5.0031,5.0068,5.0233,5.0747,5.0802,5.0949,5.1279,5.1298,5.1444,5.1793,5.2252,5.2509,5.2509,5.2968,5.3185,5.3185,5.3185,5.3185,5.3185,5.3185,5.3185,5.3185,5.3185,5.3185,0.0,5.3185,5.3185,5.3185,5.3185,5.3185,0.0,0.0,0.0,0.0,0.0,5.3185,5.3185,5.3185,5.3185,5.3185,5.3185,5.3185,5.3185,5.3185,5.3185,5.3185,5.3185,5.3185,5.3185,5.3185,5.3185,5.3185,5.3185,5.3185,5.3185,5.3185,5.3185,5.3185,5.3185,5.3185,0.0,5.2582,5.2105,5.1958,5.2435,5.2509,5.2674,5.3151,5.3185,5.3185,5.3185,5.3185,5.3185,5.3185,5.3185,0.0,0.0,0.0,5.3185,5.3185,5.3185,0.0,0.0,0.0,5.3185,5.3185,0.0,0.0,0.0,5.3185,5.3185,0.0,0.0,0.0,0.0,0.0,0.0,0.0,0.0,0.0,0.0,0.0,0.0,0.0,0.0,0.0,0.0,5.2142,5.1885,5.1169,5.1077,5.1041,5.0949,5.0949,5.0967,5.1059,5.1077,5.1371,5.2068,5.2142,5.2454,5.317,0.0,0.0,0.0,0.0,5.3185,5.3185,5.3185,5.324,5.3332,5.3332,5.339,5.3482,5.3482,5.3482,5.3482,5.3482,5.3482,5.3482,5.3482,5.3427,5.3335,5.3243,5.3185,5.3185,5.3185,5.3185,5.3185,5.3185,0.0,0.0,5.3185,5.3185,5.3185,5.3185,5.3185,5.3185,5.3185,5.3185,5.3185,5.3185,5.3185,5.3185,5.3185,5.3185,5.3185,5.3185,5.3185,5.3185,5.3185,5.3185,5.3185,5.3185,5.3185,5.3185,5.3185,5.3185,5.3185,5.3185,5.3185,5.3185,5.3185,0.0,0.0,5.3185,5.3185,5.3185,5.3185,5.3185,5.3185,5.3185,5.3185,5.3185,5.3185,5.3185,5.3243,5.3332,5.3332,5.339,5.3482,5.3277,5.3185,0.0,0.0,0.0,0.0,0.0,0.0,0.0,0.0,0.0,0.0,0.0,0.0,0.0,0.0,0.0,5.3004,5.2968,5.2913,5.2766,5.2726,5.2509,5.1848,5.1756,5.2013,5.2674,5.2726,5.2803,5.2968,5.2968,5.3041,5.3185,5.3185,5.3185,5.3185,5.3185,5.3185,5.3185,5.3185,5.3537,5.4179,0.0,0.0,5.5133,5.5133,5.5133,5.5133,5.5133,5.5133,5.5133,5.5133,5.4748,5.4106,5.3463,5.3185,5.3185,5.3185,5.3185,5.3185,5.3185,5.3185,5.3185,5.3185,5.3185,5.3185,5.3185,5.3185,0.0,5.3185,5.3185,5.3185,5.3185,5.3185,5.3185,5.3185,5.3185,5.3185,5.3185,5.3185,5.3185,5.3185,5.3185,5.3185,5.3185,5.3185,5.3185,5.3185,5.3185,5.3185,5.3185,5.3185,5.3185,5.3185,5.3185,5.3185,5.3185,5.3185,5.3185,5.3185,5.3185,5.3185,5.3185,5.3185,5.3185,5.3185,5.3185,5.3537,5.4179,5.4179,5.4491,5.5097,5.3812,5.3185,0.0,0.0,0.0,0.0,0.0,0.0,0.0,0.0,0.0,0.0,0.0,5.3185,0.0,0.0,5.3185,5.3185,5.3185,5.3185,5.3185,5.3185,5.3059,5.2656,5.2601,5.2766,5.317,5.3185,5.3185,5.3185,5.3185,5.3185,5.3185,5.3185,5.3185,5.3185,5.3185,5.339,5.3812,5.3812,5.4197,5.4987,5.4987,5.5207,5.5614,5.5614,5.5614,5.5614,5.5614,5.5614,5.5614,5.5614,5.5354,5.495,5.4564,5.3922,5.3185,5.3185,5.3185,5.3185,5.3185,5.3185,5.3185,5.3185,5.3185,5.3185,5.3185,5.3185,5.3185,5.3185,5.3185,5.3185,5.3185,5.3185,5.3185,5.3185,5.3185,5.3185,5.3185,5.3185,5.3185,5.3185,5.3185,5.3185,5.3185,5.3185,5.3185,5.3185,5.3185,5.3185,5.3185,5.3185,5.3185,5.3185,5.3185,5.3185,5.3185,5.3185,5.3185,5.3185,5.3185,5.339,5.3794,5.3812,5.3995,5.4399,5.4399,5.4601,5.4987,5.4987,5.5207,5.5596,5.4785,5.4399,0.0,0.0,0.0,0.0,0.0,0.0,0.0,0.0,5.3185,5.3185,5.3185,5.3185,5.3185,5.3185,5.3185,5.3185,5.3185,5.3185,5.3185,5.3185,5.3185,5.3185,5.3185,5.3185,5.3185,5.3185,5.3185,5.3185,5.3185,5.3185,5.3185,5.3185,5.3185,5.3185,5.3353,5.3739,5.4399,5.4564,5.5042,5.5831,5.5831,5.5904,5.6073,5.6073,5.6073,5.6073,5.6073,5.6073,5.6033,5.5886,5.5831,5.5812,5.5647,5.4803,5.3665,5.35,5.3424,5.3427,5.324,5.3185,5.3185,5.3185,5.3185,5.3185,5.3185,5.3185,5.3185,5.3185,5.3185,5.3185,5.3185,5.3185,5.3185,5.3185,5.3185,5.3185,5.3185,5.3185,5.3185,5.3185,5.3185,5.3185,5.3185,5.3185,5.3185,5.3185,5.3185,5.3185,5.3185,5.3185,5.3185,5.3185,5.3185,5.3185,5.3185,5.3332,5.3424,5.3424,5.3592,5.3959,5.4601,5.4638,5.4932,5.5574,5.5614,5.5688,5.5831,5.5831,5.5904,5.6073,5.6073,5.5908,4.8287,4.8857,4.9463,4.9463,5.0675,5.1867,0.0,0.0,5.3185,5.3185,5.3185,5.3185,5.3185,5.3185,5.3185,5.3185,5.3185,5.3185,5.3185,5.3185,5.3185,5.3185,5.3185,5.3185,5.3185,5.3185,5.3185,5.3185,5.3185,5.3185,5.3185,5.3185,5.3185,5.3185,5.3904,5.4308,5.4399,5.5097,5.5868,5.6675,5.6675,5.7042,5.7721,5.7721,5.7721,5.7721,5.7721,5.7721,5.7685,5.6969,5.6675,5.6602,5.5868,5.5504,5.5225,5.4528,5.4271,5.4161,5.3463,5.3185,5.3185,5.3185,5.3185,5.3185,5.3185,5.3185,5.3185,5.3185,5.3185,5.3185,5.3185,5.3185,5.3185,5.3185,5.3185,5.3185,5.3185,5.3185,5.3185,5.3185,5.3185,5.3185,5.3185,5.3185,5.3185,5.3185,5.3185,5.3185,5.3185,5.3185,5.3185,5.3185,5.3185,5.3185,5.3185,5.3849,5.4271,5.4271,5.4932,5.5354,5.5467,5.5464,5.55,5.5614,5.5614,5.5941,5.6675,5.6675,5.7042,5.7721,5.7721,5.6969,4.9627,5.0013,0.0,0.0,5.1151,5.1995,5.1995,5.2619,5.3185,5.3185,5.3185,5.3185,5.3185,5.3185,5.3353,0.0,5.3904,5.4069,5.4528,5.4601,5.4601,5.4601,5.4601,5.4234,5.3277,5.3185,5.3185,5.3185,5.3185,5.3185,5.3185,5.3647,5.3904,5.3904,5.4675,5.5317,5.5794,5.6124,5.6693,5.7501,5.7501,5.7666,5.7997,5.7997,5.7997,5.7997,5.7997,5.7997,5.796,5.7648,5.7501,5.7464,5.7134,5.6987,5.684,5.5556,5.5097,5.5042,5.4711,5.4601,5.4528,5.4051,5.3904,5.3812,5.3332,5.3185,5.3185,5.3185,5.3185,5.3185,5.3185,5.3185,5.3185,5.3185,5.3185,5.3185,5.3185,5.3185,5.3185,5.3185,5.3185,5.3185,5.3185,5.3185,5.3185,5.3185,5.3185,5.3185,5.3185,5.3185,5.339,5.3849,5.3904,5.4087,5.4564,5.4913,5.5097,5.5097,5.5409,5.5794,5.6271,5.6308,5.651,5.6987,5.6987,5.7152,5.7501,5.7501,5.7666,5.7997,5.7997,5.7629,5.0637,0.0,0.0,5.1132,5.1738,5.2325,5.2325,5.2784,5.3185,5.3185,5.339,5.3537,5.3537,5.372,5.4051,5.4638,5.473,5.4932,5.5522,5.5614,5.5614,5.5614,5.5614,5.5133,5.3977,5.3867,5.3867,5.3867,5.3867,5.3867,5.3867,5.4418,5.473,5.473,5.55,5.6198,5.6804,5.7024,5.7428,5.7997,5.7997,5.7997,5.7997,5.7997,5.7997,5.7997,5.7997,5.7997,5.7997,5.7997,5.7997,5.7997,5.7997,5.7997,5.785,5.6675,5.6106,5.5886,5.5688,5.5614,5.5482,5.4913,5.473,5.462,5.4051,5.3867,5.3867,5.3867,5.3867,5.3867,5.3867,5.3867,5.3867,5.3867,5.3867,5.3867,5.3867,5.3867,5.3867,5.3867,5.3867,5.3867,5.3867,5.3867,5.3867,5.3867,5.3867,5.3702,5.3259,5.339,5.3849,5.4638,5.473,5.4968,5.5559,5.5794,5.5923,5.5923,5.6124,5.651,5.7116,5.7134,5.7409,5.7997,5.7997,5.7997,5.7997,5.7997,5.7997,5.7997,5.7997,5.7997,0.0,0.0,5.1958,5.1958,5.2564,5.317,5.317,5.3167,5.3185,5.3185,5.383,5.4363,5.4363,5.4987,5.5559,5.5556,5.5556,5.5578,5.5614,5.5614,5.5614,5.5614,5.5614,5.5596,0.0,5.5519,5.5519,5.5519,5.5519,5.5519,5.5519,5.5559,5.5556,5.5556,5.6345,5.6785,5.6804,5.7574,5.7978,5.7997,5.7997,5.7997,5.7997,5.7997,5.7997,5.7997,5.7997,5.7997,5.7997,5.7997,5.7997,5.7997,5.7997,5.7997,5.7997,5.7941,5.7428,5.6657,5.5868,5.5614,5.5614,5.5578,5.5556,5.5556,5.5519,5.5519,5.5519,5.5519,5.5519,5.5519,5.5519,5.5519,5.5519,5.5519,5.5519,5.5519,5.5519,5.5519,5.5519,5.5519,5.5519,5.5519,5.5519,5.5519,5.5519,5.5519,5.5519,5.495,5.3387,5.3885,5.4675,5.5464,5.5556,5.5578,5.5614,5.6326,5.6767,5.6767,5.7501,5.7941,5.796,5.796,5.7978,5.7997,5.7997,5.7997,5.7997,5.7997,5.7997,5.7997,5.7997,5.7997,0.0,0.0,5.2803,5.2803,5.3004,5.3185,5.3185,5.3185,5.3353,5.3904,5.4216,5.4564,5.5097,5.5409,5.5757,5.6308,5.64,5.6583,5.7116,5.7189,5.7189,5.7189,5.7189,0.0,0.0,0.0,0.0,5.5614,5.5614,5.5614,5.5614,5.6106,5.64,5.64,5.7171,5.7593,5.7593,5.785,5.7997,5.7997,5.7997,5.7997,5.7997,5.7997,5.7997,5.7997,5.7997,5.7997,5.7997,5.7997,5.7997,5.7997,5.7997,5.7997,5.7997,5.7997,5.7831,5.7556,5.7281,5.7189,5.7097,5.6565,5.64,5.6308,5.5757,5.5614,5.5614,5.5614,5.5614,5.5614,5.5614,5.5614,5.5614,5.5614,5.5614,5.5614,5.5614,5.5614,5.5614,5.5614,5.5614,5.5614,5.5614,5.5614,5.5614,5.5614,5.5614,5.539,5.4858,5.5023,5.55,5.6308,5.64,5.6602,5.7152,5.7446,5.7593,5.7593,5.785,5.7997,5.7997,5.7997,5.7997,5.7997,5.7997,5.7997,5.7997,5.7997,5.7997,5.7997,5.7997,5.7997,0.0,5.3185,5.3185,5.3185,5.3185,5.3277,5.3573,5.3628,5.3867,5.4656,5.506,5.5427,5.5923,5.6253,5.662,5.7152,5.7226,5.7409,5.7923,5.7997,5.7997,5.7997,5.7997,5.7997,0.0,0.0,0.0,5.6455,5.6455,5.6455,5.6455,5.695,5.7226,5.7226,5.7721,5.7997,5.7997,5.7997,5.7997,5.7997,5.7997,5.7997,5.7997,5.7997,5.7997,5.7997,5.7997,5.7997,5.7997,5.7997,5.7997,5.7997,5.7997,5.7997,5.7997,5.7997,5.7997,5.7997,5.7997,5.7997,5.7905,5.7409,5.7226,5.7134,5.6602,5.6455,5.6455,5.6455,5.6455,5.6455,5.6455,5.6455,5.6455,5.6455,5.6455,5.6455,5.6455,5.6455,5.6455,5.6455,5.6455,5.6455,5.6455,5.6455,5.6455,5.6455,5.6455,5.6345,5.6069,5.6033,5.6345,5.7152,5.7226,5.7446,5.796,5.7997,5.7997,5.7997,5.7997,5.7997,5.7997,5.7997,5.7997,5.7997,5.7997,5.7997,5.7997,5.7997,5.7997,5.7997,5.7726,5.7613,5.3185,5.3185,5.3185,5.3185,5.3222,5.3463,5.4234,5.4436,5.4693,5.5482,5.6271,5.6822,0.0,0.0,5.7997,5.7997,5.7997,5.7997,5.7997,5.7997,5.7997,0.0,0.0,0.0,0.0,0.0,0.0,5.7997,0.0,5.7997,5.7997,5.7997,5.7997,5.7997,5.7997,5.7997,5.7997,5.7997,5.7997,5.7997,5.7997,5.7997,5.7997,5.7997,5.7997,5.7997,5.7997,5.7997,5.7997,5.7997,5.7997,5.7997,5.7997,5.7997,5.7997,5.7997,5.7997,5.7997,5.7997,5.7997,5.7997,5.7997,5.7997,5.7997,5.7997,5.7997,5.7997,5.7997,5.7997,5.7997,5.7997,5.7997,5.7997,5.7997,5.7997,5.7997,5.7997,5.7997,5.7997,5.7997,5.7997,5.7997,5.7997,5.7997,5.7997,5.7997,5.7997,5.7721,5.6969,5.6877,5.7152,5.7923,5.7997,5.7997,5.7997,5.7997,5.7997,5.7997,5.7997,5.7997,5.7997,5.7997,5.7997,5.7997,5.7997,5.7973,5.7932,5.7932,5.7909,5.7862,5.7166,5.6843,5.3185,5.3185,5.3185,5.3185,5.3665,5.4161,5.4344,5.4858,5.5519,5.6326,5.6657,5.6987,0.0,0.0,0.0,5.7997,5.7997,0.0,5.7997,5.7997,0.0,5.7997,0.0,5.7997,5.7997,5.7997,0.0,0.0,5.7997,5.7997,5.7997,5.7997,5.7997,5.7997,5.7997,5.7997,5.7997,5.7997,5.7997,5.7997,5.7997,5.7997,5.7997,5.7997,5.7997,5.7997,5.7997,5.7997,5.7997,5.7997,5.7997,5.7997,5.7997,5.7997,5.7997,5.7997,5.7997,5.7997,5.7997,5.7997,5.7997,5.7997,5.7997,5.7997,5.7997,5.7997,5.7997,5.7997,5.7997,5.7997,5.7997,5.7997,5.7997,5.7997,5.7997,5.7997,5.7997,5.7997,5.7997,5.7997,5.7997,5.7997,5.7997,5.7997,5.7997,5.7997,5.7997,5.7923,5.7721,5.7685,5.7776,5.7978,5.7997,5.7997,5.7997,5.7997,5.7997,5.7997,5.7997,5.7997,5.7997,5.7997,5.7997,5.7997,5.7997,5.7726,5.7184,5.7184,5.6876,5.6277,5.6087,5.6022,5.3185,5.3185,5.3277,5.3647,5.4069,5.4583,5.5299,5.5794,5.6345,5.7171,5.7336,0.0,0.0,0.0,0.0,0.0,0.0,0.0,5.7997,5.7997,5.7997,0.0,5.7997,0.0,5.7997,5.7997,5.7997,0.0,5.7997,5.7997,5.7997,5.7997,5.7997,5.7997,5.7997,5.7997,5.7997,5.7997,5.7997,5.7997,5.7997,5.7997,5.7997,5.7997,5.7997,5.7997,0.0,5.7997,5.7997,5.7997,5.7997,5.7997,5.7997,5.7997,5.7997,5.7997,5.7997,5.7997,5.7997,5.7997,5.7997,5.7997,5.7997,5.7997,5.7997,5.7997,5.7997,5.7997,5.7997,5.7997,5.7997,5.7997,5.7997,5.7997,5.7997,5.7997,5.7997,5.7997,5.7997,5.7997,5.7997,5.7997,5.7997,5.7997,5.7997,5.7997,5.7997,5.7997,5.7997,5.7997,5.7997,5.7997,5.7997,5.7997,5.7997,5.7997,5.7997,5.7997,5.7997,5.7997,5.7997,5.7997,5.7839,5.7522,5.7516,5.7141,5.6367,5.6367,5.6132,5.5678,5.5379,5.5203,5.3185,5.3277,5.3537,5.4234,5.4564,5.5078,5.6492,5.6895,5.7171,5.785,0.0,5.7997,5.7997,5.7997,5.7997,5.7997,0.0,5.7997,5.7997,5.7997,5.7997,5.7997,5.7997,5.7997,5.7997,5.7997,5.7997,5.7997,5.7997,5.7997,5.7997,5.7997,5.7997,5.7997,5.7997,5.7997,5.7997,5.7997,5.7997,5.7997,5.7997,5.7997,5.7997,5.7997,5.7997,5.7997,5.7997,0.0,5.7997,5.7997,5.7997,5.7997,5.7997,5.7997,5.7997,5.7997,5.7997,5.7997,5.7997,5.7997,5.7997,5.7997,5.7997,5.7997,5.7997,5.7997,5.7997,5.7997,5.7997,5.7997,5.7997,5.7997,5.7997,5.7997,5.7997,5.7997,5.7997,5.7997,5.7997,5.7997,5.7997,5.7997,5.7997,5.7997,5.7997,5.7997,5.7997,5.7997,5.7997,5.7997,5.7997,5.7997,5.7997,5.7997,5.7997,5.7997,5.7997,5.7997,5.7997,5.7941,5.785,5.7854,5.751,5.6768,5.6737,5.634,5.5535,5.5535,5.5506,5.5379,5.4757,5.4451,5.3185,5.3702,5.4234,5.4363,5.5409,5.6473,5.6748,5.7317,0.0,0.0,0.0,5.7997,5.7997,5.7997,0.0,5.7997,0.0,0.0,0.0,0.0,5.7997,0.0,0.0,0.0,0.0,0.0,0.0,0.0,0.0,5.7997,5.7997,5.7997,5.7997,5.7997,5.7997,5.7997,5.7997,5.7997,5.7997,5.7997,5.7997,5.7997,5.7997,5.7997,5.7997,5.7997,5.7997,0.0,5.7997,5.7997,5.7997,5.7997,5.7997,5.7997,5.7997,5.7997,5.7997,5.7997,5.7997,5.7997,5.7997,5.7997,5.7997,5.7997,5.7997,5.7997,5.7997,5.7997,5.7997,5.7997,5.7997,5.7997,5.7997,5.7997,5.7997,5.7997,5.7997,5.7997,5.7997,5.7997,5.7997,5.7997,5.7997,5.7997,5.7997,5.7997,5.7997,5.7997,5.7997,5.7997,5.7997,5.7997,5.7997,5.7997,5.7997,5.7997,5.7997,5.7997,5.7997,5.7703,5.7042,5.7055,5.6707,5.5938,5.5919,5.5524,5.4787,5.4787,5.4499,5.3865,5.375,5.3701,5.3185,5.3794,5.4491,5.4913,5.5923,5.6914,5.7336,0.0,0.0,0.0,5.7997,5.7997,5.7997,0.0,0.0,0.0,0.0,0.0,0.0,0.0,0.0,0.0,0.0,0.0,0.0,0.0,0.0,0.0,0.0,5.7997,5.7997,5.7997,5.7997,5.7997,5.7997,5.7997,5.7997,5.7997,5.7997,5.7997,5.7997,5.7997,5.7997,5.7997,5.7997,5.7997,5.7997,0.0,5.7997,5.7997,5.7997,5.7997,5.7997,5.7997,5.7997,5.7997,5.7997,5.7997,5.7997,5.7997,5.7997,5.7997,5.7997,5.7997,5.7997,5.7997,5.7997,5.7997,5.7997,5.7997,5.7997,5.7997,5.7997,5.7997,5.7997,5.7997,5.7997,5.7997,5.7997,5.7997,5.7997,5.7997,5.7997,5.7997,5.7997,5.7997,5.7997,5.7997,5.7997,5.7997,5.7997,5.7997,5.7997,5.7997,5.7997,5.7997,5.7813,5.7409,5.7373,5.6868,5.5707,5.5703,5.5335,5.4563,5.4565,5.4374,5.4027,5.4027,5.3865,5.3501,5.3501,5.3501,5.2959,5.3778,5.4803,5.5427,5.6326,5.7226,5.785,5.7997,0.0,0.0,5.7997,5.7997,5.7997,0.0,0.0,0.0,0.0,0.0,0.0,0.0,0.0,0.0,0.0,0.0,0.0,0.0,0.0,0.0,0.0,0.0,5.7997,5.7997,5.7997,5.7997,5.7997,5.7997,5.7997,5.7997,5.7997,5.7997,5.7997,5.7997,5.7997,5.7997,5.7997,5.7997,5.7997,0.0,0.0,5.7997,5.7997,5.7997,5.7997,5.7997,5.7997,5.7997,5.7997,5.7997,5.7997,5.7997,5.7997,5.7997,5.7997,5.7997,5.7997,5.7997,5.7997,5.7997,5.7997,5.7997,5.7997,5.7997,5.7997,5.7997,5.7997,5.7997,5.7997,5.7997,5.7997,5.7997,5.7997,5.7997,5.7997,5.7997,5.7997,5.7997,5.7997,5.7997,5.7997,5.7997,5.7923,5.7758,5.7905,5.7923,5.7758,5.7606,5.7188,5.6383,5.6194,5.551,5.4165,5.4122,5.3779,5.3008,5.3172,5.3235,5.3247,5.3416,5.3501,5.3501,5.3501,5.3501,5.2201,5.3818,5.55,5.5596,5.6748,5.7905,5.7978,0.0,0.0,5.7997,5.7997,5.7997,5.7997,5.7997,0.0,0.0,0.0,5.7997,0.0,0.0,0.0,0.0,0.0,0.0,0.0,0.0,0.0,0.0,0.0,0.0,5.7997,5.7997,5.7997,5.7997,5.7997,5.7997,5.7997,5.7997,5.7997,5.7997,5.7997,5.7997,5.7997,5.7997,5.7997,5.7997,5.7997,0.0,0.0,5.7997,5.7997,5.7997,5.7997,5.7997,5.7997,5.7997,5.7997,5.7997,5.7997,5.7997,5.7997,5.7997,5.7997,5.7997,5.7997,5.7997,5.7997,5.7997,5.7997,5.7997,5.7997,5.7997,5.7997,5.7997,5.7997,5.7997,5.7997,5.7997,5.7997,5.7997,5.7997,5.7997,5.7997,5.7997,5.7997,5.7997,5.7997,5.7997,5.7997,5.7997,5.7721,5.6987,5.7556,5.7703,5.6969,5.6333,5.5654,5.4852,5.4156,5.3416,5.2546,5.2572,5.2248,5.1436,5.2084,5.2399,5.2418,5.3145,5.3501,5.3501,5.3501,5.3501,5.1976,5.3476,5.5052,5.5507,5.6804,5.7997,5.7997,0.0,5.7997,5.7997,5.7997,5.7997,5.7997,5.7997,5.7997,0.0,0.0,0.0,0.0,0.0,0.0,0.0,0.0,0.0,0.0,0.0,0.0,0.0,0.0,0.0,5.7997,5.7997,5.7997,5.7997,5.7997,5.7997,5.7997,5.7997,5.7997,5.7997,5.7997,5.7997,5.7997,5.7997,5.7997,5.7997,5.7997,0.0,0.0,5.7997,5.7997,5.7997,5.7997,5.7997,5.7997,5.7997,5.7997,5.7997,5.7997,5.7997,5.7997,5.7997,5.7997,5.7997,5.7997,5.7997,5.7997,5.7997,5.7997,5.7997,5.7997,5.7997,5.7997,5.7997,5.7997,5.7997,5.7997,5.7997,5.7997,5.7997,5.7997,5.7997,5.7997,5.7997,5.7997,5.7997,5.7997,5.7997,5.7997,5.7574,5.6997,5.6279,5.6854,5.6795,5.5564,5.5233,5.4532,5.3302,5.2945,5.2217,5.0979,5.095,5.0833,5.053,5.1259,5.186,5.23,5.3112,5.3501,5.3501,5.3501,5.3501,5.1618,5.2966,5.4303,5.5056,5.6455,5.7648,0.0,0.0,5.7997,5.7997,5.7997,5.7997,5.7997,5.7997,5.7997,5.7997,0.0,5.7997,0.0,0.0,0.0,0.0,0.0,0.0,0.0,0.0,0.0,0.0,0.0,0.0,5.7997,5.7997,5.7997,5.7997,5.7997,5.7997,5.7997,5.7997,5.7997,5.7997,5.7997,5.7997,5.7997,5.7997,5.7997,5.7997,5.7997,0.0,0.0,5.7997,5.7997,5.7997,5.7997,5.7997,5.7997,5.7997,5.7997,5.7997,5.7997,5.7997,5.7997,5.7997,5.7997,5.7997,5.7997,5.7997,5.7997,5.7997,5.7997,5.7997,5.7997,5.7997,5.7997,5.7997,5.7997,5.7997,5.7997,5.7997,5.7997,5.7997,5.7997,5.7997,5.7997,5.7997,5.7927,5.7703,5.7502,5.7271,5.7043,5.6327,5.5559,5.4842,5.519,5.5045,5.4026,5.3744,5.3033,5.1686,5.1433,5.0843,4.9739,4.9693,4.9731,4.9763,5.0727,5.1471,5.1978,5.301,5.3501,5.3501,5.3501,5.3501,5.0903,5.219,5.3489,5.4232,5.5629,5.6822,0.0,0.0,5.7997,5.7997,5.7997,5.7997,5.7997,5.7997,5.7997,5.7997,5.7997,0.0,0.0,0.0,0.0,0.0,0.0,0.0,0.0,0.0,0.0,0.0,0.0,0.0,5.7997,5.7997,5.7997,5.7997,5.7997,5.7997,5.7997,5.7997,5.7997,5.7997,5.7997,5.7997,5.7997,5.7997,5.7997,0.0,0.0,0.0,0.0,5.7997,5.7997,5.7997,5.7997,5.7997,5.7997,5.7997,5.7997,5.7997,5.7997,5.7997,5.7997,5.7997,5.7997,5.7997,5.7997,5.7997,5.7997,5.7997,5.7997,5.7997,5.7997,5.7997,5.7997,5.7997,5.7997,5.7997,5.7997,5.7997,5.7997,5.7997,5.7997,5.7997,5.7997,5.7997,5.775,5.7015,5.6295,5.5551,5.4748,5.3992,5.3229,5.2414,5.2343,5.2343,5.2343,5.1707,5.0968,5.0085,4.9406,4.9032,4.9001,4.9001,4.9001,4.9018,5.0456,5.1185,5.1202,5.2756,5.3501,5.3501,5.3501,5.3501,5.0174,5.1467,5.2773,5.3489,5.4825,5.5978,5.5978,0.0,5.6345,5.6345,5.6804,5.7189,5.7189,5.7629,5.7997,5.7997,5.7997,0.0,0.0,0.0,0.0,0.0,0.0,0.0,0.0,0.0,0.0,0.0,0.0,0.0,5.7997,5.7997,5.7997,5.7997,5.7997,5.7997,5.7997,5.7997,5.7997,5.7997,5.7997,5.7997,5.7997,5.7997,5.7997,0.0,0.0,0.0,0.0,5.7997,5.7997,5.7997,5.7997,5.7997,5.7997,5.7997,5.7997,5.7997,5.7997,5.7997,5.7997,5.7997,5.7997,5.7997,5.7997,5.7997,5.7997,5.7997,5.7997,5.7997,5.7997,5.7997,5.7997,5.7997,5.7997,5.7997,5.7997,5.7997,5.7997,5.7997,5.7997,5.7839,5.7351,5.7234,5.6971,5.6186,5.5454,5.4884,5.4621,5.3477,5.2403,5.1696,5.1088,5.0746,5.0746,5.0539,5.0097,4.9346,4.9107,4.9001,4.9001,4.9001,4.9001,4.9001,5.0456,5.1185,5.1185,5.2756,5.3501,5.3501,5.3501,5.3501,0.0,5.0701,5.1652,5.2599,5.3816,0.0,0.0,0.0,5.5614,5.5614,5.5996,5.6436,5.6748,5.7207,5.7648,5.7941,0.0,0.0,0.0,0.0,0.0,0.0,0.0,0.0,0.0,0.0,0.0,0.0,0.0,0.0,5.7997,5.7997,5.7997,5.7997,5.7997,5.7997,5.7997,5.7997,5.7997,5.7997,5.7997,5.7997,5.7997,5.7997,5.7997,0.0,0.0,0.0,0.0,5.7997,5.7997,5.7997,5.7997,5.7997,5.7997,5.7997,5.7997,5.7997,5.7997,5.7997,5.7997,5.7997,5.7997,5.7997,5.7997,5.7997,5.7997,5.7997,5.7997,5.7997,5.7997,5.7997,5.7997,5.7997,5.7997,5.7997,5.7997,5.7997,5.7997,5.7997,5.7997,5.7774,5.7015,5.6912,5.6429,5.5078,5.4231,5.3559,5.2962,5.1806,5.0904,5.0491,4.9943,4.9622,4.9622,4.9622,4.9432,4.9032,4.9001,4.9001,4.9001,4.9001,4.9001,4.9001,5.0185,5.093,5.1185,5.2756,5.3501,5.3501,5.3501,5.3501,0.0,0.0,0.0,0.0,0.0,0.0,0.0,0.0,0.0,5.5449,5.5522,5.5831,5.6583,5.6822,5.7134,0.0,0.0,0.0,0.0,0.0,0.0,0.0,0.0,0.0,0.0,0.0,0.0,0.0,0.0,0.0,5.7997,5.7997,5.7997,5.7997,5.7997,5.7997,5.7997,5.7997,5.7997,5.7997,5.7997,5.7997,5.7997,5.7997,5.7997,0.0,0.0,0.0,0.0,5.7997,5.7997,5.7997,5.7997,5.7997,5.7997,5.7997,5.7997,5.7997,5.7997,5.7997,5.7997,5.7997,5.7997,5.7997,5.7997,5.7997,5.7997,5.7997,5.7997,5.7997,5.7997,5.7997,5.7997,5.7997,5.7997,5.7997,5.7997,5.7973,5.7909,5.7909,5.7886,5.7613,5.6869,5.6739,5.5982,5.3766,5.2792,5.1778,5.0294,4.9458,4.9001,4.9001,4.9001,4.9001,4.9001,4.9001,4.9001,4.9001,4.9001,4.897,4.8892,4.897,4.897,4.8892,4.9731,5.0541,5.1302,5.2773,5.3467,5.3382,5.3382,5.3382,0.0,0.0,0.0,0.0,0.0,0.0,0.0,0.0,0.0,0.0,0.0,0.0,0.0,0.0,0.0,0.0,0.0,0.0,0.0,0.0,0.0,0.0,0.0,0.0,0.0,0.0,0.0,0.0,0.0,5.7997,5.7997,5.7997,5.7997,5.7997,5.7997,5.7997,5.7997,5.7997,5.7997,5.7997,5.7997,5.7997,5.7997,5.7997,5.7997,0.0,0.0,0.0,5.7997,5.7997,5.7997,5.7997,5.7997,5.7997,5.7997,5.7997,5.7997,5.7997,5.7997,5.7997,5.7997,5.7997,5.7997,5.7997,5.7997,5.7997,5.7997,5.7997,5.7997,5.7997,5.7997,5.7997,5.7997,5.7997,5.7997,5.7997,5.7997,5.7565,5.7159,5.7159,5.6677,5.6004,5.5279,5.5149,5.4557,5.2855,5.193,5.1136,5.0217,4.9458,4.9001,4.9001,4.9001,4.9001,4.9001,4.9001,4.9001,4.9001,4.9001,4.8688,4.795,4.8608,4.8656,4.7933,4.9917,5.1302,5.2046,5.3027,5.3076,5.2277,5.2277,5.2277,4.9001,4.9256,4.978,0.0,0.0,0.0,0.0,0.0,0.0,0.0,0.0,0.0,0.0,0.0,0.0,0.0,0.0,0.0,0.0,0.0,0.0,0.0,0.0,0.0,0.0,0.0,0.0,0.0,0.0,5.7997,5.7997,5.7997,5.7997,5.7997,5.7997,5.7997,5.7997,5.7997,5.7997,5.7997,5.7997,5.7997,5.7997,5.7997,5.7997,0.0,0.0,0.0,5.7997,5.7997,5.7997,5.7997,5.7997,5.7997,5.7997,5.7997,5.7997,5.7997,5.7997,5.7997,5.7997,5.7997,5.7997,5.7997,5.7997,5.7997,5.7997,5.7997,5.7997,5.7997,5.7997,5.7997,5.7997,5.7997,5.7997,5.7909,5.7565,5.7184,5.6791,5.6438,5.6004,5.5466,5.4726,5.4312,5.3566,5.2024,5.1183,5.0439,4.9678,4.9255,4.9001,4.9001,4.9001,4.9001,4.9001,4.8608,4.837,4.837,4.837,4.795,4.6986,4.7456,4.7489,4.6952,4.9326,5.0525,5.0479,5.2024,5.2241,5.1192,5.1192,5.1192,4.9001,4.9001,4.9346,5.0743,5.1086,5.1462,0.0,0.0,0.0,0.0,0.0,0.0,0.0,0.0,0.0,0.0,0.0,0.0,0.0,0.0,0.0,0.0,0.0,0.0,0.0,0.0,0.0,0.0,0.0,5.7997,5.7997,5.7997,5.7997,5.7997,5.7997,5.7997,5.7997,5.7997,5.7997,5.7997,5.7997,5.7997,5.7997,5.7997,5.7997,5.7997,0.0,0.0,5.7997,5.7997,5.7997,5.7997,5.7997,5.7997,5.7997,5.7997,5.7997,5.7997,5.7997,5.7997,5.7997,5.7997,5.7997,5.7997,5.7997,5.7997,5.7997,5.7997,5.7997,5.7997,5.7997,5.7909,5.7839,5.7839,5.775,5.7498,5.6843,5.6616,5.6358,5.5667,5.5437,5.5161,5.4544,5.3798,5.2857,5.1415,5.0574,4.9813,4.9086,4.9001,4.9001,4.9001,4.9001,4.894,4.8798,4.8047,4.7489,4.7205,4.7306,4.702,4.6244,4.6083,4.6095,4.6349,4.8486,4.9219,4.8461,5.0615,5.1155,5.0165,5.0165,5.0165,4.9001,4.9001,4.9346,5.0743,5.1086,5.1462,5.2872,5.3185,0.0,0.0,0.0,0.0,0.0,0.0,0.0,0.0,0.0,0.0,0.0,0.0,0.0,0.0,0.0,0.0,0.0,0.0,0.0,0.0,0.0,0.0,5.7997,5.7997,5.7997,5.7997,5.7997,5.7997,5.7997,5.7997,5.7997,5.7997,5.7997,5.7997,5.7997,5.7997,5.7997,5.7997,0.0,5.7997,5.7997,5.7997,5.7997,5.7997,5.7997,5.7997,5.7997,5.7997,5.7997,5.7997,5.7997,5.7997,5.7997,5.7997,5.7997,5.7997,5.7997,5.7997,5.7997,5.7997,5.7997,5.7997,5.7997,5.754,5.7083,5.7083,5.6545,5.6031,5.592,5.5379,5.4909,5.4787,5.4264,5.3816,5.3701,5.3006,5.2209,5.1319,5.0574,4.9813,4.9086,4.9001,4.9001,4.9001,4.9001,4.8688,4.7868,4.7688,4.6918,4.5337,4.5977,4.6349,4.6208,4.5431,4.5641,4.7029,4.8031,4.8721,4.9143,5.0149,5.0071,4.9069,4.9069,4.9069,4.9001,4.9001,4.9346,5.0743,5.1086,5.1462,5.2872,5.3185,0.0,0.0,0.0,0.0,0.0,0.0,0.0,0.0,0.0,0.0,0.0,0.0,0.0,0.0,0.0,0.0,0.0,0.0,0.0,0.0,0.0,0.0,5.7997,5.7997,5.7997,5.7997,5.7997,5.7997,5.7997,5.7997,5.7997,5.7997,5.7997,5.7997,5.7997,5.7997,5.7997,5.7997,0.0,5.7997,5.7997,5.7997,5.7997,5.7997,5.7997,5.7997,5.7997,5.7997,5.7997,5.7997,5.7997,5.7997,5.7997,5.7997,5.7997,5.7997,5.7997,5.7997,5.7997,5.7997,5.7997,5.7997,5.7997,5.7449,5.6912,5.6912,5.6286,5.5592,5.5173,5.4848,5.4482,5.4074,5.3717,5.3501,5.3501,5.2503,5.1606,5.1236,5.0236,4.9373,4.9035,4.8545,4.8257,4.8257,4.7803,4.7306,4.6884,4.6365,4.5706,4.4849,4.4706,4.4615,4.4615,4.4205,4.4526,4.5596,4.6901,4.759,4.7688,4.8927,4.8988,4.7988,4.7988,4.7988,4.9001,4.9001,4.9346,5.0743,0.0,5.1462,5.2872,5.3185,0.0,0.0,0.0,0.0,0.0,0.0,0.0,0.0,0.0,0.0,0.0,0.0,0.0,0.0,0.0,0.0,0.0,0.0,0.0,0.0,0.0,0.0,5.7997,5.7997,5.7997,5.7997,5.7997,5.7997,5.7997,5.7997,5.7997,5.7997,5.7997,5.7997,5.7997,5.7997,5.7997,5.7997,5.7997,5.7997,5.7997,5.7997,5.7997,5.7997,5.7997,5.7997,5.7997,5.7997,5.7997,5.7997,5.7997,5.7997,5.7997,5.7997,5.7997,5.7997,5.7997,5.7886,5.775,5.775,5.7613,5.7504,5.7684,5.7191,5.6589,5.6412,5.5741,5.5029,5.4451,5.4342,5.4186,5.3618,5.3501,5.3501,5.3501,5.2232,5.112,5.0924,4.9629,4.8576,4.837,4.7737,4.7273,4.7273,4.6643,4.6103,4.5905,4.5005,4.445,4.445,4.3747,4.329,4.329,4.329,4.3678,4.4526,4.5828,4.6514,4.6561,4.7814,4.8072,4.7309,4.7309,4.7309,4.9001,4.9001,4.9346,5.0743,5.1086,5.1462,5.2872,5.3185,0.0,5.3185,0.0,0.0,0.0,0.0,0.0,0.0,0.0,0.0,0.0,0.0,0.0,0.0,0.0,0.0,0.0,0.0,0.0,0.0,0.0,0.0,5.7997,5.7997,5.7997,5.7997,5.7997,5.7997,5.7997,5.7997,5.7997,5.7997,5.7997,5.7997,5.7997,5.7997,5.7997,5.7997,5.7997,5.7997,5.7997,5.7997,5.7997,5.7997,5.7997,5.7997,5.7997,5.7997,5.7997,5.7997,5.7997,5.7997,5.7997,5.7997,5.7997,5.7997,5.7997,5.7516,5.6989,5.6989,5.6447,5.6031,5.6791,5.6394,5.5592,5.4939,5.4186,5.3634,5.3584,5.3584,5.3551,5.3501,5.3501,5.3501,5.3501,5.2232,5.0891,5.0038,4.8662,4.7389,4.6523,4.6349,4.6279,4.6279,4.6244,4.5834,4.4983,4.3989,4.3409,4.3409,4.3329,4.329,4.329,4.329,4.3888,4.52,4.5342,4.6017,4.7234,4.7351,4.7381,4.7309,4.7309,4.7309,4.9001,4.9001,4.9243,5.0202,5.077,0.0,0.0,5.3185,5.3185,5.3185,5.4473,0.0,0.0,0.0,0.0,0.0,0.0,0.0,0.0,0.0,0.0,0.0,0.0,0.0,0.0,0.0,0.0,0.0,0.0,0.0,0.0,5.7997,5.7997,5.7997,5.7997,5.7997,5.7997,5.7997,5.7997,5.7997,5.7997,5.7997,5.7997,5.7997,5.7997,5.7997,5.7997,5.7997,5.7997,5.7997,5.7997,5.7997,5.7997,5.7997,5.7997,5.7997,5.7997,5.7997,5.7997,5.7997,5.7997,5.7997,5.7703,5.7327,5.7327,5.6773,5.6159,5.6159,5.592,5.5762,5.6059,5.5581,5.4969,5.4682,5.4059,5.3501,5.3501,5.3501,5.3501,5.3501,5.3501,5.3501,5.3501,5.1749,5.0224,4.985,4.8052,4.6592,4.6244,4.569,4.5322,4.5322,4.4765,4.4266,4.3888,4.3512,4.3469,4.3888,4.3514,4.329,4.329,4.3678,4.4377,4.5274,4.5723,4.6396,4.7309,4.7309,4.7309,4.7309,4.7309,4.7309,4.9001,4.9001,4.9152,4.9821,0.0,0.0,5.2576,5.302,5.3185,5.3185,5.4473,0.0,0.0,0.0,0.0,0.0,0.0,0.0,0.0,0.0,0.0,0.0,0.0,0.0,0.0,0.0,0.0,0.0,0.0,0.0,0.0,5.7997,5.7997,5.7997,5.7997,5.7997,5.7997,5.7997,5.7997,5.7997,5.7997,5.7997,5.7997,5.7997,5.7997,5.7997,5.7997,5.7997,5.7997,5.7997,5.7997,5.7997,5.7997,5.7997,5.7997,5.7997,5.7862,5.7637,5.7637,5.7498,5.7272,5.7272,5.6927,5.6518,5.6518,5.5966,5.535,5.535,5.5191,5.4999,5.4999,5.4787,5.4527,5.4328,5.3865,5.3501,5.3501,5.3501,5.3501,5.3501,5.3501,5.3382,5.3059,5.1205,4.9592,4.8975,4.7085,4.5654,4.5327,4.4706,4.4335,4.4335,4.3889,4.3604,4.3604,4.3798,4.4152,4.4601,4.4212,4.3917,4.3917,4.4392,4.493,4.5603,4.6082,4.6651,4.7309,4.7309,4.7309,4.7309,4.7309,4.7309,4.9001,4.9001,0.0,0.0,0.0,0.0,5.1928,5.2662,5.3185,5.3203,0.0,0.0,0.0,0.0,0.0,0.0,0.0,0.0,0.0,0.0,0.0,0.0,0.0,0.0,0.0,0.0,0.0,0.0,0.0,0.0,0.0,5.7997,5.7997,5.7997,5.7997,5.7997,5.7997,5.7997,5.7997,5.7997,5.7997,5.7997,5.7997,5.7997,5.7997,5.7997,5.7997,5.7997,5.7997,5.7997,5.7997,5.7997,5.7997,5.7997,5.7973,5.7973,5.7516,5.6887,5.6887,5.6367,5.5706,5.5706,5.5706,5.5678,5.5678,5.5173,5.4589,5.4589,5.4042,5.3501,5.3501,5.4042,5.4405,5.3668,5.3501,5.3501,5.3501,5.3501,5.3501,5.3501,5.3501,5.3144,5.2082,5.0702,4.9134,4.7184,4.5718,4.445,4.3448,4.329,4.329,4.3305,4.3888,4.4317,4.4332,4.4915,4.5289,4.5304,4.5304,4.5304,4.5289,4.5304,4.5618,4.6264,4.6294,4.6651,4.7309,4.7309,4.7309,4.7309,4.7309,4.7309,4.9001,0.0,0.0,0.0,0.0,0.0,0.0,5.233,0.0,0.0,0.0,0.0,0.0,0.0,0.0,0.0,0.0,0.0,0.0,0.0,0.0,0.0,0.0,0.0,0.0,0.0,0.0,0.0,0.0,0.0,0.0,5.7997,5.7997,5.7997,5.7997,5.7997,5.7997,5.7997,5.7997,5.7997,5.7997,5.7997,5.7997,5.7997,5.7997,5.7997,5.7997,5.7997,5.7997,5.7997,5.7684,5.7234,5.7234,5.6876,5.6385,5.6385,5.6223,5.6049,5.6049,5.5893,5.5706,5.5706,5.535,5.4939,5.4939,5.4405,5.3832,5.3832,5.3668,5.3501,5.3501,5.3668,5.3783,5.3551,5.3501,5.3501,5.3501,5.3501,5.3501,5.3501,5.2904,5.2277,5.1957,4.9952,4.8065,4.7029,4.5498,4.4157,4.3389,4.329,4.3469,4.3932,4.4197,4.4496,4.496,4.5185,4.5499,4.5992,4.6022,4.5798,4.5319,4.5753,4.6112,4.6279,4.677,4.7115,4.7309,4.7309,4.7309,4.7309,4.7309,4.7309,4.9001,0.0,0.0,0.0,0.0,0.0,0.0,0.0,0.0,0.0,0.0,0.0,0.0,0.0,0.0,0.0,0.0,0.0,0.0,0.0,0.0,0.0,0.0,0.0,0.0,0.0,0.0,0.0,0.0,0.0,0.0,5.7997,5.7997,5.7997,5.7997,5.7862,5.7565,5.7565,5.7407,5.708,5.708,5.708,5.7105,5.7407,5.7382,5.708,5.708,5.708,5.708,5.708,5.6832,5.6421,5.6421,5.6132,5.5706,5.5706,5.5506,5.5262,5.5262,5.5072,5.4835,5.4835,5.453,5.4154,5.4154,5.3865,5.3501,5.3501,5.3501,5.3501,5.3501,5.3501,5.3501,5.3501,5.3501,5.3501,5.3501,5.3501,5.3501,5.3501,5.2627,5.176,5.1377,4.9383,4.7518,4.6803,4.5546,4.4556,4.4167,4.4067,4.4272,4.4661,4.4945,4.5274,4.5663,4.5948,4.6277,4.6681,4.6711,4.6531,4.6112,4.6486,4.6711,4.6711,4.71,4.7309,4.7309,4.7309,4.7309,4.7309,4.7309,4.7309,4.9001,0.0,0.0,0.0,0.0,0.0,0.0,0.0,0.0,0.0,0.0,0.0,0.0,0.0,0.0,0.0,0.0,0.0,0.0,0.0,0.0,0.0,0.0,0.0,0.0,0.0,0.0,0.0,0.0,0.0,0.0,5.795,5.7886,5.7886,5.7821,5.7474,5.6791,5.6791,5.6421,5.5706,5.5706,5.5649,5.5621,5.6438,5.6394,5.5706,5.5706,5.5706,5.5706,5.5706,5.5649,5.5592,5.5592,5.5581,5.5495,5.5495,5.5072,5.4513,5.4513,5.4042,5.3501,5.3501,5.3501,5.3501,5.3501,5.3501,5.3501,5.3501,5.3501,5.3501,5.3501,5.3501,5.3501,5.3501,5.3501,5.3501,5.3501,5.3501,5.3467,5.3382,5.247,5.1431,5.0435,4.8859,4.7426,4.6449,4.5738,4.5289,4.5289,4.5289,4.5319,4.5379,4.5948,4.6309,4.6369,4.6965,4.7309,4.7309,4.7309,4.7309,4.7309,4.7309,4.7309,4.7309,4.7309,4.7309,4.7309,4.7309,4.7309,4.7309,4.7309,4.7309,0.0,4.9001,0.0,0.0,0.0,0.0,0.0,0.0,0.0,0.0,0.0,0.0,0.0,0.0,0.0,0.0,0.0,0.0,0.0,0.0,0.0,0.0,0.0,0.0,0.0,0.0,0.0,0.0,0.0,0.0,5.7997,5.7449,5.7134,5.7134,5.6527,5.6114,5.5948,5.5948,5.5865,0.0,5.5706,5.5408,5.4878,5.561,5.5865,5.5706,5.5706,5.5706,5.5706,5.5706,5.535,5.4848,5.4848,5.4499,5.3979,5.3979,5.3865,5.375,5.375,5.3634,5.3501,5.3501,5.3501,5.3501,5.3501,5.3501,5.3501,5.3501,5.3501,5.3501,5.3501,5.3501,5.3501,5.3501,5.3501,5.3501,5.3501,5.3501,5.3264,5.24,5.1431,5.0397,4.9336,4.8186,4.7147,4.6396,4.5738,4.5289,4.5289,4.5289,4.5499,4.6052,4.619,4.6488,4.7055,4.7219,4.7309,4.7309,4.7309,4.7309,4.7309,4.7309,4.7309,4.7309,4.7309,4.7309,4.7309,4.7309,4.7309,4.7309,4.7309,4.7309,0.0,0.0,0.0,0.0,0.0,0.0,0.0,0.0,0.0,0.0,0.0,0.0,0.0,0.0,0.0,0.0,0.0,0.0,0.0,0.0,0.0,0.0,0.0,0.0,0.0,0.0,0.0,0.0,0.0,5.7839,5.7474,5.7109,5.6721,5.634,5.592,5.5535,5.5173,5.5173,5.4999,5.4637,5.4637,5.4454,5.4074,5.4468,5.4637,5.4637,5.4637,5.4637,5.4637,5.4637,5.4405,5.4074,5.4074,5.3832,5.3501,5.3501,5.3501,5.3501,5.3501,5.3501,5.3501,5.3501,5.3501,5.3501,5.3501,5.3501,5.3501,5.3501,5.3501,5.3501,5.3501,5.3501,5.3382,5.287,5.3144,5.3348,5.2835,5.2749,5.2435,5.1394,5.0342,4.9456,4.8907,4.7946,4.7189,4.6845,4.6486,4.6262,4.6262,4.6262,4.6396,4.6756,4.68,4.6935,4.7279,4.7309,4.7309,4.7309,4.7309,4.7309,4.7309,4.7309,4.7309,4.7309,4.7309,4.7309,4.7309,4.7309,4.7309,4.7309,4.7309,4.7309,0.0,0.0,0.0,0.0,0.0,0.0,0.0,0.0,0.0,0.0,0.0,0.0,0.0,0.0,0.0,0.0,0.0,0.0,0.0,0.0,0.0,0.0,0.0,0.0,0.0,0.0,0.0,0.0,0.0,5.7679,5.6938,5.6765,5.6313,5.5552,5.5379,5.5029,5.4437,5.4405,5.4106,5.3501,5.3501,5.3501,5.3501,5.3501,5.3501,5.3501,5.3501,5.3501,5.3501,5.3501,5.3501,5.3501,5.3501,5.3501,5.3501,5.3501,5.3501,5.3501,5.3501,5.3501,5.3501,5.3501,5.3501,5.3501,5.3501,5.3501,5.3501,5.3501,5.3501,5.3501,5.3501,5.3348,5.299,5.2117,5.2435,5.2714,5.1813,5.1651,5.1357,5.032,4.9271,4.8553,4.8553,4.7834,4.7309,4.7309,4.7309,4.7309,4.7309,4.7309,4.7309,4.7309,4.7309,4.7309,4.7309,4.7309,4.7309,4.7309,4.7309,4.7309,4.7309,4.7309,4.7309,4.7309,4.7309,4.7309,4.7309,4.7309,4.7309,4.7309,4.7309,4.7309,0.0,0.0,0.0,0.0,0.0,0.0,0.0,0.0,0.0,0.0,0.0,0.0,0.0,0.0,0.0,0.0,0.0,0.0,0.0,0.0,0.0,0.0,0.0,0.0,0.0,0.0,0.0,0.0,0.0,5.7679,5.6938,5.6259,5.5524,5.4757,5.4139,5.375,5.3634,5.3651,5.3584,5.3501,5.3501,5.3501,5.3501,5.3501,5.3501,5.3501,5.3501,5.3501,5.3501,5.3501,5.3501,5.3501,5.3501,5.3501,5.3501,5.3501,5.3501,5.3501,5.3501,5.3501,5.3501,5.3501,5.3501,5.3501,5.3501,5.3501,5.3501,5.3501,5.3501,5.3501,5.3501,5.28,5.2082,5.1921,5.1357,5.0795,5.0627,5.0589,5.0281,4.9215,4.8183,4.7495,4.7495,4.7381,4.7309,4.7309,4.7309,4.7309,4.7309,4.7309,4.7309,4.7309,4.7309,4.7309,4.7309,4.7309,4.7309,4.7309,4.7309,4.7309,4.7309,4.7309,4.7309,4.7309,4.7309,4.7309,4.7309,4.7309,4.7309,4.7309,4.7309,4.7309,0.0,0.0,0.0,0.0,0.0,0.0,0.0,0.0,0.0,0.0,0.0,0.0,0.0,0.0,0.0,0.0,0.0,0.0,0.0,0.0,0.0,0.0,0.0,0.0,0.0,0.0,0.0,0.0,0.0,5.685,5.5656,5.5279,5.4743,5.3994,5.3668,5.3501,5.3501,5.3501,5.3281,5.2841,5.2841,5.2621,5.2215,5.2215,5.2689,5.3501,5.3501,5.3501,5.3501,5.3501,5.3501,5.3501,5.3501,5.3501,5.3501,5.3501,5.3501,5.3501,5.3501,5.3501,5.3501,5.3501,5.3501,5.3501,5.3501,5.3501,5.3501,5.3501,5.3501,5.3348,5.2749,5.2224,5.1614,5.0442,4.9836,4.9352,4.8774,4.9125,4.9191,4.8141,4.7609,4.7309,4.7309,4.7309,4.7309,4.7309,4.7309,4.7309,4.7309,4.7309,4.7309,4.7309,4.7309,4.7309,4.7309,4.7309,4.7309,4.7309,4.7309,4.7309,4.7309,4.7309,4.7309,4.7309,4.7309,4.7309,4.7309,4.7309,4.7309,4.7309,4.7309,4.7309,0.0,0.0,0.0,0.0,0.0,0.0,0.0,0.0,0.0,0.0,0.0,0.0,0.0,0.0,0.0,0.0,0.0,0.0,0.0,0.0,0.0,0.0,0.0,0.0,0.0,0.0,0.0,0.0,0.0,5.6012,5.4682,5.4589,5.4264,5.3534,5.3501,5.3501,5.3501,5.3298,5.2807,5.2029,5.2029,5.1742,5.1185,5.1185,5.1843,5.2942,5.3112,5.3196,5.3213,5.3416,5.3501,5.3501,5.3501,5.3501,5.3501,5.3501,5.3501,5.3501,5.3501,5.3501,5.3501,5.3501,5.3501,5.3501,5.3501,5.3501,5.3433,5.3179,5.311,5.2835,5.1776,5.1303,5.0709,4.9175,4.8594,4.821,4.7452,4.7876,4.8225,4.7467,4.7309,4.7309,4.7309,4.7309,4.7309,4.7309,4.7309,4.7309,4.7309,4.7309,4.7309,4.7309,4.7309,4.7309,4.7309,4.7309,4.7309,4.7309,4.7309,4.7309,4.7309,4.7309,4.7309,4.7309,4.7309,4.7309,4.7309,4.7309,4.7309,4.7309,4.7309,4.7309,0.0,0.0,0.0,0.0,0.0,0.0,0.0,0.0,0.0,0.0,0.0,0.0,0.0,0.0,0.0,0.0,0.0,0.0,0.0,0.0,0.0,0.0,0.0,0.0,0.0,0.0,0.0,0.0,0.0,5.5437,5.4651,5.4589,5.4264,5.3534,5.3501,5.3501,5.3501,5.2739,5.1995,5.1268,5.1268,5.1251,5.1185,5.1185,5.1251,5.1369,5.2063,5.2367,5.2418,5.3196,5.3501,5.3501,5.3501,5.3501,5.3501,5.3501,5.3501,5.3501,5.3501,5.3501,5.3501,5.3501,5.3501,5.3501,5.3501,5.3501,5.3298,5.2277,5.1993,5.174,5.0741,4.9734,4.8932,4.8825,4.8072,4.7337,4.7294,4.7337,4.7337,4.7309,4.7309,4.7309,4.7309,4.7309,4.7309,4.7309,4.7309,4.7309,4.7309,4.7309,4.7309,4.7309,4.7309,4.7309,4.7309,4.7309,4.7309,4.7309,4.7309,4.7309,4.7309,4.7309,4.7309,4.7309,4.7309,4.7309,4.7309,4.7309,4.7309,4.7309,4.7309,4.7309,0.0,0.0,0.0,0.0,0.0,0.0,0.0,0.0,0.0,0.0,0.0,0.0,0.0,0.0,0.0,0.0,0.0,0.0,0.0,0.0,0.0,0.0,0.0,0.0,0.0,0.0,0.0,0.0,0.0,0.0,5.3946,5.3881,5.3783,5.3501,5.3501,5.3264,5.2739,5.2435,5.1691,5.049,5.049,5.0253,4.9796,4.9796,4.9796,4.9847,5.0574,5.142,5.2317,5.2604,5.3044,5.3501,5.3501,5.3501,5.3501,5.3501,5.3501,5.3382,5.2714,5.2904,5.3382,5.2714,5.2956,5.3382,5.2662,5.247,5.2241,5.1245,5.093,5.0703,4.9655,4.9094,4.8636,4.7988,4.7581,4.7309,4.7309,4.7309,4.7309,4.7309,4.7309,4.7309,4.7309,4.7309,4.7309,4.7309,4.7309,4.7309,4.7309,4.7309,4.7309,4.7309,4.7309,4.7309,4.7309,4.7309,4.7309,4.7309,4.7309,4.7309,4.7309,4.7309,4.7309,4.7309,4.7309,4.7309,4.7309,4.7309,4.7309,4.7309,4.7309,4.7309,0.0,0.0,0.0,0.0,0.0,0.0,0.0,0.0,0.0,0.0,0.0,0.0,0.0,0.0,0.0,0.0,0.0,0.0,0.0,0.0,0.0,0.0,0.0,0.0,0.0,0.0,0.0,0.0,0.0,0.0,5.3534,5.3501,5.3501,5.3501,5.3501,5.2993,5.1944,5.1944,5.12,4.9729,4.9729,4.9475,4.9001,4.9001,4.9001,4.9004,4.9192,5.0284,5.1912,5.1833,5.2252,5.2921,5.2609,5.2451,5.2451,5.2451,5.2679,5.28,5.1776,5.2082,5.2784,5.174,5.1865,5.2345,5.1614,5.1394,5.1192,5.0149,4.9852,4.9615,4.8569,4.8293,4.8141,4.7452,4.7309,4.7309,4.7309,4.7309,4.7309,4.7309,4.7309,4.7309,4.7309,4.7309,4.7309,4.7309,4.7309,4.7309,4.7309,4.7309,4.7309,4.7309,4.7309,4.7309,4.7309,4.7309,4.7309,4.7309,4.7309,4.7309,4.7309,4.7309,4.7309,4.7309,4.7309,4.7309,4.7309,4.7309,4.7309,4.7309,4.7309,4.7309,0.0,0.0,0.0,0.0,0.0,0.0,0.0,0.0,0.0,0.0,0.0,0.0,0.0,0.0,0.0,0.0,0.0,0.0,0.0,0.0,0.0,0.0,0.0,0.0,0.0,0.0,0.0,0.0,0.0,5.3501,5.3501,5.3501,5.3501,5.3501,5.3501,5.2773,5.1202,5.1185,5.0473,4.9001,4.9001,4.9001,4.9001,4.9001,4.897,4.8909,4.8032,4.8977,5.1089,5.0835,5.1158,5.176,5.0779,5.0397,5.0397,5.0397,5.1005,5.1724,5.0703,5.1005,5.1687,5.0665,5.0358,5.0397,5.0358,5.0358,5.0126,4.9069,4.8743,4.8512,4.7523,4.7309,4.7309,4.7309,4.7309,4.7309,4.7309,4.7309,4.7309,4.7309,4.7309,4.7309,4.7309,4.7309,4.7309,4.7309,4.7309,4.7309,4.7309,4.7309,4.7309,4.7309,4.7309,4.7309,4.7309,4.7309,4.7309,4.7309,4.7309,4.7309,4.7309,4.7309,4.7309,4.7309,4.7309,4.7309,4.7309,4.7309,4.7309,4.7309,4.7309,4.7309,4.329,0.0,0.0,0.0,0.0,0.0,0.0,0.0,0.0,0.0,0.0,0.0,0.0,0.0,0.0,0.0,0.0,0.0,0.0,0.0,0.0,0.0,0.0,0.0,0.0,0.0,0.0,0.0,5.3501,5.3501,5.3501,5.3501,5.3501,5.3501,5.3501,5.2773,5.1202,5.1185,5.0473,4.9001,4.9001,4.9001,4.9001,4.9001,4.8625,4.7999,4.8216,4.8617,4.9115,4.9006,4.9704,5.0779,5.0512,5.0397,5.0397,5.0397,5.0589,5.0665,4.9615,4.9931,5.0627,4.9575,4.9773,5.0242,4.9496,4.9256,4.9029,4.7988,4.7722,4.7651,4.7381,4.7309,4.7309,4.7309,4.7309,4.7309,4.7309,4.7309,4.7309,4.7309,4.7309,4.7309,4.7309,4.7309,4.7309,4.7309,4.7309,4.7309,4.7309,4.7309,4.7309,4.7309,4.7309,4.7309,4.7309,4.7309,4.7309,4.7309,4.7309,4.7309,4.7309,4.7309,4.7309,4.7309,4.7309,4.7309,4.7309,4.7309,4.7309,4.7309,4.7309,4.7309,0.0,0.0,0.0,0.0,0.0,0.0,0.0,4.744,0.0,0.0,0.0,0.0,0.0,0.0,0.0,0.0,0.0,0.0,0.0,0.0,0.0,0.0,0.0,0.0,0.0,0.0,0.0,5.345,5.3501,5.3501,5.3501,5.3501,5.3501,5.3501,5.3501,5.2909,5.1674,5.1674,5.093,4.9458,4.9458,4.9085,4.8401,4.8401,4.805,4.744,4.741,4.7643,4.8,4.7606,4.8365,4.9694,4.9287,4.9101,4.9101,4.9101,4.9352,4.9575,4.8527,4.8841,4.9575,4.8527,4.8625,4.8979,4.8377,4.8183,4.8072,4.7452,4.7309,4.7309,4.7309,4.7309,4.7309,4.7309,4.7309,4.7309,4.7309,4.7309,4.7309,4.7309,4.7309,4.7309,4.7309,4.7309,4.7309,4.7309,4.7309,4.7309,4.7309,4.7309,4.7309,4.7309,4.7309,4.7309,4.7309,4.7309,4.7309,4.7309,4.6785,4.6741,4.7266,4.6785,4.6491,4.6491,4.7019,4.7309,4.7309,4.7309,4.7309,4.7309,4.7309,4.7309,0.0,0.0,0.0,0.0,0.0,0.0,4.5834,4.6154,4.6208,0.0,0.0,0.0,0.0,0.0,0.0,0.0,0.0,0.0,0.0,0.0,0.0,0.0,0.0,0.0,0.0,5.1792,5.2553,5.3433,5.3501,5.3501,5.3501,5.3501,5.3501,5.3501,5.3501,5.3112,5.2317,5.23,5.1606,5.0219,5.0107,4.9271,4.7836,4.772,4.7485,4.7098,4.6303,4.653,4.7496,4.6731,4.7304,4.8553,4.7651,4.7309,4.7309,4.7309,4.7876,4.8527,4.7609,4.7876,4.8486,4.7609,4.7309,4.7309,4.7309,4.7309,4.7309,4.7309,4.7309,4.7309,4.7309,4.7309,4.7309,4.7309,4.7309,4.7309,4.7309,4.7309,4.7309,4.7309,4.7309,4.7309,4.7309,4.7309,4.7309,4.7309,4.7309,4.7309,4.7309,4.7309,4.7309,4.7309,4.7309,4.7309,4.7309,4.7309,4.7309,4.7309,4.6255,4.6107,4.7251,4.6211,4.5539,4.5403,4.6358,4.6873,4.6873,4.7164,4.7309,4.7309,4.7309,4.7309,0.0,0.0,0.0,0.0,0.0,0.0,4.5005,4.567,4.6208,0.0,0.0,0.0,0.0,0.0,0.0,0.0,0.0,0.0,0.0,0.0,0.0,0.0,0.0,0.0,0.0,5.1352,5.2012,5.3399,5.3501,5.3501,5.3501,5.3501,5.3501,5.3501,5.3501,5.3112,5.2317,5.23,5.186,5.0965,5.0159,4.962,4.9266,4.8411,4.7548,4.6804,4.7167,4.7038,4.659,4.6976,4.7304,4.7566,4.7381,4.7309,4.7309,4.7309,4.7424,4.7566,4.7381,4.7424,4.7581,4.7337,4.7309,4.7309,4.7309,4.7309,4.7309,4.7309,4.7309,4.7309,4.7309,4.7309,4.7309,4.7309,4.7309,4.7309,4.7309,4.7309,4.7309,4.7309,4.7309,4.7309,4.7309,4.7309,4.7309,4.7309,4.7309,4.7309,4.7309,4.7309,4.7309,4.7309,4.7309,4.7309,4.7309,4.7309,4.7309,4.7309,4.7062,4.7019,4.7309,4.7062,4.6447,4.5403,4.4642,4.4256,4.4256,4.6299,4.7309,4.7309,4.7309,4.7309,0.0,0.0,0.0,4.329,0.0,0.0,0.0,4.4419,4.475,0.0,0.0,0.0,0.0,0.0,0.0,0.0,0.0,0.0,0.0,0.0,0.0,0.0,0.0,0.0,0.0,5.1185,5.186,5.3382,5.3501,5.3501,5.3501,5.3501,5.3501,5.3501,5.3501,5.3315,5.2909,5.2909,5.252,5.1726,5.0722,4.9812,4.8956,4.7898,4.7083,4.6539,4.6874,4.6906,4.683,4.7174,4.7309,4.7309,4.7309,4.7309,4.7309,4.7309,4.7309,4.7309,4.7309,4.7309,4.7309,4.7309,4.7309,4.7309,4.7309,4.7309,4.7309,4.7309,4.7309,4.7309,4.7309,4.7309,4.7309,4.7309,4.7309,4.7309,4.7309,4.7309,4.7309,4.7309,4.7309,4.7309,4.7309,4.7309,4.7309,4.7309,4.7309,4.7309,4.7309,4.7309,4.7309,4.7309,4.7309,4.7309,4.7309,4.7309,4.7309,4.7309,4.6682,4.6344,4.6344,4.5734,4.5115,4.4456,4.3834,4.3834,4.4442,4.6358,4.6975,4.6358,4.7019,4.7309,0.0,0.0,0.0,0.0,0.0,4.329,0.0,0.0,0.0,0.0,0.0,0.0,0.0,0.0,0.0,0.0,0.0,0.0,0.0,0.0,0.0,0.0,0.0,0.0,0.0,5.1373,5.2164,5.3416,5.3501,5.3501,5.3501,5.3501,5.3501,5.3501,5.3501,5.3501,5.3501,5.3501,5.3062,5.2219,5.1208,4.9913,4.8348,4.7301,4.6706,4.6516,4.6516,4.6815,4.7309,4.7309,4.7309,4.7309,4.7309,4.7309,4.7309,4.7309,4.7309,4.7309,4.7309,4.7309,4.7309,4.7309,4.7309,4.7309,4.7309,4.7309,4.7309,4.7309,4.7309,4.7309,4.7309,4.7309,4.7309,4.7309,4.7309,4.7309,4.7309,4.7309,4.7309,4.7309,4.7309,4.7309,4.7309,4.7309,4.7309,4.7309,4.7309,4.7309,4.7309,4.7309,4.7309,4.7309,4.7309,4.7309,4.7309,4.7309,4.7207,4.6975,4.6211,4.5539,4.507,4.3834,4.3122,4.3122,4.3122,4.3646,4.4688,4.6211,4.6535,4.5779,4.6829,4.7309,0.0,0.0,0.0,0.0,4.329,0.0,0.0,0.0,4.329,0.0,0.0,0.0,0.0,0.0,0.0,0.0,0.0,0.0,0.0,0.0,0.0,0.0,0.0,0.0,0.0,0.0,5.3315,5.3501,5.3501,5.3501,5.3501,5.3501,5.3501,5.3501,5.3501,5.3501,5.3501,5.3501,5.2991,5.1933,5.0929,4.985,4.8715,4.7691,4.7244,4.7189,4.7189,4.7234,4.7309,4.7309,4.7309,4.7309,4.7309,4.7309,4.7309,4.7309,4.7309,4.7309,4.7309,4.7309,4.7309,4.7309,4.7309,4.7309,4.7309,4.7309,4.7309,4.7309,4.7309,4.7309,4.7309,4.7309,4.7309,4.7309,4.7309,4.7309,4.7309,4.7309,4.7309,4.7309,4.7309,4.7309,4.7309,4.7309,4.7309,4.7309,4.7309,4.7309,4.7309,4.7309,4.7309,4.7309,4.7309,4.7309,4.7309,4.7309,4.6829,4.5689,4.6535,4.6062,4.3834,4.2509,4.1838,4.1838,4.1838,4.1887,4.2035,4.4442,4.6107,4.7062,4.7207,4.7309,0.0,0.0,0.0,0.0,0.0,0.0,0.0,0.0,4.329,0.0,0.0,0.0,0.0,0.0,0.0,0.0,0.0,0.0,0.0,0.0,0.0,0.0,0.0,0.0,0.0,0.0,0.0,0.0,5.2904,5.2835,5.3467,5.3501,5.3501,5.3501,5.3501,5.3501,5.3501,5.287,5.2364,5.1885,5.0265,4.9215,4.8743,4.7764,4.7309,4.7309,4.7309,4.7309,4.7309,4.7309,4.7309,4.7309,4.7309,4.7309,4.7309,4.7309,4.7309,4.7309,4.7309,4.7309,4.7309,4.7309,4.7309,4.7309,4.7309,4.7309,4.7309,4.7309,4.7309,4.7309,4.7309,4.7309,4.7309,4.7309,4.7309,4.7309,4.7309,4.7309,4.7309,4.7309,4.7309,4.7309,4.7309,4.7309,4.7309,4.7309,4.7309,4.7309,4.7309,4.7309,4.7309,4.7309,4.7309,4.7309,4.7309,4.7309,4.7062,4.6535,4.6299,4.5734,4.4642,4.2689,4.1936,4.2689,4.2689,4.3074,4.3834,4.5629,4.6785,4.7309,4.7309,4.7309,4.329,0.0,0.0,0.0,0.0,0.0,0.0,0.0,0.0,0.0,0.0,0.0,0.0,0.0,0.0,0.0,0.0,0.0,0.0,0.0,0.0,0.0,0.0,0.0,0.0,0.0,0.0,5.299,5.2348,5.2364,5.3433,5.3501,5.3501,5.3501,5.3501,5.3501,5.3501,5.2435,5.176,5.1467,4.9679,4.8677,4.8361,4.7651,4.7309,4.7309,4.7309,4.7309,4.7309,4.7309,4.7309,4.7309,4.7309,4.7309,4.7309,4.7309,4.7309,4.7309,4.7309,4.7309,4.7309,4.7309,4.7309,4.7309,4.7309,4.7309,4.7309,4.7309,4.7309,4.7309,4.7309,4.7309,4.7309,4.7309,4.7309,4.7309,4.7309,4.7309,4.7309,4.7309,4.7309,4.7309,4.7309,4.7309,4.7309,4.7309,4.7309,4.7309,4.7309,4.7309,4.7309,4.7309,4.7309,4.7309,4.7309,4.7309,4.7164,4.6785,4.5252,4.4349,4.4349,4.2266,4.169,4.293,4.2978,4.3787,4.5403,4.6344,4.6785,4.6785,4.7164,4.7309,0.0,0.0,0.0,4.329,0.0,0.0,0.0,0.0,4.329,0.0,0.0,0.0,0.0,0.0,0.0,0.0,0.0,0.0,0.0,0.0,0.0,0.0,0.0,0.0,0.0,0.0,0.0,5.1885,5.1921,5.2364,5.3433,5.3501,5.3501,5.3501,5.3501,5.3501,5.3501,5.2435,5.1431,5.0435,4.9336,4.8293,4.7337,4.7294,4.7309,4.7309,4.7309,4.7309,4.7309,4.7309,4.7309,4.7309,4.7309,4.7309,4.7309,4.7309,4.7309,4.7309,4.7309,4.7309,4.7309,4.7309,4.7309,4.7309,4.7309,4.7309,4.7309,4.7309,4.7309,4.7309,4.7309,4.7309,4.7309,4.7309,4.7309,4.7309,4.7309,4.7309,4.7309,4.7309,4.7309,4.7309,4.7309,4.7309,4.7309,4.7309,4.7309,4.7309,4.7309,4.7309,4.7309,4.7309,4.7309,4.7309,4.7309,4.7309,4.6785,4.5539,4.3122,4.1739,4.1739,4.0453,4.0364,4.1654,4.1654,4.2882,4.5403,4.5448,4.5448,4.5494,4.6726,4.7309,0.0,0.0,4.329,4.329,0.0,0.0,0.0,0.0,0.0,0.0,0.0,0.0,0.0,0.0,0.0,0.0,0.0,0.0,0.0,0.0,0.0,0.0,0.0,0.0,0.0,0.0,0.0,5.0817,5.0265,5.0304,5.141,5.1447,5.1447,5.1447,5.1447,5.1447,5.1447,5.0381,4.9679,4.9336,4.8293,4.7609,4.7309,4.7309,4.7309,4.7309,4.7309,4.7309,4.7309,4.7309,4.7309,4.7309,4.7309,4.7309,4.7309,4.7309,4.7309,4.7309,4.7309,4.7309,4.7309,4.7309,4.7309,4.7309,4.7309,4.7309,4.7309,4.7309,4.7309,4.7309,4.7309,4.7309,4.7309,4.7309,4.7309,4.7309,4.7309,4.7309,4.7309,4.7309,4.7309,4.7309,4.7309,4.7309,4.7309,4.7309,4.7309,4.7309,4.7309,4.7309,4.7309,4.7309,4.7309,4.7309,4.7309,4.6535,4.5494,4.421,4.3313,4.2882,4.2882,4.1654,4.1555,4.2834,4.2035,4.2461,4.4116,4.4116,4.4116,4.4163,4.4595,4.478,4.329,4.329,0.0,4.329,4.329,0.0,4.329,0.0,0.0,0.0,0.0,0.0,0.0,0.0,0.0,0.0,0.0,0.0,0.0,0.0,0.0,0.0,0.0,0.0,0.0,0.0,4.8677,4.9734,4.9175,4.9256,0.0,0.0,5.0397,5.0397,5.0397,5.0397,5.0397,4.9336,4.8784,4.8784,4.7764,4.7309,4.7309,4.7309,4.7309,4.7309,4.7309,4.7309,4.7309,4.7309,4.7309,4.7309,4.7309,4.7309,4.7309,4.7309,4.7309,4.7309,4.7309,4.7309,4.7309,4.7309,4.7309,4.7309,4.7309,4.7309,4.7309,4.7309,4.7309,4.7309,4.7309,4.7309,4.7309,4.7309,4.7309,4.7309,4.7309,4.7309,4.7309,4.7309,4.7309,4.7309,4.7309,4.7309,4.7309,4.7309,4.7309,4.7309,4.7309,4.7309,4.7309,4.7309,4.7309,4.7309,4.7309,4.6107,4.4872,4.3598,4.3074,4.2593,4.2168,4.1369,4.1597,4.3098,4.166,4.1895,4.3773,4.3136,4.2834,4.2834,4.2834,4.2593]}]]